     2.11           OBSERVATION DATA    G (GPS)             RINEX VERSION / TYPE
teqc 2010Oct21 OPUS Account 20111025 19:59:25UTC            PGM / RUN BY / DATE
S 1521                                                      MARKER NAME
1148                                                        MARKER NUMBER
CSMIDDLETON NGS                                             OBSERVER / AGENCY
4624K01647 TRIMBLE NETR5 4.41                               REC # / TYPE / VERS
12694052 TRM41249.00 NONE                                   ANT # / TYPE
  -739402.6287 -5471675.6610  3182512.2374                  APPROX POSITION XYZ
        2.0040        0.0000        0.0000                  ANTENNA: DELTA H/E/N
     1     1                                                WAVELENGTH FACT L1/2
     5    L1    L2    C1    P1    P2                        # / TYPES OF OBSERV
    15                                                      LEAP SECONDS
  2011     7    28     0     0    0.0000000     GPS         TIME OF FIRST OBS
                                                            END OF HEADER
 11  7 28  0  0  0.0000000  0  9G12G20G04G27G09G28G17G02G10
 131994615.063 6 102852990.42342  25117742.570                    25117752.102
 127188123.514 6  99107630.43143  24203083.148                    24203091.398
 104674852.343 8  81564991.31846  19918945.055                    19918952.922
 117804465.324 7  91795555.68145  22417398.406                    22417407.109
 116562182.649 7  90827828.92044  22181069.719                    22181078.145
 114603381.884 8  89301388.62345  21808288.781                    21808295.922
 112288123.034 8  87497241.47646  21367680.617                    21367687.715
 117492558.590 8  91552706.87245  22358062.180                    22358069.531
 123925698.894 6  96565497.97543  23582251.180                    23582262.098
 11  7 28  0  0 30.0000000  0  9G12G20G04G27G09G28G17G02G10
 131898806.957 6 102778334.80243  25099511.242                    25099520.000
 127222184.748 5  99134171.62343  24209564.016                    24209573.051
 104659435.527 8  81552978.22546  19916011.492                    19916019.137
 117793649.477 7  91787127.71945  22415340.359                    22415349.480
 116534041.536 7  90805900.77644  22175715.195                    22175723.227
 114653738.860 7  89340627.79745  21817871.359                    21817878.859
 112319070.810 7  87521356.61246  21373569.305                    21373576.824
 117412340.538 8  91490199.41645  22342797.000                    22342804.516
 123831733.488 6  96492278.33643  23564369.805                    23564381.387
 11  7 28  0  1  0.0000000  0  9G12G20G04G27G09G28G17G02G10
 131802939.264 6 102703632.80843  25081267.680                    25081277.379
 127256741.222 6  99161098.72943  24216140.555                    24216148.469
 104644591.703 8  81541411.62446  19913186.523                    19913194.160
 117783325.969 7  91779083.39345  22413375.992                    22413384.727
 116506534.662 7  90784466.85644  22170480.164                    22170489.449
 114704467.621 8  89380156.65445  21827524.195                    21827532.227
 112350114.516 7  87545546.49446  21379476.625                    21379484.156
 117332410.646 8  91427916.48945  22327586.500                    22327594.039
 123737808.316 6  96419090.05544  23546496.438                    23546507.895
 11  7 28  0  1 30.0000000  0  9G12G20G04G27G09G28G17G02G10
 131707013.546 6 102628885.56443  25063012.844                    25063023.434
 127291792.948 6  99188411.77043  24222810.773                    24222818.695
 104630320.942 8  81530291.57246  19910470.891                    19910478.461
 117773494.957 7  91771422.84245  22411505.305                    22411513.813
 116479662.612 7  90763527.57344  22165366.508                    22165376.000
 114755568.351 8  89419975.36445  21837248.813                    21837256.078
 112381253.652 8  87569810.73046  21385402.680                    21385409.762
 117252770.494 8  91365859.33445  22312432.055                    22312439.273
 123643926.682 6  96345935.67444  23528630.945                    23528642.395
 11  7 28  0  2  0.0000000  0  9G12G20G04G27G09G28G17G02G10
 131611031.159 6 102554094.15642  25044749.023                    25044758.457
 127327339.020 6  99216109.96543  24229575.023                    24229582.813
 104616622.972 8  81519617.84046  19907864.359                    19907872.148
 117764156.229 7  91764145.88145  22409728.141                    22409737.148
 116453426.436 7  90743083.79045  22160374.477                    22160383.141
 114807041.091 7  89460083.96045  21847043.945                    21847050.684
 112412488.331 8  87594149.42946  21391346.281                    21391353.609
 117173421.580 8  91304029.10745  22297332.500                    22297339.395
 123550091.947 7  96272817.80943  23510775.359                    23510785.465
 11  7 28  0  2 30.0000000  0  9G12G20G04G27G09G28G17G02G10
 131514993.032 6 102479259.29442  25026473.398                    25026482.801
 127363379.079 6  99244193.11243  24236432.578                    24236440.852
 104603497.576 8  81509390.27746  19905366.320                    19905374.324
 117755309.706 7  91757252.45845  22408044.797                    22408053.484
 116427826.885 7  90723136.11044  22155503.117                    22155511.164
 114858885.827 7  89500482.42545  21856909.305                    21856916.852
 112443817.705 7  87618561.91046  21397308.180                    21397315.402
 117094365.483 8  91242427.05545  22282288.109                    22282295.309
 123456306.934 6  96199738.71943  23492927.703                    23492938.664
 11  7 28  0  3  0.0000000  0  9G12G20G04G27G09G28G17G02G10
 131418900.758 6 102404382.26542  25008187.891                    25008196.387
 127399912.123 6  99272660.41843  24243384.609                    24243392.414
 104590944.139 8  81499608.39546  19902977.844                    19902985.359
 117746955.236 7  91750742.44745  22406455.031                    22406463.813
 116402864.124 7  90703684.62844  22150752.469                    22150761.113
 114911102.564 8  89541170.75945  21866846.039                    21866853.414
 112475241.701 8  87643048.12446  21403287.984                    21403295.047
 117015603.101 8  91181053.86645  22267300.016                    22267307.332
 123362575.092 7  96126701.06144  23475091.727                    23475102.168
 11  7 28  0  3 30.0000000  0  9G12G20G04G27G09G28G17G02G10
 131322755.448 5 102329463.88642  24989891.750                    24989900.582
 127436937.560 6  99301511.34843  24250429.781                    24250438.352
 104578962.221 8  81490271.85846  19900697.594                    19900705.320
 117739092.742 7  91744615.80745  22404958.188                    22404967.523
 116378538.809 7  90684729.86545  22146123.703                    22146132.277
 114963691.224 7  89582148.90345  21876853.430                    21876861.113
 112506759.692 8  87667607.59046  21409285.758                    21409293.203
 116937135.665 8  91119910.49645  22252368.336                    22252375.430
 123268899.413 7  96053707.15544  23457266.266                    23457276.539
 11  7 28  0  4  0.0000000  0  9G12G20G04G27G09G28G17G02G10
 131226559.018 6 102254505.68742  24971585.617                    24971595.727
 127474454.718 6  99330745.52443  24257570.195                    24257578.168
 104567551.841 8  81481380.67146  19898526.375                    19898534.012
 117731722.437 7  91738872.68445  22403555.648                    22403565.066
 116354851.524 7  90666272.24744  22141615.703                    22141625.105
 115016651.970 7  89623416.97845  21886931.453                    21886938.930
 112538371.812 8  87692240.40246  21415301.594                    21415308.922
 116858964.852 8  91058998.26445  22237492.422                    22237499.473
 123175282.951 7  95980759.39244  23439450.875                    23439461.555
 11  7 28  0  4 30.0000000  0  9G12G20G04G27G09G28G17G02G10
 131130312.888 5 102179508.76842  24953270.633                    24953280.695
 127512463.064 6  99360362.38443  24264801.867                    24264811.227
 104556712.639 8  81472934.55246  19896463.883                    19896471.441
 117724844.102 7  91733512.91545  22402247.375                    22402255.969
 116331802.691 7  90648312.13544  22137230.102                    22137238.883
 115069984.814 7  89664975.00145  21897080.172                    21897087.254
 112570077.607 7  87716946.20546  21421334.625                    21421341.953
 116781091.956 8  90998318.17045  22222673.367                    22222680.617
 123081729.068 6  95907860.40744  23421647.914                    23421658.324
 11  7 28  0  5  0.0000000  0  9G12G20G04G27G09G28G17G02G10
 131034018.535 5 102104474.27442  24934946.234                    24934956.297
 127550961.675 6  99390361.30042  24272128.789                    24272137.004
 104546444.100 8  81464933.10846  19894509.859                    19894517.363
 117718457.364 7  91728536.21745  22401032.352                    22401040.563
 116309392.555 7  90630849.69145  22132965.688                    22132974.125
 115123689.629 7  89706822.87645  21907299.906                    21907307.754
 112601876.813 8  87741724.79746  21427386.047                    21427393.297
 116703518.157 8  90937871.15145  22207912.203                    22207919.082
 122988241.167 7  95835012.80844  23403856.852                    23403868.332
 11  7 28  0  5 30.0000000  0  9G12G20G04G27G09G28G17G02G10
 130937676.947 6 102029403.04243  24916613.273                    24916623.234
 127589949.646 6  99420741.50142  24279547.766                    24279555.586
 104536745.288 8  81457375.60246  19892663.930                    19892671.668
 117712561.783 7  91723942.24845  22399910.016                    22399918.922
 116287621.559 7  90613885.28744  22128822.992                    22128831.316
 115177765.996 8  89748960.26245  21917590.703                    21917597.832
 112633768.543 8  87766575.49046  21433454.961                    21433462.402
 116626244.434 8  90877657.93745  22193207.086                    22193214.008
 122894822.147 7  95762218.90044  23386080.516                    23386090.645
 11  7 28  0  6  0.0000000  0  9G12G20G04G27G09G28G17G02G10
 130841289.910 5 101954296.34343  24898270.328                    24898280.859
 127629426.337 6  99451502.55642  24287059.633                    24287067.340
 104527616.157 8  81450262.01246  19890926.820                    19890934.711
 117707157.373 7  91719731.00245  22398881.617                    22398890.754
 116266490.678 7  90597419.67445  22124802.031                    22124810.160
 115232214.035 7  89791387.26245  21927952.359                    21927958.930
 112665753.190 8  87791498.58146  21439541.031                    21439548.594
 116549272.400 8  90817679.80845  22178559.641                    22178567.055
 122801475.264 6  95689481.20344  23368317.227                    23368327.719
 11  7 28  0  6 30.0000000  0  9G12G20G04G27G09G28G17G02G10
 130744858.707 5 101879155.23742  24879920.359                    24879930.371
 127669390.650 6  99482643.56043  24294665.164                    24294672.313
 104519056.048 8  81443591.81146  19889297.547                    19889305.664
 117702243.934 7  91715902.34245  22397946.594                    22397955.371
 116245999.758 7  90581452.71545  22120902.172                    22120911.227
 115287033.265 7  89834103.52045  21938383.758                    21938390.965
 112697830.065 8  87816493.54546  21445645.266                    21445652.879
 116472603.163 8  90757937.63645  22163969.938                    22163977.367
 122708203.725 7  95616802.23944  23350567.922                    23350578.742
 11  7 28  0  7  0.0000000  0  9G12G20G04G27G09G28G17G02G10
 130648385.103 5 101803981.17443  24861562.641                    24861571.734
 127709842.034 6  99514164.13542  24302362.906                    24302370.465
 104511064.758 8  81437364.84546  19887777.242                    19887784.617
 117697821.132 7  91712455.99745  22397105.000                    22397114.066
 116226149.266 7  90565984.79745  22117124.797                    22117134.047
 115342224.277 7  89877109.46145  21948886.289                    21948892.996
 112729999.283 8  87841560.45646  21451766.711                    21451773.719
 116396238.224 8  90698432.57545  22149438.375                    22149445.004
 122615010.706 7  95544184.46344  23332834.281                    23332844.320
 11  7 28  0  7 30.0000000  0  9G12G20G04G27G09G28G17G02G10
 130551870.197 5 101728774.89042  24843195.742                    24843204.969
 127750779.481 6  99546063.42242  24310153.352                    24310160.160
 104503641.288 8  81431580.33546  19886364.227                    19886372.281
 117693888.442 7  91709391.55145  22396356.656                    22396365.582
 116206939.291 7  90551015.95944  22113469.539                    22113477.914
 115397786.655 7  89920404.77645  21959459.219                    21959466.770
 112762260.219 7  87866698.83246  21457905.594                    21457912.871
 116320178.648 8  90639165.46945  22134965.016                    22134971.145
 122521899.154 6  95471630.12544  23315115.352                    23315125.363
 11  7 28  0  8  0.0000000  0  9G12G20G04G27G09G28G17G02G10
 130455315.747 5 101653537.74042  24824823.313                    24824831.664
 127792202.135 6  99578340.84542  24318035.000                    24318043.234
 104496785.368 8  81426238.07146  19885059.453                    19885067.184
 117690445.897 7  91706709.04745  22395701.703                    22395710.766
 116188370.356 7  90536546.64045  22109936.047                    22109944.445
 115453720.237 7  89963989.33745  21970103.023                    21970110.055
 112794612.592 7  87891908.46146  21464062.117                    21464069.859
 116244425.942 8  90580137.46545  22120549.266                    22120556.063
 122428872.481 6  95399141.93344  23297413.023                    23297422.668
 11  7 28  0  8 30.0000000  0  9G12G20G04G27G09G28G17G02G10
 130358723.232 6 101578271.08442  24806442.117                    24806450.203
 127834109.219 6  99610995.68143  24326010.000                    24326018.258
 104490496.627 8  81421337.76346  19883862.859                    19883870.484
 117687493.260 7  91704408.29145  22395139.523                    22395148.637
 116170442.830 7  90522577.11544  22106524.359                    22106532.664
 115510025.071 7  90007863.20145  21980817.828                    21980824.598
 112827056.326 7  87917189.27646  21470236.039                    21470243.449
 116168981.270 8  90521349.49845  22106192.039                    22106198.707
 122335933.993 6  95326722.49044  23279727.500                    23279737.480
 11  7 28  0  9  0.0000000  0  9G12G20G04G27G09G28G17G02G10
 130262094.372 6 101502976.01142  24788053.281                    24788062.211
 127876499.596 6  99644027.12942  24334076.477                    24334085.379
 104484774.038 8  81416878.60846  19882774.000                    19882781.723
 117685029.954 7  91702488.83845  22394670.617                    22394679.547
 116153156.827 7  90509107.48945  22103234.758                    22103243.680
 115566700.748 7  90052026.02145  21991602.844                    21991610.082
 112859591.345 7  87942541.23546  21476427.414                    21476434.887
 116093845.499 8  90462802.23045  22091894.703                    22091901.164
 122243086.651 6  95254374.04043  23262058.523                    23262068.836
 11  7 28  0  9 30.0000000  0  9G12G20G04G27G09G28G17G02G10
 130165430.707 6 101427653.72242  24769658.477                    24769667.301
 127919372.664 6  99677434.68843  24342235.828                    24342243.418
 104479617.523 8  81412860.55446  19881792.820                    19881800.508
 117683055.958 7  91700950.65745  22394295.156                    22394304.016
 116136512.668 7  90496137.98145  22100067.125                    22100075.836
 115623747.221 7  90096477.74745  22002458.125                    22002466.020
 112892217.378 8  87967964.10946  21482636.156                    21482643.488
 116019020.167 8  90404496.86545  22077655.742                    22077662.832
 122150334.163 6  95182099.52344  23244408.453                    23244418.711
 11  7 28  0 10  0.0000000  0  9G12G20G04G27G09G28G17G02G10
 130068733.301 6 101352305.24942  24751259.305                    24751266.660
 127962727.088 6  99711217.35943  24350484.930                    24350493.664
 104475025.482 8  81409282.36346  19880918.992                    19880926.570
 117681570.235 7  91699792.95345  22394012.805                    22394021.871
 116120510.067 7  90483668.38144  22097022.883                    22097031.059
 115681163.962 7  90141218.02445  22013384.227                    22013392.086
 112924933.732 7  87993457.36646  21488861.570                    21488868.965
 115944505.905 8  90346433.87746  22063476.336                    22063482.891
 122057679.379 6  95109901.12044  23226776.789                    23226787.281
 11  7 28  0 10 30.0000000  0  9G12G20G04G27G09G28G17G02G10
 129972003.667 6 101276931.63942  24732850.797                    24732860.164
 128006561.794 6  99745374.22942  24358825.836                    24358834.957
 104470997.725 8  81406143.86146  19880152.602                    19880160.203
 117680572.459 7  91699015.46645  22393822.813                    22393831.688
 116105149.274 7  90471698.92045  22094099.820                    22094108.035
 115738950.839 7  90186246.70645  22024381.172                    22024388.363
 112957740.709 8  88019021.23446  21495104.297                    21495111.684
 115870304.405 8  90288614.61945  22049356.000                    22049362.973
 121965125.658 6  95037781.47944  23209164.102                    23209174.195
 11  7 28  0 11  0.0000000  0  9G12G20G04G27G09G28G17G02G10
 129875243.647 6 101201534.33843  24714437.391                    24714447.305
 128050876.094 6  99779904.85542  24367258.375                    24367267.242
 104467533.616 8  81403444.56746  19879493.570                    19879500.871
 117680062.361 7  91698617.98545  22393725.273                    22393734.449
 116090430.362 7  90460229.60945  22091298.398                    22091307.398
 115797107.848 7  90231563.80745  22035447.867                    22035455.289
 112990637.519 8  88044655.08946  21501364.547                    21501372.152
 115796416.599 8  90231039.78846  22035295.469                    22035302.602
 121872676.331 7  94965743.13644  23191571.414                    23191581.875
 11  7 28  0 11 30.0000000  0  9G12G20G04G27G09G28G17G02G10
 129778454.863 6 101126114.59743  24696019.352                    24696028.980
 128095668.946 5  99814808.36742  24375782.703                    24375791.555
 104464632.556 8  81401184.01246  19878941.359                    19878948.883
 117680039.727 7  91698600.34545  22393721.398                    22393730.590
 116076353.622 7  90449260.67645  22088619.648                    22088628.875
 115855634.852 7  90277169.22045  22046585.305                    22046592.492
 113023624.384 7  88070359.12346  21507642.617                    21507649.508
 115722843.891 8  90173710.50046  22021295.125                    22021302.277
 121780334.464 6  94893788.57344  23173999.453                    23174009.781
 11  7 28  0 12  0.0000000  0  9G12G20G04G27G09G28G17G02G10
 129681638.945 6 101050673.68943  24677596.359                    24677605.402
 128140939.132 5  99850083.82042  24384397.070                    24384406.297
 104462293.414 8  81399361.31146  19878495.766                    19878503.738
 117680503.906 7  91698962.03245  22393809.664                    22393818.527
 116062918.910 7  90438792.03945  22086062.602                    22086071.891
 115914531.215 7  90323062.44245  22057792.977                    22057800.340
 113056701.031 7  88096133.12346  21513935.891                    21513943.793
 115649587.435 8  90116627.62046  22007354.625                    22007361.770
 121688103.365 6  94821920.31344  23156448.867                    23156458.727
 11  7 28  0 12 30.0000000  0  9G12G20G04G27G09G28G17G02G10
 129584797.498 6 100975212.88543  24659167.930                    24659177.332
 128186685.725 5  99885730.36142  24393102.469                    24393112.051
 104460515.826 8  81397976.19246  19878157.484                    19878165.180
 117681454.433 7  91699702.68745  22393990.359                    22393999.535
 116050126.308 7  90428823.75645  22083629.672                    22083637.414
 115973796.901 7  90369243.46545  22069070.508                    22069078.168
 113089867.159 7  88121976.84946  21520247.945                    21520254.992
 115576648.164 8  90059791.90045  21993474.344                    21993481.543
 121595986.475 7  94750141.04544  23138919.922                    23138929.145
 11  7 28  0 13  0.0000000  0  9G12G20G04G27G09G28G17G02G10
 129487932.473 6 100899733.73743  24640734.875                    24640744.656
 128232908.345 5                  24401897.078
 104459299.483 8  81397028.40346  19877926.203                    19877933.727
 117682891.310 7  91700822.32745  22394264.125                    22394273.215
 116037976.261 7  90419356.17445  22081316.984                    22081325.566
 116033431.934 7  90415712.26545  22080419.008                    22080427.211
 113123123.356 7  88147890.74246  21526576.031                    21526583.289
 115504027.803 8  90003204.67645  21979655.641                    21979662.391
 121503987.491 7  94678453.64044  23121412.484                    23121422.148
 11  7 28  0 13 30.0000000  0  9G12G20G04G27G09G28G17G02G10
 129391044.876 6 100824236.93343  24622297.859                    24622306.715
 128279604.958 5                  24410785.273
 104458642.683 8  81396516.61746  19877801.508                    19877809.246
 117684813.220 7  91702319.91545  22394629.172                    22394638.570
 116026468.217 7  90410388.87245  22079126.898                    22079135.750
 116093436.018 7  90462468.63245  22091837.281                    22091844.945
 113156468.703 7  88173874.12646  21532921.102                    21532928.707
 115431726.771 8  89946866.27845  21965897.156                    21965903.746
 121412108.803 7  94606859.97044  23103928.242                    23103937.742
 11  7 28  0 14  0.0000000  0  9G12G20G04G27G09G28G17G02G10
 129294136.083 6 100748723.64743  24603856.898                    24603865.586
 128326774.142 6  99994865.07552  24419761.203                    24419767.867
 104458544.060 8  81396439.78046  19877782.211                    19877790.449
 117687219.316 7  91704194.77345  22395087.813                    22395096.379
 116015601.553 7  90401921.33045  22077059.398                    22077067.785
 116153807.721 7  90509511.45745  22103326.016                    22103333.484
 113189902.459 7  88199926.38546  21539283.766                    21539291.078
 115359745.920 8  89890777.37245  21952199.531                    21952206.090
 121320353.305 7  94535362.29644  23086467.508                    23086477.055
 11  7 28  0 14 30.0000000  0  9G12G20G04G27G09G28G17G02G10
 129197208.378 6 100673195.57643  24585411.609                    24585420.777
 128374415.247 6 100031988.01543  24428826.758                    24428835.059
 104459003.841 8  81396798.05646  19877869.664                    19877877.723
 117690109.610 7  91706446.93545  22395637.297                    22395647.012
 116005376.719 7  90393953.90745  22075113.875                    22075122.371
 116214547.269 7  90556840.94345  22114884.242                    22114891.840
 113223425.317 8  88226048.08146  21545662.508                    21545669.578
 115288086.910 8  89834939.24446  21938563.359                    21938569.699
 121228725.197 7  94463963.88244  23069031.539                    23069040.867
 11  7 28  0 15  0.0000000  0  9G12G20G04G27G09G28G17G02G10
 129100262.978 6 100597653.74243  24566963.422                    24566972.688
 128422527.053 6 100069477.70843  24437981.977                    24437990.688
 104460020.571 8  81397590.32846  19878063.672                    19878070.848
 117693483.257 7  91709075.74045  22396279.594                    22396288.500
 115995793.255 7  90386486.25945  22073289.914                    22073298.656
 116275654.273 7  90604456.74045  22126512.563                    22126520.129
 113257036.659 7  88252238.72446  21552058.477                    21552066.434
 115216750.371 8  89779352.39546  21924988.633                    21924994.973
 121137227.371 7  94392666.98944  23051619.820                    23051629.762
 11  7 28  0 15 30.0000000  0  9G12G20G04G27G09G28G17G02G10
 129003301.508 6 100522099.34843  24548512.523                    24548521.156
 128471108.552 6 100107333.40243  24447227.609                    24447235.555
 104461593.636 8  81398816.10346  19878363.141                    19878370.410
 117697339.813 7  91712080.82545  22397013.516                    22397022.047
 115986851.153 7  90379518.39545  22071588.492                    22071597.332
 116337128.642 7  90652358.78545  22138210.852                    22138217.996
 113290736.449 7  88278498.28446  21558471.961                    21558479.102
 115145737.643 8  89724017.86546  21911474.977                    21911481.543
 121045863.411 6  94321474.40743  23034233.266                    23034243.395
 11  7 28  0 16  0.0000000  0  9G12G20G04G27G09G28G17G02G10
 128906325.989 6 100446534.01743  24530059.664                    24530067.637
 128520158.330 6 100145554.04243  24456560.727                    24456569.566
 104463722.024 7  81400474.59846  19878768.000                    19878775.453
 117701678.614 6  91715461.69445  22397838.781                    22397847.672
 115978550.474 7  90373050.34945  22070008.484                    22070017.375
 116398969.772 7  90700546.61845  22149978.523                    22149985.934
 113324524.630 7  88304826.71846  21564901.391                    21564908.609
 115075049.654 8  89668936.38146  21898023.914                    21898029.762
 120954636.544 6  94250388.64744  23016873.242                    23016883.641
 11  7 28  0 16 30.0000000  0  9G12G20G04G27G09G28G17G02G10
 128809337.942 6 100370958.94843  24511602.156                    24511611.941
 128569675.305 6 100184138.68243  24465983.797                    24465992.238
 104466404.596 8  81402564.92946  19879278.188                    19879285.723
 117706499.032 7  91719217.85445  22398756.219                    22398765.469
 115970890.642 7  90367081.66445  22068550.656                    22068559.859
 116461177.171 7  90749019.87745  22161816.508                    22161823.938
 113358401.239 7  88331224.06646  21571347.898                    21571355.191
 115004687.738 8  89614108.96746  21884634.234                    21884640.691
 120863549.787 7  94179412.08244  22999540.383                    22999550.160
 11  7 28  0 17  0.0000000  0  9G12G20G04G27G09G28G17G02G10
 128712339.306 6 100295375.61643  24493144.883                    24493153.266
 128619658.408 6 100223086.50443  24475495.492                    24475503.324
 104469641.144 8  81405086.92246  19879894.156                    19879902.063
 117711800.376 7  91723348.75745  22399765.094                    22399774.422
 115963871.572 7  90361612.25245  22067215.164                    22067223.617
 116523751.165 7  90797778.77645  22173724.008                    22173731.602
 113392366.277 7  88357690.29446  21577811.172                    21577818.680
 114934652.915 8  89559536.44345  21871306.766                    21871313.133
 120772606.940 7  94108547.60844  22982234.398                    22982243.535
 11  7 28  0 17 30.0000000  0  9G12G20G04G27G09G28G17G02G10
 128615331.590 6 100219785.22243  24474684.031                    24474693.004
 128670105.793 6 100262396.15343  24485094.734                    24485103.609
 104473429.791 8  81408039.12446  19880614.930                    19880622.578
 117717581.715 7  91727853.67445  22400865.625                    22400874.496
 115957492.603 7  90356641.62445  22066001.922                    22066010.113
 116586690.508 7  90846822.34345  22185700.750                    22185708.543
 113426419.157 7  88384225.00146  21584291.664                    21584298.973
 114864946.258 8  89505219.62246  21858042.258                    21858048.672
 120681810.657 7  94037797.36044  22964956.227                    22964965.898
 11  7 28  0 18  0.0000000  0  9G12G20G04G27G09G28G17G02G10
 128518316.537 6 100144189.09943  24456222.680                    24456231.707
 128721016.906 6 100302067.11743  24494782.891                    24494792.008
 104477770.026 7  81411421.13246  19881441.117                    19881448.801
 117723842.619 7  91732732.27345  22402056.789                    22402065.598
 115951753.663 7  90352169.72645  22064909.805                    22064918.168
 116649995.194 7  90896150.61645  22197747.625                    22197755.027
 113460560.140 7  88410828.34946  21590788.148                    21590795.910
 114795568.505 8  89451159.10546  21844839.820                    21844846.250
 120591164.629 7  93967164.19344  22947707.328                    22947716.590
 11  7 28  0 18 30.0000000  0  9G12G20G04G27G09G28G17G02G10
 128421295.816 6 100068588.62443  24437760.039                    24437769.242
 128772390.187 6 100342098.17143  24504559.164                    24504568.379
 104482660.685 8  81415232.04146  19882371.633                    19882379.391
 117730582.293 7  91737983.94145  22403339.469                    22403348.723
 115946654.388 7  90348196.29045  22063938.883                    22063947.879
 116713664.968 7  90945763.39145  22209863.492                    22209870.938
 113494789.236 7  88437500.35846  21597301.680                    21597309.535
 114726520.775 8  89397355.73946  21831700.023                    21831707.008
 120500671.943 7  93896650.52844  22930486.656                    22930496.289
 11  7 28  0 19  0.0000000  0  9G12G20G04G27G09G28G17G02G10
 128324271.366 5  99992985.20143  24419297.227                    24419306.086
 128824224.519 6 100382488.58243  24514422.453                    24514431.801
 104488100.959 8  81419471.22546  19883406.906                    19883414.645
 117737800.048 7  91743608.15545  22404712.875                    22404722.219
 115942194.536 7  90344721.08445  22063090.070                    22063098.980
 116777698.804 7  90995659.82445  22222048.797                    22222056.711
 113529106.180 7  88464240.82646  21603831.742                    21603839.082
 114657804.170 8  89343810.39446  21818623.992                    21818630.656
 120410336.305 7  93826259.22844  22913295.734                    22913305.488
 11  7 28  0 19 30.0000000  0  9G12G20G04G27G09G28G17G02G10
 128227244.755 6  99917380.14543  24400833.313                    24400842.273
 128876518.377 6 100423237.01643  24524374.063                    24524382.242
 104494089.631 8  81424137.72946  19884546.305                    19884554.504
 117745495.131 7  91749604.30445  22406177.461                    22406186.855
 115938373.709 7  90341743.81845  22062362.945                    22062372.090
 116842096.524 7  91045839.83245  22234303.477                    22234310.559
 113563510.859 7  88491049.64846  21610379.164                    21610386.629
 114589419.581 8  89290523.75546  21805610.563                    21805617.344
 120320160.852 7  93755992.75644  22896136.820                    22896146.129
 11  7 28  0 20  0.0000000  0  9G12G20G04G27G09G28G17G02G10
 128130217.466 6  99841774.53643  24382369.484                    24382378.633
 128929270.129 6 100464342.26443  24534411.992                    24534420.816
 104500625.117 8  81429230.31946  19885790.203                    19885797.770
 117753666.352 7  91755971.47045  22407732.063                    22407741.172
 115935191.149 7  90339263.88445  22061757.664                    22061766.516
 116906857.329 7  91096302.76245  22246626.805                    22246634.313
 113598002.738 7  88517926.43046  21616942.703                    21616949.391
 114521367.722 8  89237496.40145  21792660.984                    21792667.512
 120230148.702 7  93685853.51544  22879007.391                    22879017.426
 11  7 28  0 20 30.0000000  0  9G12G20G04G27G09G28G17G02G10
 128033191.602 6  99766170.04743  24363905.789                    24363915.125
 128982478.745 6 100505803.46143  24544538.023                    24544546.297
 104507706.926 8  81434748.62646  19887137.789                    19887145.531
 117762313.126 7  91762709.20645  22409377.734                    22409386.410
 115932646.520 7  90337281.06545  22061273.117                    22061282.238
 116971981.068 7  91147048.45845  22259019.789                    22259027.520
 113632582.564 7  88544871.74446  21623522.773                    21623530.465
 114453649.997 8  89184729.39846  21779774.750                    21779780.953
 120140303.358 7  93615844.25544  22861910.656                    22861919.832
 11  7 28  0 21  0.0000000  0  9G12G20G04G27G09G28G17G02G10
 127936168.902 6  99690568.02243  24345443.438                    24345452.785
 129036143.093 6 100547619.77642  24554749.844                    24554758.164
 104515333.841 8  81440691.69346  19888589.000                    19888596.715
 117771434.675 7  91769816.89145  22411113.531                    22411122.453
 115930739.097 7  90335794.76245  22060910.445                    22060919.250
 117037467.093 7  91198076.46845  22271481.195                    22271488.984
 113667250.120 8  88571885.40445  21630120.289                    21630127.230
 114386267.224 8  89132223.39545  21766951.969                    21766958.555
 120050628.164 7  93545967.57944  22844846.078                    22844855.602
 11  7 28  0 21 30.0000000  0  9G12G20G04G27G09G28G17G02G10
 127839151.077 6  99614969.79643  24326981.469                    24326990.492
 129090261.392 6 100589789.88442  24565047.766                    24565056.742
 104523504.348 8  81447058.32946  19890144.133                    19890151.406
 117781029.781 7  91777293.58645  22412939.141                    22412948.270
 115929468.279 7  90334804.52545  22060668.625                    22060676.844
 117103314.573 7  91249386.13945  22284011.875                    22284019.152
 113702004.597 7  88598966.79946  21636733.742                    21636740.859
 114319220.384 8  89079979.16146  21754193.484                    21754199.898
 119961125.971 7  93476225.73044  22827813.680                    22827823.926
 11  7 28  0 22  0.0000000  0  9G12G20G04G27G09G28G17G02G10
 127742139.737 6  99539376.60143  24308520.742                    24308529.766
 129144832.480 6 100632312.71142  24575433.461                    24575441.305
 104532217.315 8  81453847.66546  19891801.789                    19891809.504
 117791097.728 7  91785138.73845  22414855.422                    22414864.363
 115928833.684 7  90334310.01345  22060547.563                    22060556.816
 117169523.037 7  91300977.09645  22296611.023                    22296618.875
 113736846.440 8  88626116.27646  21643363.781                    21643371.496
 114252509.876 7  89027997.01845  21741498.586                    21741505.043
 119871800.554 7  93406621.61844  22810815.875                    22810825.484
 11  7 28  0 22 30.0000000  0  9G12G20G04G27G09G28G17G02G10
 127645136.783 6  99463789.94843  24290061.688                    24290070.309
 129199854.490 6 100675187.01442  24585903.031                    24585911.031
 104541471.463 8  81461058.69946  19893562.961                    19893570.590
 117801637.336 7  91793351.41445  22416861.211                    22416869.754
 115928834.559 7  90334310.68245  22060548.461                    22060556.879
 117236092.219 7  91352849.11245  22309278.086                    22309286.816
 113771775.417 8  88653333.64746  21650010.602                    21650018.086
 114186136.756 8  88976277.76446  21728868.367                    21728874.824
 119782655.055 7  93337157.70144  22793852.148                    22793861.648
 11  7 28  0 23  0.0000000  0  9G12G20G04G27G09G28G17G02G10
 127548144.268 7  99388211.43543  24271604.461                    24271612.910
 129255326.404 6 100718411.91342  24596458.859                    24596467.148
 104551265.892 8  81468690.72946  19895426.578                    19895434.227
 117812647.974 7  91801931.13445  22418956.031                    22418965.145
 115929470.285 7  90334806.05545  22060668.750                    22060678.203
 117303021.079 7  91405001.41444  22322014.500                    22322022.414
 113806791.754 8  88680619.09446  21656674.164                    21656681.484
 114120102.133 8  88924822.27546  21716302.219                    21716308.500
 119693692.949 7  93267836.69444  22776923.391                    22776932.160
 11  7 28  0 23 30.0000000  0  9G12G20G04G27G09G28G17G02G10
 127451163.721 6  99312642.21343  24253149.570                    24253158.633
 129311246.490 6 100761986.01642  24607100.109                    24607109.125
 104561599.266 8  81476742.71546  19897392.992                    19897400.516
 117824128.728 7  91810877.17345  22421140.617                    22421149.668
 115930740.499 7  90335795.84145  22060911.031                    22060919.672
 117370309.370 7  91457433.80544  22334818.844                    22334826.523
 113841895.599 8  88707972.72646  21663354.141                    21663361.699
 114054407.115 8  88873631.41046  21703800.922                    21703807.332
 119604917.617 7  93198661.20844  22760029.008                    22760038.723
 11  7 28  0 24  0.0000000  0  9G12G20G04G27G09G28G17G02G10
 127354197.036 6  99237083.81343  24234697.313                    24234706.012
 129367613.156 5 100805907.95842  24617826.250                    24617835.586
 104572470.484 8  81485213.79646  19899461.664                    19899469.707
 117836078.589 7  91820188.76245  22423414.305                    22423423.586
 115932644.169 7  90337279.21945  22061272.719                    22061281.332
 117437956.514 7  91510145.78544  22347691.797                    22347699.945
 113877086.624 7  88735394.28346  21670050.648                    21670058.457
 113989052.509 8  88822705.81245  21691364.125                    21691370.914
 119516332.451 7  93129633.87444  22743172.086                    22743181.234
 11  7 28  0 24 30.0000000  0 10G12G05G20G04G27G09G28G17G02G10
 127257246.144 7  99161537.74044  24216248.094                    24216256.934
 134558472.84315                  25605624.227
 129424425.289 5 100850177.10142  24628637.797                    24628646.926
 104583878.223 8  81494102.94746  19901632.531                    19901640.129
 117848496.598 7  91829865.12145  22425777.953                    22425786.617
 115935180.586 7  90339255.64745  22061755.836                    22061764.121
 117505961.535 7  91563136.63045  22360633.156                    22360640.656
 113912364.954 7  88762883.87646  21676763.859                    21676771.410
 113924038.942 8  88772045.94846  21678992.797                    21678998.520
 119427940.628 7  93060757.22344  22726352.328                    22726360.414
 11  7 28  0 25  0.0000000  0 10G12G05G20G04G27G09G28G17G02G10
 127160312.911 6  99086005.42143  24197802.375                    24197811.121
 134460519.066 5                  25586986.250
 129481681.317 5 100894792.15942  24639533.492                    24639542.512
 104595820.807 8  81503408.86446  19903905.375                    19903913.008
 117861381.394 7  91839905.21445  22428229.055                    22428238.336
 115938348.770 7  90341724.37645  22062358.336                    22062367.176
 117574323.637 7  91616405.74645  22373641.992                    22373649.320
 113947730.236 8  88790441.21246  21683494.117                    21683501.305
 113859366.968 8  88721652.26446  21666685.828                    21666692.223
 119339745.207 7  92992033.62044  22709568.070                    22709577.992
 11  7 28  0 25 30.0000000  0 10G12G05G20G04G27G09G28G17G02G10
 127063399.127 6  99010488.30444  24179360.719                    24179369.227
 134362367.603 5                  25568308.023
 129539379.888 5 100939752.07942  24650512.672                    24650521.512
 104608297.300 8  81513130.81546  19906279.148                    19906287.020
 117874732.269 7  91850308.48045  22430770.602                    22430779.301
 115942148.413 7  90344685.14445  22063082.117                    22063090.207
 117643042.711 7  91669953.01945  22386718.820                    22386726.828
 113983182.835 7  88818066.59046  21690240.102                    21690247.098
 113795037.869 8  88671525.75146  21654444.258                    21654451.184
 119251749.908 7  92923465.96444  22692823.305                    22692832.895
 11  7 28  0 26  0.0000000  0 10G12G05G20G04G27G09G28G17G02G10
 126966506.541 6  98934987.66743  24160921.664                    24160930.645
 134264020.72015                  25549591.289
 129597518.865 5 100985055.19542  24661576.266                    24661585.094
 104621306.195 8  81523267.62346  19908754.883                    19908762.438
 117888548.035 7  91861073.99945  22433399.094                    22433408.285
 115946578.388 7  90348137.08945  22063924.617                    22063933.129
 117712117.747 7  91723777.64345  22399863.219                    22399871.504
 114018722.638 7  88845759.92546  21697002.891                    21697010.367
 113731052.353 8  88621666.95846  21642268.188                    21642274.484
 119163957.845 7  92855056.65144  22676117.031                    22676126.758
 11  7 28  0 26 30.0000000  0 10G12G05G20G04G27G09G28G17G02G10
 126869637.217 6  98859505.16043  24142488.109                    24142497.535
 134165480.016 5                  25530839.813
 129656096.636 5 101030700.18143  24672723.422                    24672732.125
 104634846.239 8  81533818.30646  19911331.453                    19911339.457
 117902827.659 7  91872200.97745  22436116.625                    22436125.871
 115951637.984 7  90352079.64145  22064887.695                    22064895.570
 117781548.227 7  91777879.26944  22413075.586                    22413083.047
 114054349.888 7  88873521.40545  21703782.813                    21703790.090
 113667410.952 8  88572076.32245  21630157.586                    21630163.766
 119076372.715 7  92786808.59644  22659450.305                    22659460.031
 11  7 28  0 27  0.0000000  0 10G12G05G20G04G27G09G28G17G02G10
 126772792.975 6  98784042.21043  24124059.461                    24124068.230
 134066748.131 6                  25512051.195
 129715112.052 6 101076686.19243  24683953.391                    24683962.273
 104648915.864 8  81544781.66646  19914008.930                    19914016.684
 117917569.884 7  91883688.41745  22438921.945                    22438930.734
 115957326.106 7  90356511.95045  22065969.719                    22065978.484
 117851333.264 7  91832257.16745  22426355.602                    22426362.875
 114090064.258 7  88901350.76646  21710578.711                    21710586.344
 113604114.779 8  88522754.68746  21618112.188                    21618119.020
 118988997.482 7  92718724.06844  22642823.211                    22642832.180
 11  7 28  0 27 30.0000000  0 10G12G05G20G04G27G09G28G17G02G10
 126675975.396 6  98708600.03743  24105635.453                    24105644.383
 133967826.981 5                  25493224.570
 129774563.374 5 101123011.81143  24695267.688                    24695275.691
 104663513.689 8  81556156.61246  19916786.492                    19916794.203
 117932773.741 7  91895535.57645  22441814.977                    22441824.063
 115963641.844 7  90361433.31745  22067171.898                    22067180.273
 117921472.148 7  91886910.79344  22439701.719                    22439710.441
 114125865.634 7  88929247.92046  21717391.578                    21717399.316
 113541164.583 8  88473702.64746  21606133.563                    21606139.848
 118901835.598 7  92650805.79444  22626236.172                    22626246.082
 11  7 28  0 28  0.0000000  0 10G12G05G20G04G27G09G28G17G02G10
 126579186.775 6  98633180.43043  24087217.586                    24087226.027
 133868719.407 6                  25474367.242
 129834449.380 5 101169676.24042  24706662.430                    24706671.918
 104678638.734 8  81567942.37946  19919664.789                    19919672.508
 117948438.273 7  91907741.68545  22444795.859                    22444804.781
 115970584.694 7  90366843.34045  22068492.523                    22068501.305
 117991964.405 7  91941839.75544  22453116.773                    22453123.988
 114161755.004 7  88957213.66446  21724221.477                    21724228.766
 113478561.347 8  88424920.95746  21594220.469                    21594226.883
 118814890.395 7  92583056.37744  22609691.344                    22609700.523
 11  7 28  0 28 30.0000000  0 10G12G05G20G04G27G09G28G17G02G10
 126482429.137 6  98557784.94443  24068804.414                    24068813.516
 133769426.752 6                  25455471.953
 129894768.28515 101216677.94452  24718139.875                    24718150.266
 104694289.529 8  81580137.80846  19922642.852                    19922650.566
 117964562.252 7  91920305.81345  22447864.453                    22447873.434
 115978153.456 7  90372741.08645  22069933.320                    22069941.383
 118062809.008 7  91997043.30444  22466597.625                    22466605.762
 114197731.680 7  88985247.43046  21731067.133                    21731074.988
 113416305.606 8  88376410.06246  21582373.898                    21582380.133
 118728165.257 7  92515478.42944  22593188.281                    22593197.008
 11  7 28  0 29  0.0000000  0 10G12G05G20G04G27G09G28G17G02G10
 126385704.428 6  98482415.13043  24050398.500                    24050406.828
 133669951.149 5 104158444.15952  25436541.922                    25436557.715
 129955518.271 5 101264015.54442  24729702.031                    24729710.027
 104710464.511 8  81592741.70546  19925721.383                    19925728.586
 117981144.569 7  91933227.07945  22451019.797                    22451028.555
 115986347.111 7  90379125.76645  22071492.109                    22071500.984
 118134005.473 7  92052520.98645  22480145.953                    22480154.082
 114233795.792 7  89013349.32045  21737930.234                    21737937.758
 113354398.243 8  88328170.62246  21570593.055                    21570599.266
 118641663.742 7  92448074.72444  22576727.289                    22576736.668
 11  7 28  0 29 30.0000000  0 10G12G05G20G04G27G09G28G17G02G10
 126289014.555 6  98407072.41043  24031999.414                    24032007.816
 133570295.474 6 104080790.83642  25417577.484                    25417594.414
 130016698.254 5                  24741342.898
 104727162.333 8  81605753.01146  19928898.984                    19928906.207
 117998184.000 7  91946504.56245  22454262.211                    22454271.516
 115995164.576 7  90385996.52845  22073169.633                    22073178.563
 118205552.976 7  92108272.21044  22493760.984                    22493769.559
 114269947.776 7  89041519.70345  21744809.859                    21744817.141
 113292840.045 8  88280203.23946  21558878.766                    21558885.324
 118555389.128 7  92380847.85144  22560309.688                    22560319.328
 11  7 28  0 30  0.0000000  0 10G12G05G20G04G27G09G28G17G02G10
 126192361.441 6  98331758.36543  24013606.984                    24013615.168
 133470461.466 5 104002998.62942  25398579.352                    25398596.652
 130078305.958 5                  24753066.164
 104744381.598 8  81619170.63446  19932175.430                    19932183.180
 118015679.489 7  91960137.37745  22457591.688                    22457601.078
 116004605.028 7  90393352.73745  22074966.625                    22074975.516
 118277450.777 7  92164296.39944  22507442.430                    22507450.645
 114306187.805 7  89069758.67345  21751706.063                    21751713.348
 113231631.960 8  88232508.68546  21547231.539                    21547237.629
 118469344.627 7  92313800.26645  22543936.477                    22543946.316
 11  7 28  0 30 30.0000000  0 10G12G05G20G04G27G09G28G17G02G10
 126095747.208 7  98256474.61344  23995222.203                    23995229.543
 133370451.701 6 103925069.39942  25379547.563                    25379565.852
 130140339.631 5                  24764871.898
 104762120.766 8  81632993.36946  19935550.727                    19935558.348
 118033629.853 7  91974124.65745  22461007.492                    22461016.738
 116014667.083 7  90401193.30545  22076881.336                    22076890.070
 118349697.943 7  92220592.81744  22521191.445                    22521199.613
 114342515.268 7  89098065.79345  21758618.820                    21758626.785
 113170774.419 8  88185087.27746  21535650.289                    21535656.371
 118383533.599 7  92246934.61845  22527606.977                    22527616.609
 11  7 28  0 31  0.0000000  0 10G12G05G20G04G27G09G28G17G02G10
 125999173.049 7  98181222.06844  23976844.531                    23976852.691
 133270267.262 5 103847004.17542  25360482.922                    25360501.070
 130202797.451 5                  24776757.383
 104780377.293 8  81647219.24646  19939025.133                    19939033.000
 118052033.155 7  91988464.89145  22464509.594                    22464518.414
 116025348.942 7  90409516.83645  22078913.719                    22078923.039
 118422293.122 7  92277160.42444  22535005.820                    22535013.406
 114378929.871 7  89126440.77945  21765548.289                    21765556.098
 113110267.395 8  88137938.99946  21524136.086                    21524142.699
 118297958.734 7  92180253.00944  22511322.203                    22511331.547
 11  7 28  0 31 30.0000000  0 10G12G05G20G04G27G09G28G17G02G10
 125902641.405 7  98106002.66644  23958474.266                    23958483.207
 133169911.461 5 103768805.37642  25341386.398                    25341402.652
 130265677.649 5                  24788720.703
 104799150.387 8  81661847.63646  19942597.398                    19942604.961
 118070888.458 7  92003157.32545  22468097.516                    22468106.684
 116036649.960 7  90418322.82745  22081064.430                    22081073.160
 118495235.763 7  92333998.81744  22548886.242                    22548893.605
 114415432.269 7  89154884.17445  21772494.359                    21772502.125
 113050112.254 8  88091064.92246  21512688.898                    21512695.738
 118212623.971 7  92113758.46244  22495083.430                    22495092.797
 11  7 28  0 32  0.0000000  0 10G12G05G20G04G27G09G28G17G02G10
 125806153.975 7  98030817.71043  23940113.648                    23940121.566
 133069386.046 6 103690474.37342  25322254.859                    25322273.004
 130328978.871 5                  24800768.906
 104818438.269 8  81676877.16746  19946267.664                    19946275.141
 118090194.299 7  92018200.82845  22471771.063                    22471780.535
 116048568.989 7  90427610.38045  22083332.711                    22083341.508
 118568525.116 7  92391107.33944  22562832.922                    22562840.758
 114452022.536 7  89183396.06246  21779457.484                    21779464.695
 112990309.424 8  88044465.37246  21501308.719                    21501315.949
 118127532.476 7  92047453.47444  22478891.016                    22478900.051
 11  7 28  0 32 30.0000000  0 10G12G05G20G04G27G09G28G17G02G10
 125709713.091 7  97955669.03443  23921761.969                    23921769.547
 132968693.283 6 103612012.92042  25303093.773                    25303111.223
 130392699.409 5                  24812894.813
 104838239.745 8  81692306.89146  19950035.742                    19950043.184
 118109949.480 7  92033594.46945  22475530.625                    22475540.102
 116061105.104 7  90437378.76845  22085717.758                    22085726.934
 118642160.070 7  92448485.15344  22576844.891                    22576853.414
 114488700.717 7  89211976.47545  21786436.914                    21786444.734
 112930859.684 8  87998140.94146  21489996.305                    21490002.645
 118042687.625 7  91981340.65644  22462745.867                    22462753.980
 11  7 28  0 33  0.0000000  0 10G12G05G20G04G27G09G28G17G02G10
 125613320.154 7  97880557.69244  23903419.227                    23903426.906
 132867834.883 6 103533422.44142  25283900.977                    25283918.211
 130456837.091 5                  24825099.711
 104858552.732 8  81708135.19946  19953901.797                    19953908.859
 118130152.286 7  92049336.90845  22479375.016                    22479384.980
 116074256.651 7  90447626.72545  22088220.789                    22088229.387
 118716139.614 7  92506131.46044  22590922.578                    22590930.672
 114525466.545 7  89240625.15146  21793433.633                    21793440.527
 112871763.151 8  87952091.75946  21478750.641                    21478756.609
 117958092.387 7  91915422.34845  22446648.109                    22446656.887
 11  7 28  0 33 30.0000000  0 10G12G05G20G04G27G09G28G17G02G10
 125516977.775 7  97805485.74944  23885085.219                    23885093.469
 132766813.425 6 103454704.90143  25264677.039                    25264693.402
 130521389.893 6                  24837384.063
 104879375.759 8  81724360.92346  19957863.820                    19957871.430
 118150801.457 7  92065427.15345  22483304.484                    22483313.617
 116088022.298 7  90458353.18845  22090840.477                    22090849.137
 118790462.895 7  92564045.65044  22605066.719                    22605074.109
 114562320.487 7  89269342.49945  21800446.188                    21800453.703
 112813020.734 8  87906318.49646  21467571.586                    21467578.402
 117873750.362 7  91849701.35844  22430598.188                    22430607.211
 11  7 28  0 34  0.0000000  0 10G12G05G20G04G27G09G28G17G02G10
 125420687.777 6  97730454.63843  23866761.766                    23866769.828
 132665631.635 5 103375862.41043  25245422.711                    25245439.434
 130586356.501 5 101755581.48252  24849746.477                    24849753.039
 104900707.438 8  81740983.01246  19961923.156                    19961930.711
 118171895.939 7  92081864.39145  22487318.563                    22487327.793
 116102400.857 7  90469557.25145  22093576.344                    22093585.086
 118865129.277 7  92622227.17344  22619274.836                    22619283.625
 114599262.691 7  89298128.60445  21807475.969                    21807483.801
 112754633.481 8  87860821.98946  21456461.266                    21456467.598
 117789665.072 7  91784180.41845  22414596.906                    22414606.063
 11  7 28  0 34 30.0000000  0 10G12G05G20G04G27G09G28G17G02G10
 125324452.258 6  97655465.98244  23848448.500                    23848456.371
 132564291.718 5 103296896.68442  25226137.227                    25226154.668
 130651735.220 5 101806525.95842  24862188.016                    24862194.328
 104922546.285 8  81758000.29646  19966078.938                    19966086.301
 118193434.587 7  92098647.75345  22491417.547                    22491426.242
 116117391.391 7  90481238.19045  22096428.508                    22096437.348
 118940137.866 7  92680675.33644  22633548.547                    22633556.461
 114636293.704 7  89326983.91246  21814523.094                    21814530.672
 112696601.957 8  87815602.67346  21445418.492                    21445424.293
 117705839.908 7  91718862.16444  22398645.516                    22398654.863
 11  7 28  0 35  0.0000000  0 10G12G05G20G04G27G09G28G17G02G10
 125228273.296 7  97580521.38444  23830146.023                    23830155.133
 132462795.872 6 103217809.43842  25206822.258                    25206840.301
 130717524.152 6 101857790.09242  24874706.813                    24874714.598
 104944890.450 8  81775411.32846  19970330.656                    19970338.211
 118215415.851 7  92115775.99845  22495601.109                    22495609.840
 116132992.155 7  90493394.62445  22099397.688                    22099406.270
 119015487.706 7  92739389.44544  22647887.367                    22647894.992
 114673413.028 7  89355908.04845  21821586.961                    21821594.648
 112638926.634 8  87770660.91346  21434442.500                    21434449.121
 117622278.146 7  91653749.18144  22382744.180                    22382753.121
 11  7 28  0 35 30.0000000  0 10G12G05G20G04G27G09G28G17G02G10
 125132153.118 7  97505622.60544  23811855.609                    23811863.699
 132361146.422 6 103138602.40542  25187479.570                    25187496.625
 130783721.657 6 101909372.54142  24887302.172                    24887311.441
 104967738.545 8  81793215.05446  19974678.570                    19974686.695
 118237838.336 7  92133248.05845  22499867.570                    22499876.434
 116149201.930 7  90506025.59845  22102482.125                    22102490.691
 119091178.266 7  92798369.03944  22662290.453                    22662298.898
 114710621.247 8  89384901.45545  21828667.469                    21828674.406
 112581608.204 8  87725997.25946  21423535.555                    21423541.723
 117538983.203 7  91588844.08844  22366893.664                    22366902.445
 11  7 28  0 36  0.0000000  0 10G12G05G20G04G27G09G28G17G02G10
 125036093.643 7  97430771.11744  23793575.922                    23793584.441
 132259345.804 6 103059277.68042  25168107.828                    25168124.027
 130850325.575 5 101961271.61542  24899978.328                    24899986.566
 104991088.654 8  81811409.94446  19979122.031                    19979129.340
 118260700.387 7  92151062.62345  22504218.164                    22504226.938
 116166019.424 7  90519130.12845  22105682.258                    22105690.887
 119167207.913 7  92857612.83044  22676758.969                    22676767.090
 114747918.018 7  89413963.85246  21835764.703                    21835772.059
 112524647.025 7  87681611.97846  21412695.789                    21412701.844
 117455958.316 7  91524149.43144  22351094.688                    22351103.438
 11  7 28  0 36 30.0000000  0 10G12G05G20G04G27G09G28G17G02G10
 124940097.076 7  97355968.67944  23775308.203                    23775316.844
 132157396.184 6 102979836.87842  25148706.742                    25148723.152
 130917334.065 6 102013486.06342  24912728.375                    24912737.703
 105014938.888 8  81829994.54446  19983660.641                    19983668.145
 118284000.522 7  92169218.57445  22508651.422                    22508660.598
 116183442.975 7  90532706.89545  22108998.359                    22109007.117
 119243575.715 7  92917120.15244  22691290.703                    22691298.906
 114785303.584 8  89443095.44845  21842878.906                    21842886.230
 112468043.541 8  87637505.42146  21401924.891                    21401930.801
 117373206.403 7  91459667.46045  22335347.141                    22335355.984
 11  7 28  0 37  0.0000000  0 10G12G05G20G04G27G09G28G17G02G10
 124844165.268 7  97281216.70144  23757052.695                    23757061.543
 132055300.126 6 102900281.93542  25129278.133                    25129294.348
 130984745.395 6 102066014.37542  24925557.016                    24925565.629
 105039287.837 8  81848967.74346  19988293.945                    19988301.738
 118307737.609 7  92187714.97345  22513168.703                    22513177.625
 116201471.139 7  90546754.81545  22112429.086                    22112437.652
 119320281.008 7  92976890.43144  22705887.469                    22705896.016
 114822778.781 7  89472296.86245  21850009.883                    21850017.547
 112411798.759 8  87593678.36646  21391221.703                    21391228.023
 117290731.393 7  91395401.27744  22319652.805                    22319661.563
 11  7 28  0 37 30.0000000  0 10G12G05G20G04G27G09G28G17G02G10
 124748300.234 7  97206516.74644  23738810.625                    23738818.926
 131953059.498 6 102820614.33442  25109822.219                    25109837.730
 131052557.841 6 102118855.22342  24938460.930                    24938470.109
 105064133.788 8  81868328.22146  19993021.953                    19993029.836
 118331910.045 7  92206550.62645  22517768.258                    22517777.645
 116220102.652 7  90561272.88645  22115974.289                    22115983.020
 119397322.613 7  93036922.75944  22720548.938                    22720556.715
 114860343.420 7  89501568.00345  21857159.063                    21857165.695
 112355912.990 8  87550131.05546  21380587.117                    21380592.914
 117208536.467 7  91331353.34244  22304011.063                    22304020.316
 11  7 28  0 38  0.0000000  0 10G12G05G20G04G27G09G28G17G02G10
 124652504.198 7  97131870.56044  23720580.938                    23720589.484
 131850677.196 6 102740836.35642  25090338.961                    25090354.996
 131120769.294 6 102172006.99143  24951442.156                    24951450.207
 105089474.786 8  81888074.44646  19997844.125                    19997852.016
 118356516.218 7  92225724.25345  22522451.156                    22522459.785
 116239335.740 7  90576259.69145  22119634.383                    22119642.902
 119474699.627 7  93097216.47844  22735273.063                    22735281.016
 114897997.184 7  89530908.58045  21864323.477                    21864331.141
 112300386.734 8  87506863.89846  21370020.758                    21370026.441
 117126624.709 7  91267526.06745  22288423.961                    22288433.633
 11  7 28  0 38 30.0000000  0 10G12G05G20G04G27G09G28G17G02G10
 124556779.151 7  97057279.68944  23702364.773                    23702374.000
 131748155.410 6 102660949.79142  25070830.031                    25070845.586
 131189377.856 5 102225468.20342  24964496.781                    24964506.387
 105115309.303 8  81908205.23246  20002760.508                    20002768.133
 118381554.624 7  92245234.67645  22527214.938                    22527224.375
 116259169.109 7  90591714.25545  22123407.961                    22123417.035
 119552410.952 7  93157770.66144  22750061.250                    22750069.180
 114935740.720 7  89560319.10745  21871506.258                    21871513.230
 112245220.289 8  87463877.10246  21359522.578                    21359528.652
 117044999.423 7  91203922.02045  22272891.133                    22272900.793
 11  7 28  0 39  0.0000000  0 10G12G05G20G04G27G09G28G17G02G10
 124461127.364 6  96982745.90044  23684162.367                    23684171.449
 131645496.336 6 102580956.20542  25051293.789                    25051310.285
 131258381.330 6 102279237.15043  24977627.328                    24977636.887
 105141635.407 8  81928719.08346  20007769.797                    20007777.906
 118407023.660 7  92265080.66345  22532061.688                    22532070.828
 116279601.001 7  90607635.19045  22127296.320                    22127305.207
 119630455.206 7  93218584.30644  22764912.367                    22764920.188
 114973574.112 7  89589799.63745  21878705.789                    21878712.984
 112190414.393 8  87421171.26346  21349093.578                    21349099.699
 116963664.258 7  91140544.03045  22257413.984                    22257422.699
 11  7 28  0 39 30.0000000  0 10G12G05G20G04G27G09G28G17G02G10
 124365550.944 6  96908270.83344  23665975.055                    23665983.750
 131542702.618 6 102500857.73342  25031732.570                    25031748.520
 131327778.297 6 102333312.69343  24990834.406                    24990843.434
 105168451.337 8  81949614.61146  20012872.859                    20012880.445
 118432921.704 7  92285260.91445  22536990.414                    22536999.164
 116300629.807 7  90624021.27145  22131298.227                    22131307.027
 119708831.470 7  93279656.65844  22779826.734                    22779835.273
 115011497.660 7  89619350.42945  21885922.125                    21885929.570
 112135969.679 8  87378746.85446  21338732.945                    21338739.105
 116882622.217 7  91077394.44845  22241991.852                    22242000.895
 11  7 28  0 40  0.0000000  0 10G12G05G20G04G27G09G28G17G02G10
 124270052.100 6  96833856.19944  23647802.164                    23647811.000
 131439776.531 6 102420656.07942  25012145.727                    25012161.973
 131397566.629 5 102387693.19942  25004114.234                    25004123.266
 105195755.443 8  81970890.53446  20018069.227                    20018076.426
 118459247.199 7  92305774.25745  22542000.031                    22542009.090
 116322253.791 7  90640871.12245  22135412.680                    22135422.395
 119787538.774 7  93340986.94644  22794804.453                    22794812.969
 115049511.549 7  89648971.59845  21893155.742                    21893163.027
 112081886.409 8  87336604.09746  21328441.375                    21328447.414
 116801876.798 7  91014476.00545  22226626.086                    22226635.387
 11  7 28  0 40 30.0000000  0 10G12G05G20G04G27G09G28G17G02G10
 124174632.884 6  96759503.61544  23629644.320                    23629653.258
 131336720.159 6 102340352.93842  24992533.914                    24992549.996
 131467744.382 6 102442377.13143  25017468.141                    25017477.688
 105223545.762 8  81992545.32646  20023357.422                    20023365.074
 118485998.504 7  92326619.40145  22547090.523                    22547099.754
 116344471.423 7  90658183.54945  22139640.734                    22139649.770
 119866576.098 7  93402574.38444  22809844.344                    22809853.801
 115087615.825 7  89678663.23745  21900406.961                    21900415.000
 112028165.005 8  87294743.31946  21318218.258                    21318224.410
 116721430.974 7  90951791.01645  22211318.133                    22211327.348
 11  7 28  0 41  0.0000000  0 10G12G05G20G04G27G09G28G17G02G10
 124079295.790 7  96685215.08344  23611502.875                    23611511.641
 131233536.600 6 102259950.66843  24972899.188                    24972913.684
 131538309.759 5 102497363.11743  25030897.102                    25030905.359
 105251820.840 8  82014577.86246  20028737.977                    20028745.848
 118513174.424 7  92347795.41145  22552261.648                    22552271.188
 116367281.513 7  90675957.64345  22143981.734                    22143990.488
 119945942.640 7  93464418.36644  22824947.766                    22824956.094
 115125811.082 7  89708425.73845  21907674.938                    21907683.227
 111974806.361 8  87253165.19046  21308064.773                    21308070.730
 116641288.265 7  90889342.22845  22196067.305                    22196076.199
 11  7 28  0 41 30.0000000  0 10G12G05G20G04G27G09G28G17G02G10
 123984042.360 7  96610991.69144  23593376.391                    23593384.953
 131130227.563 6 102179450.59742  24953239.602                    24953254.359
 131609260.289 5 102552649.29142  25044398.352                    25044406.930
 105280578.359 8  82036986.32946  20034209.836                    20034217.930
 118540772.775 7  92369300.58145  22557514.172                    22557522.602
 116390681.743 7  90694191.58445  22148434.367                    22148442.984
 120025636.796 7  93526517.61044  22840113.367                    22840121.648
 115164097.020 7  89738258.90445  21914960.773                    21914968.523
 111921810.213 8  87211869.52546  21297979.938                    21297985.598
 116561451.817 7  90827132.07345  22180875.148                    22180883.891
 11  7 28  0 42  0.0000000  0  9G12G05G04G27G09G28G17G02G10
 123888875.250 7  96536835.53644  23575266.648                    23575275.523
 131026796.159 6 102098855.13042  24933557.063                    24933571.750
 105309816.931 8  82059769.64046  20039774.125                    20039782.023
 118568792.771 7  92391134.29644  22562846.180                    22562855.066
 116414670.851 7  90712884.39645  22152999.445                    22153007.785
 120105658.236 7  93588871.88944  22855340.117                    22855349.539
 115202474.377 7  89768163.30045  21922263.867                    21922271.605
 111869177.766 8  87170857.27246  21287963.992                    21287969.914
 116481925.646 7  90765163.67745  22165741.789                    22165750.313
 11  7 28  0 42 30.0000000  0 10G12G05G20G04G27G09G28G17G02G10
 123793795.944 7  96462747.83544  23557174.273                    23557182.500
 130923244.084 6 102018165.70843  24913851.867                    24913865.945
 131752307.36215                  25071619.156
 105339533.703 8  82082925.56646  20045428.828                    20045436.406
 118597231.542 7  92413294.34645  22568257.758                    22568266.742
 116439246.123 7  90732033.95445  22157675.930                    22157684.383
 120186004.111 7  93651478.97844  22870630.203                    22870638.855
 115240942.473 7  89798138.39545  21929584.250                    21929591.605
 111816908.296 8  87130127.86346  21278016.961                    21278023.402
 116402711.553 7  90703438.47045  22150668.000                    22150676.297
 11  7 28  0 43  0.0000000  0 10G12G05G20G04G27G09G28G17G02G10
 123698807.520 7  96388730.96944  23539097.906                    23539106.535
 130819574.244 6 101937384.40543  24894123.086                    24894137.336
 131824399.48915                  25085339.469
 105369727.934 8  82106453.53946  20051174.656                    20051182.246
 118626088.244 7  92435780.04145  22573748.617                    22573758.078
 116464406.640 7  90751639.55445  22162463.922                    22162472.723
 120266674.741 7  93714339.16344  22885981.352                    22885989.648
 115279502.438 7  89828185.09245  21936921.828                    21936929.746
 111765003.015 8  87089682.23446  21268140.250                    21268145.980
 116323813.729 7  90641959.71245  22135653.953                    22135663.211
 11  7 28  0 43 30.0000000  0 10G12G05G20G04G27G09G28G17G02G10
 123603910.935 6  96314785.66844  23521040.102                    23521048.898
 130715788.154 6 101856512.55243  24874372.188                    24874387.328
 131896871.10316 102776773.20852  25099130.508                    25099137.723
 105400396.401 8  82130351.04146  20057010.992                    20057018.684
 118655359.951 7  92458589.12545  22579318.930                    22579327.910
 116490149.380 7  90771698.83045  22167362.484                    22167371.586
 120347667.445 7  93777450.29044  22901393.359                    22901402.598
 115318153.712 7  89858302.93745  21944277.008                    21944284.867
 111713461.464 8  87049520.02946  21258332.141                    21258338.414
 116245234.465 7  90580729.18245  22120700.617                    22120709.645
 11  7 28  0 44  0.0000000  0 10G12G05G20G04G27G09G28G17G02G10
 123509109.163 7  96240914.24044  23502999.164                    23503008.027
 130611889.020 6 101775552.59743  24854601.141                    24854615.898
 131969717.95516 102833537.12152  25112992.281                    25113001.277
 105431538.033 8  82154617.25146  20062936.695                    20062944.559
 118685045.980 6  92481721.06644  22584968.367                    22584977.285
 116516473.649 7  90792211.23645  22172371.453                    22172380.352
 120428982.546 7  93840812.63744  22916867.375                    22916876.371
 115356896.920 7  89888492.42445  21951649.906                    21951657.230
 111662284.844 8  87009642.19346  21248593.430                    21248599.438
 116166977.924 7  90519750.12645  22105808.531                    22105817.504
 11  7 28  0 44 30.0000000  0 10G12G05G20G04G27G09G28G17G02G10
 123414404.514 7  96167118.48144  23484977.859                    23484986.055
 130507879.125 6 101694506.29343  24834808.477                    24834823.137
 132042938.222 6                  25126924.719
 105463150.871 8  82179250.64046  20068952.688                    20068960.500
 118715144.285 7  92505174.24945  22590696.211                    22590704.910
 116543377.367 7  90813175.15845  22177491.148                    22177500.398
 120510618.017 7  93904424.62644  22932401.328                    22932410.695
 115395732.278 7  89918753.70945  21959039.633                    21959047.848
 111611473.172 8  86970048.72346  21238924.602                    21238930.500
 116089047.336 7  90459025.04045  22090979.273                    22090987.727
 11  7 28  0 45  0.0000000  0 10G12G05G20G04G27G09G28G17G02G10
 123319799.009 7  96093399.99144  23466974.766                    23466982.992
 130403761.524 6 101613376.05243  24814996.125                    24815009.641
 132116529.674 6                  25140929.820
 105495233.297 8  82204249.94046  20075057.320                    20075065.320
 118745653.510 7  92528947.63645  22596501.320                    22596510.430
 116570858.787 7  90834589.24745  22182720.789                    22182729.531
 120592573.036 7  93968285.59744  22947997.344                    22948006.605
 115434660.297 7  89949087.21045  21966447.539                    21966455.426
 111561027.039 8  86930740.08546  21229324.766                    21229330.766
 116011446.364 7  90398556.79945  22076212.297                    22076220.430
 11  7 28  0 45 30.0000000  0 10G12G05G20G04G27G09G28G17G02G10
 123225295.182 7  96019760.73744  23448991.602                    23448999.945
 130299538.258 6 101532163.46043  24795162.109                    24795175.973
 132190490.078 6                  25155004.250
 105527783.039 8  82229613.38546  20081251.656                    20081259.516
 118776571.645 6  92553039.63145  22602385.195                    22602394.387
 116598915.534 7  90856451.65044  22188059.906                    22188068.840
 120674846.438 7  94032394.64144  22963654.711                    22963662.906
 115473680.997 7  89979492.92845  21973873.078                    21973881.059
 111510946.761 8  86891716.53746  21219794.648                    21219800.934
 115934177.947 7  90338347.68345  22061508.563                    22061517.309
 11  7 28  0 46  0.0000000  0 10G12G05G20G04G27G09G28G17G02G10
 123130894.766 7  95946202.05144  23431027.133                    23431035.332
 130195212.006 6 101450870.62743  24775309.672                    24775322.777
 132264817.837 6                  25169147.328
 105560798.319 8  82255339.58446  20087534.172                    20087541.340
 118807897.066 7  92577449.01444  22608346.047                    22608354.809
 116627545.950 7  90878761.05145  22193508.430                    22193517.059
 120757436.792 7  94096750.67844  22979371.070                    22979378.965
 115512794.775 7  90009971.17245  21981315.875                    21981324.148
 111461232.560 8  86852978.23546  21210334.719                    21210340.582
 115857245.294 7  90278400.23145  22046868.867                    22046877.410
 11  7 28  0 46 30.0000000  0 10G12G05G20G04G27G09G28G17G02G10
 123036600.176 7  95872725.84244  23413083.836                    23413091.992
 130090785.022 6 101369499.28443  24755436.875                    24755450.918
 132339510.119 6 103121690.09652  25183360.945                    25183370.789
 105594276.804 8  82281426.72146  20093904.781                    20093912.270
 118839627.788 6  92602174.22845  22614384.117                    22614393.418
 116656748.199 7  90901516.03545  22199065.977                    22199074.293
 120840342.728 7  94161352.69044  22995146.930                    22995155.070
 115552001.909 7  90040522.15945  21988777.266                    21988785.215
 111411884.562 8  86814525.29246  21200943.719                    21200949.871
 115780651.455 7  90218716.77045  22032293.078                    22032302.359
 11  7 28  0 47  0.0000000  0 10G12G05G20G04G27G09G28G17G02G10
 122942413.812 7  95799333.90944  23395160.586                    23395169.094
 129986260.000 6 101288051.52543  24735547.461                    24735560.082
 132414565.315 6 103180174.68642  25197643.945                    25197652.781
 105628216.763 8  82307873.45846  20100363.648                    20100371.215
 118871761.780 7  92627213.65244  22620499.531                    22620508.836
 116686519.957 7  90924714.78945  22204730.383                    22204739.332
 120923563.263 7  94226199.80644  23010983.148                    23010992.004
 115591302.408 7  90071145.91045  21996255.906                    21996263.430
 111362903.165 8  86776357.99646  21191622.891                    21191629.000
 115704399.446 7  90159299.68945  22017783.117                    22017791.805
 11  7 28  0 47 30.0000000  0 10G12G05G20G04G27G09G28G17G02G10
 122848337.546 7  95726027.78444  23377258.391                    23377266.668
 129881639.230 6 101206529.18543  24715638.172                    24715651.215
 132489981.395 5 103238940.45142  25211994.188                    25212003.656
 105662616.039 8  82334678.09646  20106909.523                    20106917.055
 118904297.478 7  92652566.10644  22626691.328                    22626699.785
 116716859.250 7  90948355.77045  22210504.297                    22210512.770
 121007096.854 7  94291290.83644  23026879.523                    23026887.355
 115630696.692 7  90101842.75345  22003751.977                    22003760.113
 111314288.414 8  86738476.41346  21182371.914                    21182377.547
 115628492.826 7  90100151.71445  22003338.156                    22003346.980
 11  7 28  0 48  0.0000000  0 10G12G05G20G04G27G09G28G17G02G10
 122754373.951 7  95652809.47944  23359377.883                    23359386.246
 129776925.422 6 101124934.34543  24695711.359                    24695724.801
 132565756.141 5 103297985.64052  25226414.359                    25226424.027
 105697472.681 8  82361839.12146  20113542.195                    20113550.098
 118937232.832 7  92678229.97844  22632958.063                    22632966.852
 116747764.104 7  90972437.45245  22216385.594                    22216393.988
 121090942.317 7  94356624.90744  23042834.633                    23042843.012
 115670185.172 7  90132613.00345  22011266.891                    22011274.242
 111266040.852 8  86700880.95246  21173190.516                    21173196.270
 115552934.595 7  90041275.22045  21988959.727                    21988968.285
 11  7 28  0 48 30.0000000  0 10G12G05G20G04G27G09G28G17G02G10
 122660525.550 7  95579680.91644  23341519.078                    23341527.680
 129672121.046 6 101043268.93043  24675766.758                    24675780.438
 132641887.323 5 103357308.64342  25240901.547                    25240911.516
 105732784.891 8  82389355.13146  20120261.844                    20120269.559
 118970566.063 6  92704203.89845  22639300.625                    22639310.574
 116779232.778 7  90996958.47845  22222373.484                    22222382.605
 121175098.202 7  94422200.83044  23058849.250                    23058858.027
 115709768.022 7  90163456.78445  22018798.938                    22018807.023
 111218160.825 8  86663571.87146  21164079.281                    21164085.340
 115477728.067 7  89982672.77345  21974648.773                    21974657.293
 11  7 28  0 49  0.0000000  0 10G12G05G20G04G27G09G28G17G02G10
 122566794.324 7  95506643.65444  23323682.094                    23323690.770
 129567228.749 6 100961535.00543  24655807.148                    24655819.781
 132718372.674 5 103416907.52052  25255455.531                    25255466.566
 105768550.543 8  82417224.48046  20127067.977                    20127075.391
 119004295.294 7  92730486.37944  22645720.297                    22645729.063
 116811262.912 7  91021917.00645  22228468.867                    22228477.457
 121259563.402 7  94488017.77944  23074922.961                    23074931.254
 115749445.492 7  90194374.29045  22026349.297                    22026357.070
 111170648.249 8  86626549.11746  21155038.086                    21155043.949
 115402876.816 7  89924347.17045  21960404.500                    21960413.367
 11  7 28  0 49 30.0000000  0 10G12G05G20G04G27G09G28G17G02G10
 122473182.314 7  95433699.28744  23305868.172                    23305877.273
 129462251.182 6 100879734.64144  24635829.492                    24635843.020
 132795210.476 5 103476781.09842  25270078.375                    25270087.824
 105804767.535 8  82445445.52446  20133959.813                    20133967.594
 119038418.704 7  92757076.03344  22652213.516                    22652222.340
 116843852.439 7  91047311.41045  22234670.516                    22234678.770
 121344336.554 7  94554074.69544  23091053.961                    23091063.160
 115789218.138 7  90225365.96645  22033917.867                    22033925.563
 111123503.568 8  86589813.04246  21146066.469                    21146072.215
 115328383.640 7  89866300.59445  21946229.383                    21946237.793
 11  7 28  0 50  0.0000000  0 10G12G05G20G04G27G09G28G17G02G10
 122379691.885 7  95360849.62944  23288077.797                    23288086.109
 129357190.520 6 100797869.52543  24615837.484                    24615850.457
 132872397.853 5 103536927.08342  25284766.508                    25284775.941
 105841433.715 8  82474016.57846  20140936.711                    20140944.719
 119072934.368 7  92783971.32445  22658781.289                    22658790.887
 116876999.156 7  91073139.99745  22240978.047                    22240986.277
 121429416.401 7  94620370.59344  23107244.289                    23107253.176
 115829086.173 7  90256431.95745  22041504.836                    22041512.535
 111076726.959 8  86553363.77846  21137165.320                    21137170.926
 115254251.376 7  89808535.24145  21932122.313                    21932130.828
 11  7 28  0 50 30.0000000  0 10G12G05G20G04G27G09G28G17G02G10
 122286325.561 7  95288096.69444  23270311.313                    23270319.375
 129252049.519 6 100715941.78543  24595829.453                    24595842.676
 132949933.090 5 103597344.13742  25299520.844                    25299530.281
 105878547.058 8  82502936.07146  20147999.484                    20148007.426
 119107840.167 7  92811170.63344  22665423.281                    22665432.781
 116910700.750 7  91099400.96245  22247390.945                    22247400.156
 121514801.149 7  94686904.09044  23123492.242                    23123501.750
 115869049.640 7  90287572.31345  22049109.469                    22049116.762
 111030318.540 8  86517201.41346  21128333.992                    21128339.703
 115180483.672 7  89751053.98545  21918084.086                    21918093.563
 11  7 28  0 51  0.0000000  0 10G12G05G20G04G27G09G28G17G02G10
 122193085.450 7  95215442.10144  23252567.313                    23252575.879
 129146830.703 6 100633953.42243  24575806.250                    24575819.512
 133027814.283 5 103658030.83842  25314342.000                    25314350.477
 105916105.786 7  82532202.61046  20155147.070                    20155154.676
 119143134.647 7  92838672.81445  22672139.578                    22672149.555
 116944955.440 7  91126092.91445  22253909.664                    22253918.301
 121600489.840 6  94753674.38843  23139798.750                    23139807.539
 115909109.035 7  90318787.43145  22056731.906                    22056739.621
 110984278.632 8  86481326.18546  21119572.648                    21119578.594
 115107083.661 7  89693859.24045  21904117.133                    21904126.688
 11  7 28  0 51 30.0000000  0 10G12G05G20G04G27G09G28G17G02G10
 122099974.194 7  95142887.91444  23234849.031                    23234857.281
 129041536.921 6 100551906.61643  24555769.383                    24555782.422
 133106039.165 5                  25329226.641
 105954107.723 8  82561814.50846  20162378.250                    20162386.320
 119178815.716 7  92866476.23844  22678929.594                    22678938.941
 116979760.981 7  91153214.08845  22260532.906                    22260541.516
 121686481.137 6  94820680.52643  23156162.438                    23156171.168
 115949264.808 7  90350077.64145  22064373.711                    22064381.672
 110938607.672 8  86445738.45546  21110881.961                    21110887.594
 115034054.428 7  89636953.39445  21890220.219                    21890228.332
 11  7 28  0 52  0.0000000  0 10G12G05G20G04G27G09G28G17G02G10
 122006993.748 7  95070435.65744  23217155.875                    23217163.488
 128936170.159 6 100469802.93443  24535718.477                    24535731.617
 133184605.030 6 103780198.43252  25344178.063                    25344185.285
 105992550.188 8  82591769.67146  20169693.867                    20169701.328
 119214880.773 7  92894578.89544  22685793.219                    22685802.113
 117015114.607 7  91180762.35245  22267260.297                    22267269.324
 121772773.262 7  94887921.06944  23172583.555                    23172592.176
 115989516.684 7  90381442.73245  22072033.195                    22072040.887
 110893304.844 8  86410437.57646  21102261.016                    21102266.418
 114961398.543 7  89580338.46545  21876394.570                    21876402.758
 11  7 28  0 52 30.0000000  0 10G12G05G20G04G27G09G28G17G02G10
 121914146.707 7  94998087.35644  23199487.633                    23199494.871
 128830733.476 6 100387644.75543  24515655.047                    24515667.484
 133263509.823 5 103841682.64442  25359192.008                    25359201.230
 106031431.925 7  82622067.12546  20177092.531                    20177100.500
 119251328.444 7  92922979.67745  22692728.680                    22692737.969
 117051014.634 7  91208736.36645  22274091.820                    22274100.660
 121859365.064 7  94955395.13844  23189060.445                    23189070.566
 116029865.842 7  90412883.61945  22079711.586                    22079718.816
 110848371.185 8  86375424.36646  21093710.359                    21093716.262
 114889119.980 7  89524017.56245  21862639.984                    21862648.824
 11  7 28  0 53  0.0000000  0 10G12G05G20G04G27G09G28G17G02G10
 121821435.195 7  94925844.64844  23181844.836                    23181852.617
 128725229.274 6 100305433.95043  24495577.477                    24495589.621
 133342751.090 5 103903429.30042  25374271.727                    25374280.910
 106070750.117 7  82652704.67346  20184574.453                    20184582.633
 119288156.225 7  92951676.65345  22699736.305                    22699745.777
 117087458.247 7  91237133.95845  22281026.492                    22281036.113
 121946254.919 7  95023101.39444  23205596.227                    23205605.465
 116070312.093 7  90444400.14445  22087408.180                    22087415.836
 110803806.326 8  86340698.52446  21085230.328                    21085235.965
 114817221.183 7  89467992.57545  21848957.891                    21848966.055
 11  7 28  0 53 30.0000000  0 10G12G05G20G04G27G09G28G17G02G10
 121728861.578 7  94853709.41245  23164228.672                    23164237.121
 128619660.472 6 100223172.82243  24475488.859                    24475501.102
 133422327.63315                  25389414.828
 106110503.198 8  82683681.09746  20192139.305                    20192147.133
 119325362.539 7  92980668.59945  22706816.984                    22706826.051
 117124443.693 7  91265953.76545  22288065.414                    22288074.078
 122033441.759 7  95091039.11543  23222186.695                    23222195.414
 116110856.161 7  90475992.90245  22095123.516                    22095131.199
 110759610.938 8  86306260.58346  21076819.773                    21076825.516
 114745705.976 7  89412266.49045  21835348.430                    21835357.254
 11  7 28  0 54  0.0000000  0 10G12G05G20G04G27G09G28G17G02G10
 121636428.249 7  94781683.49144  23146639.383                    23146647.074
 128514029.531 6 100140863.24943  24455387.453                    24455400.105
 133502236.871 6                  25404621.648
 106150688.721 8  82714994.49146  20199786.555                    20199794.355
 119362945.246 7  93009953.82744  22713968.750                    22713978.055
 117161968.230 7  91295193.65245  22295205.961                    22295214.277
 122120923.900 6  95159206.94643  23238833.680                    23238842.918
 116151497.961 7  90507661.81645  22102857.211                    22102865.734
 110715784.628 8  86272110.23646  21068480.438                    21068485.980
 114674577.071 7  89356841.43245  21821813.656                    21821822.570
 11  7 28  0 54 30.0000000  0 10G12G05G20G04G27G09G28G17G02G10
 121544137.754 7  94709768.84845  23129076.602                    23129085.070
 128408338.936 6 100058507.21244  24435274.695                    24435287.371
 133582476.025 5                  25419889.102
 106191304.771 8  82746643.35546  20207515.703                    20207523.137
 119400902.182 6  93039530.69745  22721190.938                    22721200.539
 117200029.711 7  91324851.93245  22302448.875                    22302457.457
 122208700.140 6  95227603.94043  23255537.422                    23255546.465
 116192237.870 7  90539407.16845  22110609.930                    22110617.941
 110672327.743 8  86238247.75146  21060210.539                    21060216.555
 114603837.792 7  89301719.96045  21808352.367                    21808360.863
 11  7 28  0 55  0.0000000  0 10G12G05G20G04G27G09G28G17G02G10
 121451992.127 7  94637967.11345  23111542.391                    23111550.258
 128302591.545 6  99976106.87244  24415151.648                    24415163.957
 133663043.577 5                  25435221.414
 106232349.040 8  82778625.90046  20215325.875                    20215333.270
 119439231.410 6  93069397.63045  22728485.359                    22728494.848
 117238626.110 7  91354927.03645  22309793.305                    22309802.520
 122296768.788 7  95296228.79143  23272296.508                    23272304.883
 116233076.549 7  90571229.49645  22118381.023                    22118389.094
 110629240.568 8  86204673.35146  21052010.867                    21052017.074
 114533491.118 7  89246904.40045  21794965.859                    21794974.563
 11  7 28  0 55 30.0000000  0 10G12G05G20G04G27G09G28G17G02G10
 121359993.357 7  94566279.78145  23094035.570                    23094043.242
 128196789.714 6  99893664.14344  24395017.922                    24395030.348
 133743936.02515                  25450614.406
 106273818.974 8  82810940.13146  20223217.359                    20223224.879
 119477930.258 7  93099552.57345  22735849.422                    22735858.996
 117277754.043 7  91385416.31045  22317239.055                    22317248.383
 122385128.057 7  95365080.15143  23289110.602                    23289118.703
 116274013.785 7  90603128.59245  22126171.273                    22126179.039
 110586521.511 8  86171385.81446  21043881.938                    21043887.633
 114463539.694 7  89192396.86045  21781654.773                    21781663.293
 11  7 28  0 56  0.0000000  0 10G12G05G20G04G27G09G28G17G02G10
 121268144.763 7  94494709.47444  23076557.789                    23076564.340
 128090936.413 6  99811181.26544  24374874.898                    24374887.422
 133825152.44014                  25466067.758
 106315713.224 8  82843585.00246  20231189.500                    20231197.355
 119516997.402 7  93129994.51945  22743283.484                    22743293.129
 117317412.036 6  91416318.62545  22324786.016                    22324794.918
 122473776.961 7  95434157.17544  23305980.383                    23305989.723
 116315050.580 7  90635105.28345  22133980.375                    22133988.094
 110544172.724 8  86138386.78546  21035823.203                    21035828.688
 114393987.608 7  89138200.48245  21768418.969                    21768428.000
 11  7 28  0 56 30.0000000  0 10G12G05G20G04G27G09G28G17G02G10
 121176448.343 7  94423257.74444  23059107.383                    23059115.523
 127985033.996 6  99728660.14444  24354722.008                    24354734.641
 133906690.20814                  25481584.148
 106358029.181 8  82876558.46746  20239241.883                    20239249.898
 119556430.505 7  93160721.60145  22750787.578                    22750796.980
 117357597.386 7  91447631.89245  22332433.000                    22332441.699
 122562713.704 7  95503458.44744  23322904.016                    23322913.996
 116356187.224 7  90667159.78145  22141808.539                    22141816.492
 110502193.692 8  86105675.88646  21027834.578                    21027840.500
 114324837.179 7  89084317.08745  21755259.633                    21755269.121
 11  7 28  0 57  0.0000000  0 10G12G05G20G04G27G09G28G17G02G10
 121084906.754 7  94351926.66044  23041687.813                    23041695.855
 127879085.101 6  99646102.78944  24334560.516                    24334572.281
 133988547.34915                  25497163.398
 106400764.746 8  82909858.91046  20247374.422                    20247382.281
 119596227.490 7  93191732.22545  22758360.727                    22758370.039
 117398307.468 7  91479354.05345  22340179.813                    22340188.848
 122651936.969 6  95572982.95543  23339882.781                    23339892.059
 116397423.824 7  90699292.16745  22149655.992                    22149663.434
 110460584.514 8  86073253.17846  21019917.125                    21019922.938
 114256091.547 7  89030749.10345  21742178.359                    21742186.402
 11  7 28  0 57 30.0000000  0 10G12G05G20G04G27G09G28G17G02G10
 120993521.809 7  94280717.64844  23024298.352                    23024305.762
 127773092.717 6  99563511.56844  24314390.609                    24314402.391
 134070721.35915                  25512799.977
 106443917.898 8  82943484.73846  20255586.211                    20255594.000
 119636386.389 7  93223024.87145  22766002.594                    22766012.059
 117439540.126 7  91511483.40245  22348025.898                    22348034.906
 122741445.291 7  95642729.63943  23356916.117                    23356925.215
 116438761.282 8  90731503.14445  22157522.133                    22157530.453
 110419345.091 8  86041118.60446  21012069.281                    21012075.094
 114187753.972 7  88977499.08645  21729173.711                    21729182.207
 11  7 28  0 58  0.0000000  0 10G12G05G20G04G27G09G28G17G02G10
 120902296.225 7  94209632.80744  23006938.453                    23006946.785
 127667059.671 6  99480888.70544  24294212.508                    24294224.508
 134153209.98414                  25528496.508
 106487486.534 7  82977434.32846  20263877.430                    20263884.777
 119676904.787 6  93254597.63645  22773712.836                    22773722.246
 117481292.604 7  91544017.81845  22355971.328                    22355980.270
 122831236.950 6  95712697.10243  23374002.945                    23374011.746
 116480199.538 7  90763792.67045  22165407.766                    22165415.414
 110378475.436 8  86009272.16246  21004291.828                    21004297.848
 114119827.299 7  88924569.26345  21716247.406                    21716256.211
 11  7 28  0 58 30.0000000  0 10G12G05G20G04G27G09G28G17G02G10
 120811231.984 7  94138673.68944  22989609.703                    22989617.277
 127560988.110 6  99398235.78644  24274027.711                    24274039.336
 134236010.93415                  25544252.195
 106531467.824 8  83011705.46846  20272246.227                    20272254.156
 119717780.417 7  93286448.77844  22781491.445                    22781500.941
 117523562.534 7  91576955.44344  22364014.531                    22364023.395
 122921310.335 6  95782884.04843  23391143.070                    23391152.152
 116521738.867 7  90796160.94245  22173312.555                    22173320.102
 110337974.976 8  85977713.40146  20996585.141                    20996590.949
 114052314.082 7  88871961.61645  21703400.773                    21703409.531
 11  7 28  0 59  0.0000000  0 10G12G05G20G04G27G09G28G17G02G10
 120720331.935 7  94067842.52144  22972311.695                    22972319.348
 127454880.716 6  99315554.98343  24253836.250                    24253847.371
 134319121.92615                  25560068.828
 106575860.009 8  83046296.77346  20280693.938                    20280701.449
 119759011.164 7  93318576.61844  22789337.219                    22789346.633
 117566347.467 7  91610294.37845  22372156.422                    22372165.570
 123011663.887 6  95853289.36043  23408336.859                    23408345.637
 116563379.735 7  90828608.33445  22181236.086                    22181244.113
 110297843.898 8  85946442.47946  20988948.102                    20988953.973
 113985218.136 7  88819679.11345  21690632.773                    21690641.188
 11  7 28  0 59 30.0000000  0  9G12G05G04G27G09G28G17G02G10
 120629598.899 7  93997141.50244  22955045.273                    22955053.781
 127348741.140 6  99232849.11243  24233637.109                    24233649.469
 106620661.236 8  83081206.81746  20289219.383                    20289227.453
 119800595.589 7  93350980.06144  22797250.438                    22797259.805
 117609645.263 7  91644032.95445  22380396.156                    22380404.840
 123102296.894 6  95923912.44143  23425584.336                    23425593.512
 116605123.048 7  90861135.55345  22189179.359                    22189187.668
 110258082.917 8  85915459.94246  20981381.836                    20981387.285
 113918542.713 7  88767724.29145  21677944.492                    21677953.012
 11  7 28  1  0  0.0000000  0 10G12G05G20G04G27G09G28G17G02G10
 120539034.859 7  93926572.16544  22937811.695                    22937819.867
 127242571.148 6  99150119.56143  24213433.719                    24213446.207
 134486256.40315                  25591875.391
 106665868.731 8  83116433.43746  20297822.055                    20297830.051
 119842530.754 7  93383656.78045  22805230.180                    22805239.664
 117653452.682 7  91678168.62345  22388732.328                    22388740.895
 123193206.932 6  95994751.33743  23442883.289                    23442893.230
 116646968.714 8  90893742.52545  22197142.359                    22197150.875
 110218691.327 8  85884765.23846  20973885.938                    20973891.684
 113852289.738 7  88716098.64845  21665337.289                    21665345.723
 11  7 28  1  0 30.0000000  0  9G12G05G04G27G09G28G17G02G10
 120448642.211 7  93856136.39444  22920610.883                    22920618.785
 127136373.187 6  99067368.19443  24193225.133                    24193237.414
 106711480.239 8  83151974.86946  20306501.570                    20306509.520
 119884814.058 7  93416604.79344  22813277.086                    22813285.742
 117697766.902 7  91712699.19945  22397164.070                    22397173.309
 123284391.825 6  96065804.35043  23460234.789                    23460244.961
 116688916.703 7  90926429.23745  22205125.188                    22205132.855
 110179669.081 8  85854358.33646  20966460.008                    20966466.066
 113786462.453 7  88664804.71945  21652810.477                    21652819.078
 11  7 28  1  1  0.0000000  0 10G12G05G20G04G27G09G28G17G02G10
 120358423.445 7  93785836.12244  22903442.508                    22903450.555
 127030151.011 6  98984597.94843  24173011.398                    24173023.570
 134654612.25515                  25623913.648
 106757494.030 8  83187829.77346  20315257.781                    20315265.324
 119927444.163 7  93449823.05544  22821389.664                    22821398.402
 117742586.161 7  91747623.32444  22405693.273                    22405702.582
 123375851.293 6  96137071.35143  23477639.797                    23477649.012
 116730968.282 8  90959196.68445  22213127.258                    22213135.395
 110141016.748 8  85824239.68046  20959104.836                    20959110.973
 113721064.523 7  88613845.34145  21640365.836                    21640373.820
 11  7 28  1  1 30.0000000  0 10G12G05G20G04G27G09G28G17G02G10
 120268380.546 7  93715672.88744  22886307.703                    22886315.750
 126923906.368 6  98901810.22343  24152793.961                    24152805.594
 134739240.47214                  25640016.133
 106803907.399 8  83223996.03246  20324090.195                    20324097.711
 119970418.084 7  93483309.22444  22829566.773                    22829576.027
 117787907.038 7  91782938.32744  22414317.859                    22414326.246
 123467582.727 6  96208550.33143  23495095.109                    23495105.086
 116773123.301 8  90992044.73045  22221149.555                    22221157.449
 110102733.170 8  85794408.35246  20951819.688                    20951825.426
 113656097.924 7  88563222.05545  21628002.656                    21628011.223
 11  7 28  1  2  0.0000000  0 10G12G05G20G04G27G09G28G17G02G10
 120178516.320 7  93645648.88544  22869207.313                    22869214.848
 126817642.362 6  98819007.38344  24132571.852                    24132583.965
 134824163.39215                  25656177.852
 106850717.977 8  83260471.80146  20332997.703                    20333005.629
 120013733.900 7  93517061.80145  22837809.461                    22837818.953
 117833726.992 6  91818642.21544  22423036.727                    22423045.109
 123559584.970 7  96280240.32443  23512603.602                    23512613.027
 116815382.444 7  91024973.93845  22229191.039                    22229198.285
 110064818.830 8  85764864.74146  20944604.656                    20944610.484
 113591566.042 7  88512937.53145  21615722.836                    21615731.379
 11  7 28  1  2 30.0000000  0  9G12G05G04G27G09G28G17G02G10
 120088833.914 7  93575766.57244  22852140.906                    22852148.875
 126711362.185 6  98736191.94844  24112347.508                    24112358.516
 106897924.155 8  83297255.82446  20341980.859                    20341988.754
 120057389.763 7  93551079.34944  22846117.008                    22846125.844
 117880044.104 7  91854733.48744  22431850.758                    22431859.633
 123651856.395 7  96352140.06043  23530162.930                    23530171.734
 116857746.469 7  91057984.84445  22237253.203                    22237260.602
 110027274.055 8  85735609.09846  20937460.188                    20937465.949
 113527472.262 7  88462994.36645  21603526.063                    21603534.324
 11  7 28  1  3  0.0000000  0  9G12G05G04G27G09G28G17G02G10
 119999335.266 7  93506027.43044  22835110.109                    22835117.598
 126605068.482 6  98653365.94144  24092119.961                    24092131.590
 106945523.486 8  83334346.20646  20351038.477                    20351046.020
 120101383.509 7  93585360.17444  22854489.227                    22854497.926
 117926855.380 7  91891209.81045  22440758.945                    22440767.434
 123744395.740 6  96424248.56243  23547772.258                    23547781.645
 116900215.671 7  91091077.72145  22245333.859                    22245341.520
 109990098.469 8  85706641.14146  20930385.750                    20930391.293
 113463819.246 7  88413394.67445  21591413.227                    21591422.051
 11  7 28  1  3 30.0000000  0  9G12G05G04G27G09G28G17G02G10
 119910022.688 7  93436433.29044  22818114.398                    22818121.512
 126498763.647 7  98570531.25444  24071891.266                    24071902.402
 106993513.616 8  83371741.10946  20360170.906                    20360178.758
 120145712.451 7  93619902.19144  22862924.141                    22862933.617
 117974157.813 7  91928068.84544  22449759.938                    22449768.465
 123837200.794 6  96496564.11843  23565432.000                    23565440.496
 116942790.220 8  91124252.66645  22253435.727                    22253443.543
 109953291.780 8  85677960.63046  20923382.016                    20923388.172
 113400609.738 7  88364140.55945  21579385.063                    21579393.387
 11  7 28  1  4  0.0000000  0  9G12G05G04G27G09G28G17G02G10
 119820898.385 7  93366985.85644  22801154.430                    22801161.918
 126392450.305 7  98487689.94244  24051660.336                    24051671.758
 107041892.126 8  83409438.64446  20369376.734                    20369384.602
 120190373.944 7  93654703.33644  22871423.141                    22871431.918
 118021948.820 7  91965308.59644  22458854.414                    22458863.289
 123930269.654 6  96569085.26943  23583142.555                    23583151.945
 116985470.229 7  91157509.78845  22261557.359                    22261565.035
 109916853.279 8  85649567.02546  20916448.125                    20916453.477
 113337846.226 7  88315233.97645  21567441.375                    21567449.621
 11  7 28  1  4 30.0000000  0  9G12G05G04G27G09G28G17G02G10
 119731965.006 7  93297687.19944  22784230.836                    22784238.457
 126286131.281 7  98404844.20144  24031427.961                    24031440.078
 107090656.827 8  83447437.11246  20378656.438                    20378664.184
 120235365.945 6  93689762.03444  22879984.438                    22879993.988
 118070225.781 7  92002926.99244  22468041.266                    22468050.129
 124023601.230 6  96641811.06643  23600902.016                    23600912.805
 117028256.418 7  91190849.66445  22269700.133                    22269706.863
 109880783.569 8  85621460.78546  20909584.094                    20909589.785
 113275531.983 7  88266677.48345  21555583.508                    21555592.027
 11  7 28  1  5  0.0000000  0  9G12G05G04G27G09G28G17G02G10
 119643225.068 7  93228539.24344  22767344.516                    22767351.797
 126179809.159 7  98321996.04044  24011195.445                    24011206.992
 107139805.119 8  83485734.47446  20388008.898                    20388016.672
 120280686.002 7  93725076.35245  22888608.930                    22888618.238
 118118985.613 7  92040921.65844  22477319.648                    22477328.234
 124117193.563 6  96714740.05843  23618712.773                    23618722.406
 117071148.931 7  91224272.39145  22277861.625                    22277869.285
 109845082.175 8  85593641.53446  20902790.359                    20902795.477
 113213669.514 7  88218473.01745  21543811.203                    21543819.449
 11  7 28  1  5 30.0000000  0  9G12G05G04G27G09G28G17G02G10
 119554681.292 7  93159544.16044  22750495.008                    22750502.719
 126073487.205 6  98239148.00844  23990962.539                    23990975.137
 107189335.272 8  83524329.39646  20397434.375                    20397441.875
 120326332.008 6  93760644.64444  22897295.109                    22897304.480
 118168225.755 7  92079290.58544  22486690.156                    22486698.863
 124211044.991 7  96787870.98843  23636573.031                    23636581.875
 117114148.861 7  91257778.82945  22286044.547                    22286051.910
 109809749.327 8  85566109.46346  20896066.539                    20896072.059
 113152262.218 7  88170623.22045  21532126.109                    21532133.781
 11  7 28  1  6  0.0000000  0  9G12G05G04G27G09G28G17G02G10
 119466335.879 7  93090703.63145  22733683.633                    22733691.039
 125967167.842 7  98156301.96044  23970730.742                    23970742.223
 107239244.728 8  83563219.87446  20406931.961                    20406939.676
 120372301.650 7  93796465.12744  22906042.648                    22906052.516
 118217943.308 7  92118031.51644  22496150.547                    22496159.754
 124305153.572 6  96861202.29043  23654479.930                    23654490.367
 117157256.153 7  91291368.91145  22294247.266                    22294254.969
 109774784.341 8  85538864.04146  20889413.031                    20889418.738
 113091312.778 7  88123130.19945  21520528.023                    21520535.598
 11  7 28  1  6 30.0000000  0  9G12G05G04G27G09G28G17G02G10
 119378191.332 7  93022019.60345  22716909.914                    22716917.809
 125860853.774 7  98073460.05444  23950499.656                    23950510.727
 107289530.857 8  83602403.87246  20416500.914                    20416508.348
 120418592.182 7  93832535.64344  22914851.875                    22914861.219
 118268135.359 7  92157142.20144  22505702.125                    22505710.824
 124399517.699 6  96934732.59343  23672437.242                    23672447.957
 117200471.091 7  91325042.88945  22302470.719                    22302478.391
 109740186.945 8  85511905.05046  20882829.188                    20882834.863
 113030823.569 7  88075995.79545  21509016.563                    21509025.016
 11  7 28  1  7  0.0000000  0  9G12G05G04G27G09G28G17G02G10
 119290249.996 7  92953493.93645  22700175.469                    22700183.051
 125754547.992 7  97990624.62144  23930269.875                    23930281.207
 107340191.727 8  83641879.87746  20426141.516                    20426149.402
 120465201.584 7  93868854.64844  22923720.648                    22923730.582
 118318799.345 7  92196620.61544  22515342.875                    22515351.613
 124494135.656 6  97008460.81243  23690443.406                    23690452.750
 117243794.463 7  91358801.33745  22310714.898                    22310722.531
 109705957.072 8  85485232.43946  20876315.320                    20876321.016
 112970797.469 7  88029222.26045  21497593.953                    21497602.160
 11  7 28  1  7 30.0000000  0  9G12G05G04G27G09G28G17G02G10
 119202514.529 7  92885128.66045  22683480.055                    22683488.043
 125648253.259 7  97907797.76844  23910042.766                    23910054.461
 107391225.146 8  83681646.16746  20435852.930                    20435860.410
 120512127.571 7  93905420.33344  22932650.539                    22932659.918
 118369932.345 7  92236464.48644  22525073.859                    22525081.898
 124589005.994 6  97082385.79443  23708495.297                    23708505.125
 117287226.631 7  91392644.56445  22318979.664                    22318988.043
 109672094.637 8  85458846.15346  20869871.797                    20869877.520
 112911237.360 7  87982811.84445  21486260.109                    21486268.637
 11  7 28  1  8  0.0000000  0  9G12G05G04G27G09G28G17G02G10
 119114987.406 7  92816925.72245  22666824.508                    22666831.824
 125541972.325 7  97824981.68744  23889818.305                    23889829.379
 107442628.504 8  83721700.72446  20445634.680                    20445642.500
 120559367.574 7  93942230.70344  22941639.852                    22941649.328
 118421531.634 7  92276671.70244  22534892.648                    22534902.016
 124684126.819 6  97156505.75943  23726596.055                    23726606.551
 117330768.009 7  91426572.90045  22327265.281                    22327273.277
 109638599.280 8  85432745.89446  20863497.914                    20863503.156
 112852146.122 7  87936766.76745  21475015.141                    21475023.938
 11  7 28  1  8 30.0000000  0  9G12G05G04G27G09G28G17G02G10
 119027671.070 7  92748887.03345  22650208.086                    22650216.105
 125435707.832 7  97742178.36944  23869596.391                    23869607.164
 107494399.340 8  83762041.61546  20455486.109                    20455493.832
 120606918.759 7  93979283.53844  22950689.508                    22950698.316
 118473593.846 7  92317239.63045  22544799.563                    22544808.898
 124779495.799 6  97230819.17544  23744745.844                    23744755.387
 117374418.910 7  91460586.57045  22335572.391                    22335579.277
 109605470.241 8  85406931.08346  20857193.352                    20857198.863
 112793525.987 7  87891088.79645  21463860.258                    21463868.762
 11  7 28  1  9  0.0000000  0  9G12G05G04G27G09G28G17G02G10
 118940568.184 7  92681014.66645  22633633.195                    22633641.180
 125329463.143 7  97659390.52844  23849378.852                    23849389.688
 107546535.788 8  83802667.42246  20465407.320                    20465414.742
 120654779.364 7  94016577.48244  22959796.609                    22959806.395
 118526116.483 7  92358166.34644  22554794.016                    22554803.219
 124875111.904 7  97305325.20843  23762940.727                    23762950.496
 117418180.104 7  91494686.18245  22343899.117                    22343906.773
 109572708.171 8  85381402.21546  20850958.852                    20850964.566
 112735380.114 7  87845780.37645  21452795.703                    21452803.723
 11  7 28  1  9 30.0000000  0  9G12G05G04G27G09G28G17G02G10
 118853681.420 7  92613310.71145  22617099.547                    22617107.074
 125223240.698 7  97576619.98544  23829165.898                    23829175.746
 107599035.510 8  83843576.28746  20475397.766                    20475405.508
 120702946.947 7  94054110.63644  22968962.758                    22968972.289
 118579096.837 7  92399449.71644  22564876.539                    22564885.070
 124970973.258 6  97380022.30943  23781182.336                    23781191.445
 117462051.899 7  91528872.00245  22352248.148                    22352255.414
 109540312.579 8  85356158.92746  20844794.563                    20844800.254
 112677711.406 7  87800843.75845  21441821.453                    21441829.539
 11  7 28  1 10  0.0000000  0  9G12G05G04G27G09G28G17G02G10
 118767012.967 7  92545776.88645  22600606.586                    22600614.926
 125117043.558 7  97493869.17144  23808956.461                    23808966.816
 107651896.312 8  83884766.51546  20485456.672                    20485464.816
 120751419.037 7  94091881.06744  22978187.016                    22978196.488
 118632531.849 7  92441087.36844  22575044.500                    22575053.641
 125067077.928 7  97454908.99944  23799471.250                    23799480.500
 117506035.147 7  91563144.66945  22360617.914                    22360625.059
 109508283.096 8  85331200.90546  20838698.938                    20838704.840
 112620522.517 7  87756281.04245  21430938.773                    21430946.758
 11  7 28  1 10 30.0000000  0  9G12G05G04G27G09G28G17G02G10
 118680565.406 7  92478415.16845  22584156.500                    22584164.109
 125010874.040 7  97411139.87044  23788752.875                    23788763.160
 107705115.602 8  83926236.08646  20495584.141                    20495591.984
 120800193.187 7  94129886.87744  22987467.539                    22987477.711
 118686418.539 7  92483076.97444  22585299.023                    22585307.527
 125163424.197 6  97529983.93344  23817804.742                    23817815.246
 117550129.949 7  91597504.24645  22369008.547                    22369016.254
 109476619.255 8  85306527.81346  20832674.078                    20832679.617
 112563815.680 7  87712093.93245  21420147.766                    21420155.875
 11  7 28  1 11  0.0000000  0  9G12G05G04G27G09G28G17G02G10
 118594341.371 7  92411227.64745  22567748.469                    22567755.523
 124904735.303 7  97328434.55744  23768555.414                    23768566.023
 107758691.128 8  83967983.25746  20505779.242                    20505787.148
 120849266.792 7  94168126.00644  22996806.672                    22996815.594
 118740753.989 7  92525416.27344  22595638.891                    22595647.586
 125260010.049 6  97605245.56343  23836183.508                    23836194.711
 117594336.578 7  91631950.99045  22377421.273                    22377428.258
 109445320.554 8  85282139.24346  20826717.578                    20826723.355
 112507593.915 7  87668284.80545  21409449.289                    21409457.109
 11  7 28  1 11 30.0000000  0  9G12G05G04G27G09G28G17G02G10
 118508343.342 7  92344216.22845  22551383.211                    22551390.793
 124798630.080 7  97245755.38244  23748363.750                    23748374.375
 107812620.206 8  84010005.92446  20516041.359                    20516049.348
 120898637.330 7  94206596.52844  23006201.703                    23006210.977
 118795535.030 7  92568102.79745  22606063.219                    22606072.281
 125356833.760 6  97680692.51243  23854609.883                    23854618.430
 117638655.629 7  91666485.31645  22385854.719                    22385862.461
 109414386.843 8  85258035.08346  20820831.148                    20820836.805
 112451859.472 8  87624855.41745  21398842.844                    21398851.148
 11  7 28  1 12  0.0000000  0  9G12G05G04G27G09G28G17G02G10
 118422574.037 7  92277383.05745  22535061.688                    22535069.262
 124692561.478 7  97163104.73544  23728179.039                    23728189.949
 107866901.175 8  84052302.78846  20526371.008                    20526378.488
 120948302.794 7  94245296.87444  23015652.078                    23015662.070
 118850759.184 7  92611134.58745  22616572.047                    22616580.859
 125453893.859 6  97756323.77043  23873079.516                    23873088.297
 117683087.874 7  91701107.82445  22394309.711                    22394317.867
 109383818.299 8  85234215.46046  20815014.438                    20815019.648
 112396615.535 7  87581808.24545  21388330.453                    21388338.652
 11  7 28  1 12 30.0000000  0  9G12G05G04G27G09G28G17G02G10
 118337035.895 7  92210730.01345  22518784.383                    22518791.867
 124586532.136 7  97080484.68644  23708002.617                    23708013.438
 107921531.289 8  84094871.70146  20536766.859                    20536774.445
 120998260.361 7  94284224.82944  23025159.484                    23025168.344
 118906423.009 7  92654508.99044  22627164.758                    22627173.363
 125551188.125 6  97832137.45543  23891593.352                    23891603.574
 117727633.536 7  91735818.69945  22402787.180                    22402794.938
 109353614.147 8  85210679.78746  20809266.477                    20809272.109
 112341864.327 8  87539145.00645  21377911.805                    21377920.023
 11  7 28  1 13  0.0000000  0  9G12G05G04G27G09G28G17G02G10
 118251731.446 7  92144259.05845  22502551.383                    22502558.559
 124480545.126 7  96997897.59444  23687833.977                    23687844.379
 107976508.286 8  84137710.92546  20547228.352                    20547236.129
 121048507.682 7  94323378.57044  23034720.953                    23034730.039
 118962523.637 7  92698223.76244  22637840.602                    22637849.273
 125648715.177 6  97908132.49843  23910152.125                    23910162.406
 117772293.235 7  91770618.44645  22411284.945                    22411293.504
 109323774.103 8  85187427.82946  20803588.164                    20803594.156
 112287608.879 8  87496868.07245  21367587.188                    21367594.828
 11  7 28  1 13 30.0000000  0  9G12G05G04G27G09G28G17G02G10
 118166663.090 7  92077972.08745  22486363.633                    22486371.078
 124374603.036 7  96915345.50844  23667673.281                    23667683.883
 108031829.830 8  84180818.61046  20557755.695                    20557763.637
 121099042.107 7  94362756.05344  23044337.234                    23044346.160
 119019058.197 7  92742276.64544  22648597.500                    22648607.203
 125746472.778 6  97984307.25643  23928756.313                    23928764.695
 117817067.328 7  91805507.33545  22419805.375                    22419813.441
 109294297.560 8  85164459.12746  20797979.102                    20797984.660
 112233851.505 8  87454979.24645  21357357.469                    21357365.574
 11  7 28  1 14  0.0000000  0 10G12G05G25G04G27G09G28G17G02G10
 118081833.979 7  92011871.54745  22470220.977                    22470228.270
 124268709.217 7  96832831.03744  23647522.758                    23647532.770
 134913689.77315                  25673216.844
 108087494.043 8  84224193.32446  20568347.781                    20568355.961
 121149861.692 7  94402355.75144  23054007.484                    23054016.289
 119076024.035 7  92786665.60944  22659438.414                    22659447.219
 125844459.540 6  98060660.55843  23947401.883                    23947411.949
 117861956.842 7  91840486.16645  22428346.883                    22428355.738
 109265184.938 8  85141773.98846  20792439.172                    20792444.746
 112180595.142 7  87413480.83145  21347222.813                    21347231.137
 11  7 28  1 14 30.0000000  0 10G12G05G25G04G27G09G28G17G02G10
 117997246.551 7  91945959.33545  22454124.508                    22454132.059
 124162866.480 7  96750356.37644  23627380.883                    23627391.234
 134807922.953 5                  25653089.727
 108143498.492 8  84267833.13646  20579005.320                    20579013.422
 121200963.847 7  94442175.61444  23063732.406                    23063741.184
 119133418.053 6  92831388.21944  22670359.773                    22670368.883
 125942673.698 6  98137190.94043  23966090.656                    23966101.734
 117906962.171 7  91875555.23145  22436912.313                    22436919.996
 109236435.484 8  85119371.84646  20786968.242                    20786973.500
 112127842.145 7  87372374.64045  21337184.492                    21337192.672
 11  7 28  1 15  0.0000000  0 10G12G05G25G04G27G09G28G17G02G10
 117912902.641 7  91880236.86845  22438074.328                    22438082.066
 124057077.270 7  96667923.42544  23607249.492                    23607259.934
 134702150.56315                  25632961.523
 108199840.222 8  84311735.77046  20589727.094                    20589735.070
 121252345.513 7  94482213.25644  23073509.875                    23073518.809
 119191236.822 7  92876441.78644  22681362.758                    22681371.598
 126041112.695 6  98213896.47243  23984823.734                    23984833.914
 117952083.212 7  91910714.46245  22445498.094                    22445505.871
 109208048.285 8  85097251.98746  20781566.523                    20781572.223
 112075594.754 8  87331662.42145  21327242.523                    21327250.797
 11  7 28  1 15 30.0000000  0 10G12G05G25G04G27G09G28G17G02G10
 117828805.177 7  91814706.42545  22422070.922                    22422078.438
 123951344.495 7  96585534.41744  23587129.703                    23587139.063
 134596375.191 5                  25612835.328
 108256517.253 8  84355899.68046  20600512.305                    20600520.133
 121304004.556 7  94522467.03344  23083340.242                    23083349.242
 119249477.230 7  92921823.91544  22692445.797                    22692454.988
 126139774.827 6  98290776.03043  24003598.281                    24003608.395
 117997320.717 7  91945964.43545  22454106.797                    22454114.180
 109180023.316 8  85075414.39846  20776233.164                    20776238.926
 112023855.756 8  87291346.36445  21317396.711                    21317405.086
 11  7 28  1 16  0.0000000  0 10G12G05G25G04G27G09G28G17G02G10
 117744956.471 7  91749369.82745  22406115.164                    22406122.801
 123845671.018 7  96503191.62844  23567020.453                    23567030.176
 134490599.08915                  25592704.461
 108313527.165 8  84400322.98546  20611361.148                    20611369.152
 121355938.246 7  94562934.81744  23093222.844                    23093231.918
 119308136.117 6  92967532.12844  22703607.492                    22703617.551
 126238658.251 6  98367827.99143  24022415.563                    24022425.012
 118042675.043 7  91981305.46045  22462737.398                    22462744.582
 109152360.181 8  85053858.75146  20770969.180                    20770974.711
 111972627.188 8  87251428.04645  21307648.078                    21307656.066
 11  7 28  1 16 30.0000000  0 10G12G05G25G04G27G09G28G17G02G10
 117661359.289 7  91684229.21145  22390207.328                    22390214.535
 123740059.665 7  96420897.25044  23546922.555                    23546932.309
 134384821.904 5                  25572575.523
 108370867.249 8  84445003.55746  20622272.219                    20622280.547
 121408143.807 7  94603614.46644  23103157.188                    23103166.422
 119367210.319 7  93013563.96244  22714849.227                    22714858.363
 126337760.734 6  98445050.71543  24041273.945                    24041283.488
 118088146.748 7  92016737.93845  22471389.781                    22471398.055
 109125057.826 8  85032584.21446  20765773.688                    20765779.145
 111921911.853 8  87211909.64346  21297997.109                    21298005.117
 11  7 28  1 17  0.0000000  0 10G12G05G25G04G27G09G28G17G02G10
 117578016.037 7  91619286.46845  22374347.094                    22374354.930
 123634513.514 7  96338653.65344  23526838.328                    23526847.867
 134279047.704 5                  25552447.211
 108428535.701 8  84489940.00746  20633246.172                    20633254.094
 121460619.025 7  94644504.21544  23113142.219                    23113152.242
 119426697.124 6  93059917.28844  22726169.883                    22726178.430
 126437080.987 7  98522443.05343  24060174.188                    24060183.641
 118133736.193 7  92052262.15745  22480065.461                    22480073.969
 109098116.480 8  85011590.98446  20760647.227                    20760652.547
 111871712.030 8  87172792.92845  21288444.766                    21288452.348
 11  7 28  1 17 30.0000000  0 10G12G05G25G04G27G09G28G17G02G10
 117494929.223 7  91554543.55945  22358536.594                    22358543.957
 123529035.420 7  96256463.08144  23506766.375                    23506775.922
 134173277.490 5                  25532319.625
 108486529.995 8  84535130.35246  20644282.547                    20644289.703
 121513361.052 7  94685601.87744  23123179.508                    23123189.387
 119486593.065 7  93106589.45244  22737567.148                    22737576.242
 126536616.582 6  98600003.25643  24079115.508                    24079124.570
 118179444.103 7  92087878.69445  22488763.391                    22488772.250
 109071535.256 8  84990878.38346  20755588.844                    20755594.137
 111822029.836 8  87134079.57546  21278989.977                    21278997.879
 11  7 28  1 18  0.0000000  0 10G12G05G25G04G27G09G28G17G02G10
 117412101.599 7  91490002.59945  22342774.906                    22342782.398
 123423628.216 7  96174327.76444  23486707.930                    23486717.660
 134067513.575 5                  25512193.344
 108544847.724 8  84580572.73846  20655380.063                    20655387.727
 121566367.637 7  94726905.66944  23133266.445                    23133275.465
 119546895.063 6  93153577.98545  22749042.266                    22749051.465
 126636365.817 6  98677729.89543  24098096.250                    24098106.391
 118225271.196 7  92123588.09645  22497483.820                    22497492.734
 109045314.148 8  84970446.38646  20750599.055                    20750604.449
 111772868.265 8  87095771.91546  21269634.625                    21269643.254
 11  7 28  1 18 30.0000000  0  9G12G05G04G27G09G28G17G02G10
 117329535.643 7  91425665.53845  22327063.336                    22327070.633
 123318294.779 7  96092249.91044  23466663.688                    23466673.492
 108603486.683 8  84626265.43246  20666538.625                    20666546.605
 121619636.047 7  94768413.49944  23143402.703                    23143412.582
 119607600.106 7  93200880.59845  22760594.344                    22760603.629
 126736326.750 6  98755621.47043  24117119.016                    24117128.168
 118271217.327 7  92159390.26845  22506226.938                    22506235.078
 109019452.232 8  84950294.26346  20745677.281                    20745682.848
 111724229.105 8  87057871.31745  21260379.313                    21260387.496
 11  7 28  1 19  0.0000000  0  9G12G05G04G27G09G28G17G02G10
 117247233.906 7  91361534.35645  22311401.805                    22311408.898
 123213037.931 7  96010231.74344  23446633.555                    23446643.598
 108662444.046 8  84672206.22646  20677757.953                    20677765.313
 121673163.583 7  94810123.24344  23153588.758                    23153599.066
 119668704.918 7  93248494.72345  22772221.789                    22772231.469
 126836497.462 6  98833676.47643  24136181.398                    24136190.668
 118317283.499 7  92195285.96845  22514993.828                    22515001.098
 108993949.333 8  84930421.90746  20740824.578                    20740829.566
 111676115.045 8  87020379.88246  21251223.383                    21251231.656
 11  7 28  1 19 30.0000000  0  9G12G05G04G27G09G28G17G02G10
 117165198.983 7  91297611.08045  22295791.266                    22295798.066
 123107860.730 7  95928275.61944  23426618.797                    23426628.664
 108721717.947 8  84718393.68946  20689036.914                    20689045.176
 121726947.641 7  94852032.83944  23163823.531                    23163833.086
 119730206.299 7  93296417.85345  22783925.516                    22783935.043
 126936875.733 6  98911893.30743  24155282.484                    24155291.813
 118363470.010 7  92231275.44945  22523782.039                    22523790.688
 108968804.717 8  84910828.72746  20736039.547                    20736045.242
 111628528.269 8  86983299.32346  21242167.852                    21242176.094
 11  7 28  1 20  0.0000000  0  9G12G05G04G27G09G28G17G02G10
 117083433.917 7  91233898.09345  22280231.180                    22280238.805
 123002766.123 7  95846383.86944  23406619.563                    23406629.285
 108781305.714 8  84764825.71046  20700376.547                    20700384.402
 121780985.707 7  94894140.37844  23174107.078                    23174116.098
 119792101.134 7  93344647.59445  22795703.438                    22795712.637
 127037459.917 6  98990270.47743  24174422.586                    24174432.453
 118409777.222 7  92267358.99045  22532593.719                    22532602.961
 108944017.905 8  84891514.35546  20731322.953                    20731328.152
 111581471.345 8  86946631.64145  21233213.336                    21233221.512
 11  7 28  1 20 30.0000000  0 10G12G05G25G04G27G09G28G17G02G10
 117001940.654 7  91170396.90245  22264723.102                    22264731.164
 122897757.181 7  95764558.87544  23386636.734                    23386647.293
 133538872.80414                  25411597.102
 108841205.415 8  84811500.80446  20711774.773                    20711782.570
 121835275.520 7  94936444.10544  23184437.820                    23184446.844
 119854386.660 7  93393181.76045  22807556.086                    22807565.398
 127138248.401 6  99068806.84243  24193601.430                    24193611.934
 118456206.156 7  92303537.38645  22541429.258                    22541437.602
 108919588.573 8  84872478.53546  20726673.836                    20726679.691
 111534946.834 7  86910378.82845  21224359.844                    21224368.043
 11  7 28  1 21  0.0000000  0 10G12G05G25G04G27G09G28G17G02G10
 116920722.095 7  91107109.74545  22249268.133                    22249275.328
 122792836.930 7  95682802.99444  23366671.883                    23366681.004
 133433190.92314                  25391484.438
 108901415.045 8  84858417.40646  20723232.406                    20723240.477
 121889814.594 7  94978942.03644  23194816.188                    23194825.598
 119917059.666 7  93442017.87544  22819482.484                    22819491.555
 127239239.192 6  99147500.94743  24212819.836                    24212830.176
 118502757.410 7  92339811.09545  22550287.695                    22550296.391
 108895516.317 8  84853720.96446  20722093.172                    20722098.613
 111488957.133 8  86874542.74645  21215608.453                    21215616.445
 11  7 28  1 21 30.0000000  0 10G12G05G25G04G27G09G28G17G02G10
 116839780.557 7  91044038.44945  22233865.242                    22233872.871
 122688008.053 7  95601118.29844  23346722.891                    23346732.520
 133327529.67415                  25371376.945
 108961931.843 8  84905573.35646  20734748.500                    20734755.945
 121944600.009 7  95021631.94444  23205241.758                    23205251.305
 119980116.838 6  93491153.32645  22831481.680                    22831491.473
 127340429.984 6  99226350.94842  24232076.906                    24232086.547
 118549431.313 7  92376180.37645  22559169.727                    22559177.316
 108871800.418 8  84835241.06746  20717580.156                    20717585.645
 111443504.026 8  86839124.78945  21206959.063                    21206966.633
 11  7 28  1 22  0.0000000  0 10G12G05G25G04G27G09G28G17G02G10
 116759118.825 7  90981185.17145  22218516.070                    22218523.266
 122583273.499 7  95519507.10244  23326792.906                    23326801.844
 133221890.984 6                  25351275.055
 109022753.262 8  84952966.66246  20746322.523                    20746329.883
 121999629.058 7  95064511.66544  23215712.977                    23215722.867
 120043554.686 6  93540585.42044  22843553.289                    22843562.371
 127441818.898 6  99305355.24742  24251369.117                    24251380.418
 118596228.287 7  92412645.56045  22568075.023                    22568082.785
 108848440.193 8  84817038.31146  20713134.758                    20713140.168
 111398589.631 8  86804126.60946  21198411.617                    21198419.777
 11  7 28  1 22 30.0000000  0 10G12G05G25G04G27G09G28G17G02G10
 116678739.845 7  90918552.24045  22203220.539                    22203227.711
 122478636.540 7  95437971.95744  23306880.680                    23306889.605
 133116277.918 6                  25331177.883
 109083877.439 8  85000595.89046  20757953.594                    20757961.906
 122054899.620 7  95107579.59944  23226230.781                    23226240.301
 120107370.516 6  93590312.04344  22855696.836                    22855706.672
 127543404.308 5                  24270700.258
 118643149.025 7  92449207.19145  22577003.641                    22577011.254
 108825435.759 8  84799112.80746  20708757.133                    20708761.910
 111354216.691 8  86769550.33245  21189967.938                    21189975.652
 11  7 28  1 23  0.0000000  0 10G12G05G25G04G27G09G28G17G02G10
 116598645.660 7  90856141.22745  22187978.773                    22187986.574
 122374099.608 7  95356514.76144  23286987.539                    23286997.434
 133010692.009 5                  25311084.688
 109145301.514 8  85048458.79746  20769642.695                    20769650.422
 122110408.532 7  95150833.26444  23236793.961                    23236803.492
 120171560.569 7  93640330.27144  22867912.164                    22867920.816
 127645183.756 6                  24290069.195
 118690193.763 7  92485865.42045  22585955.578                    22585963.957
 108802785.860 8  84781463.55646  20704447.273                    20704452.391
 111310387.007 8  86735397.36945  21181627.516                    21181635.164
 11  7 28  1 23 30.0000000  0 10G12G05G25G04G27G09G28G17G02G10
 116518838.656 7  90793953.98345  22172791.773                    22172799.430
 122269665.521 7  95275137.69644  23267114.742                    23267124.465
 132905135.378 5                  25290997.922
 109207023.377 7  85096553.75446  20781387.734                    20781395.496
 122166153.168 7  95194270.61944  23247402.375                    23247411.582
 120236121.559 7  93690637.54944  22880198.203                    22880207.063
 127747155.007 6  99543260.45653  24309473.531                    24309481.832
 118737363.071 7  92522620.71845  22594931.945                    22594940.254
 108780489.761 8  84764090.00746  20700204.078                    20700209.902
 111267102.834 8  86701669.48345  21173390.914                    21173398.457
 11  7 28  1 24  0.0000000  0 10G12G05G25G04G27G09G28G17G02G10
 116439321.798 7  90731992.81945  22157660.406                    22157667.508
 122165337.679 7  95193843.43244  23247261.953                    23247271.371
 132799610.453 5                  25270917.797
 109269040.742 8  85144878.98346  20793189.055                    20793197.227
 122222131.367 7  95237889.96444  23258054.414                    23258064.152
 120301050.504 7  93741231.56744  22892553.188                    22892562.484
 127849316.566 6  99622866.84743  24328915.164                    24328923.523
 118784657.540 7  92559473.55645  22603931.563                    22603939.512
 108758547.370 8  84746992.07446  20696028.773                    20696034.141
 111224366.710 8  86668368.63346  21165258.594                    21165266.445
 11  7 28  1 24 30.0000000  0 10G12G05G25G04G27G09G28G17G02G10
 116360097.374 7  90670259.52045  22142584.891                    22142591.938
 122061118.823 7  95112634.08144  23227429.453                    23227438.633
 132694119.631 5                  25250841.961
 109331351.237 8  85193432.62346  20805046.203                    20805054.219
 122278340.447 7  95281689.23644  23268750.500                    23268760.156
 120366344.309 7  93792109.87544  22904978.625                    22904987.504
 127951666.389 6  99702619.89243  24348391.086                    24348400.953
 118832077.706 7  92596424.35245  22612955.664                    22612963.477
 108736958.064 8  84730169.26146  20691920.344                    20691925.855
 111182180.486 8  86635496.28146  21157230.555                    21157238.188
 11  7 28  1 25  0.0000000  0 10G12G05G25G04G27G09G28G17G02G10
 116281168.030 7  90608756.17245  22127564.656                    22127572.223
 121957011.605 7  95031511.70244  23207618.648                    23207627.547
 132588664.536 5                  25230775.047
 109393952.233 8  85242212.61746  20816959.000                    20816967.168
 122334777.184 7  95325665.88444  23279490.398                    23279499.777
 120431999.263 7  93843269.59044  22917472.188                    22917480.535
 128054202.240 6  99782517.90043  24367902.805                    24367913.160
 118879624.007 7  92633473.41645  22622003.219                    22622011.063
 108715720.763 8  84713620.74046  20687879.031                    20687884.832
 111140545.848 8  86603053.74446  21149307.711                    21149315.641
 11  7 28  1 25 30.0000000  0 10G12G05G25G04G27G09G28G17G02G10
 116202536.733 7  90547485.05445  22112601.688                    22112608.844
 121853019.604 7  94950479.10744  23187828.453                    23187838.539
 132483247.951 5                  25210713.477
 109456841.758 8  85291217.44846  20828926.578                    20828934.754
 122391439.149 7  95369818.04744  23290272.484                    23290282.387
 120498012.353 7  93894708.36544  22930034.211                    22930042.809
 128156922.186 6  99862559.41743  24387449.906                    24387459.582
 118927297.016 7  92670621.21745  22631075.375                    22631082.906
 108694835.203 8  84697346.29646  20683904.672                    20683909.949
 111099465.247 8  86571042.93246  21141490.227                    21141498.188
 11  7 28  1 26  0.0000000  0 10G12G05G25G04G27G09G28G17G02G10
 116124205.937 7  90486448.09145  22097696.602                    22097703.551
 121749145.243 7  94869538.19544  23168061.992                    23168071.910
 132377871.68515                  25190663.500
 109520017.461 8  85340445.26146  20840948.445                    20840956.359
 122448323.500 7  95414143.51644  23301096.961                    23301106.688
 120564380.227 7  93946423.57744  22942663.711                    22942672.617
 128259824.010 6  99942742.63743  24407030.516                    24407041.594
 118975097.453 7  92707868.31645  22640171.438                    22640178.969
 108674300.769 8  84681345.47146  20679996.961                    20680002.109
 111058940.469 8  86539465.22445  21133778.742                    21133786.695
 11  7 28  1 26 30.0000000  0 10G12G05G25G04G27G09G28G17G02G10
 116046177.983 7  90425647.10745  22082847.734                    22082855.430
 121645391.787 7  94788691.49244  23148318.250                    23148327.914
 132272538.009 5                  25170619.391
 109583476.694 8  85389894.00746  20853024.570                    20853032.660
 122505427.742 7  95458640.34044  23311963.625                    23311973.336
 120631099.669 7  93998412.76344  22955359.117                    22955368.504
 128362905.981 5 100023066.25342  24426645.750                    24426657.813
 119023025.497 7  92745214.85245  22649291.781                    22649299.496
 108654116.622 8  84665617.59646  20676156.305                    20676161.461
 111018973.672 8  86508322.30246  21126173.195                    21126181.070
 11  7 28  1 27  0.0000000  0 10G12G05G25G04G27G09G28G17G02G10
 115968455.274 7  90365083.97645  22068057.992                    22068065.305
 121541762.261 7  94707941.33644  23128598.375                    23128607.387
 132167249.350 5                  25150583.156
 109647217.463 8  85439562.14146  20865154.109                    20865161.586
 122562749.285 7  95503306.47044  23322872.039                    23322881.332
 120698167.497 7  94050673.38344  22968122.422                    22968131.195
 128466165.954 5 100103528.48842  24446296.359                    24446306.727
 119071082.002 7  92782661.48045  22658436.797                    22658444.652
 108634282.214 8  84650162.23446  20672381.844                    20672387.086
 110979567.002 8  86477615.84346  21118674.289                    21118682.316
 11  7 28  1 27 30.0000000  0 10G12G05G25G04G27G09G28G17G02G10
 115891040.937 7  90304761.13345  22053326.289                    22053333.703
 121438259.509 7  94627289.96745  23108902.898                    23108911.797
 132062008.028 6 102905465.12452  25130555.625                    25130566.910
 109711237.376 8  85489447.79946  20877336.078                    20877344.609
 122620285.528 7  95548139.89244  23333820.383                    23333830.676
 120765580.411 6  94103202.89744  22980950.156                    22980959.598
 128569601.811 6 100184127.92442  24465980.594                    24465990.297
 119119267.465 7  92820208.57344  22667606.156                    22667613.840
 108614797.150 8  84634979.09846  20668673.859                    20668679.137
 110940722.722 8  86447347.61646  21111282.289                    21111290.418
 11  7 28  1 28  0.0000000  0 10G12G05G25G04G27G09G28G17G02G10
 115813937.248 7  90244680.34845  22038653.352                    22038661.289
 121334886.340 7  94546739.58144  23089231.063                    23089240.324
 131956816.228 6 102823497.49242  25110539.430                    25110550.059
 109775534.050 8  85539549.09746  20889571.539                    20889579.477
 122678033.687 7  95593138.46944  23344809.398                    23344819.090
 120833334.909 7  94155998.58244  22993843.602                    22993852.742
 128673211.773 6 100264863.01143  24485696.734                    24485706.207
 119167582.069 7  92857856.31745  22676799.992                    22676807.539
 108595660.365 8  84620067.34746  20665032.469                    20665037.758
 110902442.665 8  86417519.03946  21103997.969                    21104005.566
 11  7 28  1 28 30.0000000  0 10G12G05G25G04G27G09G28G17G02G10
 115737146.623 7  90184843.53045  22024040.430                    22024048.574
 121231645.774 7  94466292.51244  23069585.164                    23069593.559
 131851676.303 6 102741570.32542  25090531.117                    25090542.484
 109840105.209 8  85589864.28946  20901859.367                    20901867.094
 122735991.071 6  95638300.04544  23355838.484                    23355848.605
 120901427.867 7  94209058.00344  23006800.617                    23006810.633
 128776993.463 6 100345731.81843  24505445.758                    24505455.168
 119216026.694 7  92895605.37345  22686018.594                    22686026.738
 108576871.358 8  84605426.58646  20661456.938                    20661462.160
 110864728.563 8  86388131.46045  21096820.633                    21096828.758
 11  7 28  1 29  0.0000000  0 10G12G05G25G04G27G09G28G17G02G10
 115660671.873 7  90125252.83745  22009488.016                    22009495.340
 121128541.066 7  94385951.29344  23049964.945                    23049973.629
 131746590.324 6 102659685.24843  25070533.664                    25070544.844
 109904948.649 8  85640391.65646  20914198.797                    20914206.590
 122794154.990 7  95683622.57343  23366907.031                    23366915.988
 120969855.908 7  94262378.49644  23019823.031                    23019832.211
 128880944.917 6 100426732.92743  24525225.531                    24525236.512
 119264601.692 7  92933456.01745  22695262.078                    22695270.133
 108558429.539 8  84591056.35946  20657947.508                    20657952.676
 110827582.284 8  86359186.34345  21089752.156                    21089759.828
 11  7 28  1 29 30.0000000  0 10G12G05G25G04G27G09G28G17G02G10
 115584515.439 7  90065910.17745  21994995.680                    21995003.133
 121025574.784 7  94305717.96544  23030370.406                    23030379.398
 131641560.677 6 102577843.97742  25050547.484                    25050558.145
 109970061.941 8  85691129.29046  20926589.250                    20926596.781
 122852522.871 6  95729104.02443  23378013.680                    23378022.957
 121038615.657 7  94315957.48944  23032907.461                    23032916.734
 128985064.198 6 100507864.77843  24545039.594                    24545049.508
 119313307.834 7  92971408.83945  22704530.195                    22704538.430
 108540334.202 8  84576956.11646  20654503.969                    20654508.746
 110791005.818 8  86330685.24146  21082791.992                    21082799.625
 11  7 28  1 30  0.0000000  0 10G12G05G25G04G27G09G28G17G02G10
 115508679.783 7  90006817.46545  21980565.109                    21980572.402
 120922750.127 7  94225594.97444  23010804.125                    23010813.328
 131536589.510 5 102496048.34942  25030571.727                    25030583.094
 110035442.749 8  85742075.38046  20939030.383                    20939038.578
 122911092.011 6  95774742.30843  23389159.086                    23389168.188
 121107703.769 7  94369792.34144  23046054.695                    23046063.492
 129089348.905 5 100589125.56942  24564885.398                    24564894.664
 119362145.535 7  93009464.15745  22713823.422                    22713832.254
 108522584.414 8  84563125.13546  20651126.016                    20651131.234
 110755001.024 8  86302629.60245  21075940.164                    21075947.953
 11  7 28  1 30 30.0000000  0 10G12G05G25G04G27G09G28G17G02G10
 115433167.688 7  89947976.89845  21966195.695                    21966203.020
 120820070.005 7  94145584.62844  22991264.375                    22991273.590
 131431679.502 5 102414300.40942  25010608.047                    25010620.359
 110101088.817 8  85793228.16846  20951522.633                    20951530.504
 122969859.759 6  95820535.36343  23400342.938                    23400351.945
 121177117.009 7  94423880.52844  23059263.430                    23059272.559
 129193797.573 5 100670514.07342  24584759.602                    24584770.492
 119411115.323 7  93047622.41345  22723143.039                    22723151.238
 108505179.848 8  84549563.14546  20647814.367                    20647819.422
 110719570.055 8  86275021.09546  21069198.086                    21069206.473
 11  7 28  1 31  0.0000000  0 10G12G05G25G04G27G09G28G17G02G10
 115357981.524 7  89889390.29845  21951888.375                    21951895.395
 120717537.888 7  94065689.59644  22971752.609                    22971762.008
 131326832.759 5 102332601.74742  24990655.445                    24990667.762
 110166997.775 8  85844585.79946  20964065.063                    20964072.387
 123028823.189 6  95866480.86543  23411562.719                    23411571.984
 121246852.028 7  94478219.48144  23072533.992                    23072542.430
 129298407.757 5 100752028.43042  24604667.297                    24604677.426
 119460217.613 7  93085883.94445  22732486.727                    22732494.383
 108488119.546 8  84536269.41846  20644567.797                    20644572.820
 110684714.635 8  86247861.06045  21062565.477                    21062573.566
 11  7 28  1 31 30.0000000  0 10G12G05G25G04G27G09G28G17G02G10
 115283124.139 7  89831059.88445  21937643.430                    21937650.645
 120615156.155 7  93985911.77744  22952269.867                    22952280.152
 131222051.529 6 102250954.06542  24970717.352                    24970728.770
 110233167.344 8  85896146.50646  20976656.258                    20976664.207
 123087979.423 6  95912576.59744  23422819.852                    23422829.211
 121316905.536 7  94532806.61744  23085864.453                    23085873.191
 129403177.18215 100833666.87452  24624603.188                    24624613.512
 119509453.133 7  93124249.25745  22741855.258                    22741863.457
 108471402.703 8  84523243.32746  20641386.836                    20641391.723
 110650436.675 8  86221151.01246  21056042.703                    21056050.445
 11  7 28  1 32  0.0000000  0 10G12G05G25G04G27G09G28G17G02G10
 115208597.837 7  89772987.46345  21923461.539                    21923468.488
 120512927.514 7  93906253.20744  22932816.234                    22932825.574
 131117338.051 6 102169359.28542  24950790.133                    24950802.375
 110299595.232 8  85947908.50846  20989297.258                    20989305.098
 123147325.842 6  95958820.51944  23434113.070                    23434123.184
 121387273.922 7  94587639.09844  23099255.383                    23099263.816
 129508104.117 6 100915428.04542  24644571.203                    24644581.215
 119558822.181 7  93162718.63844  22751250.156                    22751257.715
 108455028.550 8  84510484.26046  20638270.828                    20638275.609
 110616737.426 8  86194891.89445  21049629.734                    21049637.535
 11  7 28  1 32 30.0000000  0 10G12G05G25G04G27G09G28G17G02G10
 115134405.489 7  89715175.26445  21909343.031                    21909350.348
 120410855.410 7  93826716.62445  22913393.203                    22913402.047
 131012694.852 6 102087819.18442  24930877.633                    24930889.512
 110366279.268 8  85999870.10446  21001986.969                    21001994.520
 123206859.881 6  96005210.62244  23445442.211                    23445452.082
 121457954.013 7  94642714.46644  23112704.758                    23112714.254
 129613186.226 6 100997310.09642  24664568.188                    24664577.727
 119608325.666 7  93201292.80645  22760670.375                    22760678.793
 108438996.682 8  84497991.90346  20635219.844                    20635225.266
 110583619.038 8  86169085.39046  21043327.609                    21043335.113
 11  7 28  1 33  0.0000000  0 10G12G05G25G04G27G09G28G17G02G10
 115060549.635 7  89657625.26945  21895288.672                    21895296.059
 120308942.960 7  93747304.44645  22893999.609                    22894008.523
 130908124.349 6 102006335.75143  24910978.258                    24910989.762
 110433217.243 8  86052029.56946  21014724.883                    21014732.582
 123266578.958 6  96051744.93944  23456806.703                    23456816.105
 121528942.440 7  94698030.09744  23126213.500                    23126222.727
 129718421.377 6                  24684593.695
 119657963.819 7  93239971.86145  22770116.711                    22770124.891
 108423306.484 8  84485765.78946  20632234.484                    20632239.680
 110551083.173 8  86143732.81046  21037136.344                    21037144.254
 11  7 28  1 33 30.0000000  0 10G12G05G25G04G27G09G28G17G02G10
 114987032.268 7  89600339.04945  21881299.047                    21881306.238
 120207192.591 7  93668018.54845  22874637.469                    22874646.035
 130803628.514 6 101924910.46743  24891093.500                    24891105.598
 110500406.362 8  86104384.74446  21027510.328                    21027518.223
 123326479.872 7  96098420.92044  23468205.578                    23468214.590
 121600235.499 7  94753583.11944  23139780.211                    23139789.391
 129823807.483 6                  24704647.336
 119707736.944 7  93278756.09445  22779588.039                    22779596.078
 108407956.241 8  84473804.57846  20629312.859                    20629318.441
 110519131.099 8  86118835.12545  21031055.953                    21031064.102
 11  7 28  1 34  0.0000000  0 10G12G05G25G04G27G09G28G17G02G10
 114913856.156 7  89543318.71445  21867373.898                    21867380.871
 120105607.527 7  93588861.46845  22855305.938                    22855315.027
 130699209.629 6 101843545.18443  24871223.945                    24871234.898
 110567844.580 8  86156934.01446  21040343.492                    21040350.891
 123386560.208 7  96145236.70544  23479638.289                    23479647.914
 121671830.164 7  94809371.15344  23153404.125                    23153413.406
 129929342.352 6                  24724729.758
 119757645.898 7  93317646.19645  22789085.445                    22789092.758
 108392945.675 8  84462108.05646  20626456.945                    20626461.578
 110487764.616 8  86094393.75646  21025087.023                    21025094.867
 11  7 28  1 34 30.0000000  0 10G12G05G25G04G27G09G28G17G02G10
 114841024.052 7  89486566.47545  21853514.172                    21853521.227
 120004190.747 7  93509835.50945  22836006.992                    22836015.742
 130594870.319 6 101762241.91443  24851368.547                    24851379.762
 110635529.554 8  86209675.54646  21053223.281                    21053231.156
 123446817.025 7  96192190.02244  23491105.188                    23491114.715
 121743722.975 7  94865391.52344  23167085.359                    23167094.395
 130035023.874 6 101326022.03552  24744840.680                    24744849.805
 119807691.024 7  93356642.38045  22798608.102                    22798616.121
 108378273.923 8  84450675.54046  20623664.484                    20623670.145
 110456985.857 8  86070410.34746  21019230.008                    21019238.258
 11  7 28  1 35  0.0000000  0 10G12G05G25G04G27G09G28G17G02G10
 114768538.338 7  89430084.15645  21839720.930                    21839727.883
 119902945.469 7  93430943.20945  22816740.461                    22816749.156
 130490613.060 6 101681002.49343  24831528.641                    24831539.914
 110703459.370 8  86262607.86546  21066149.836                    21066158.191
 123507247.785 7  96239278.88344  23502604.172                    23502613.750
 121815910.631 7  94921641.64844  23180821.672                    23180830.867
 130140850.250 6 101408484.14243  24764979.000                    24764988.383
 119857872.973 7  93395745.19545  22808158.586                    22808166.270
 108363940.505 8  84439506.64646  20620937.156                    20620942.574
 110426796.643 8  86046886.30246  21013485.086                    21013492.922
 11  7 28  1 35 30.0000000  0 10G12G05G25G04G27G09G28G17G02G10
 114696401.453 7  89373873.64245  21825993.555                    21826000.488
 119801874.553 7  93352186.74745  22797506.953                    22797515.754
 130386440.082 6 101599828.78043  24811705.625                    24811716.570
 110771631.422 8  86315728.95246  21079122.523                    21079130.504
 123567849.606 7  96286501.04644  23514136.625                    23514146.344
 121888389.594 7  94978118.73744  23194613.688                    23194623.199
 130246819.118 5 101491057.22742  24785143.273                    24785153.824
 119908192.536 7  93434955.25145  22817733.461                    22817742.215
 108349944.503 8  84428600.67646  20618273.820                    20618279.145
 110397198.061 8  86023822.51846  21007852.258                    21007859.996
 11  7 28  1 36  0.0000000  0 10G12G05G25G04G27G09G28G17G02G10
 114624616.334 7  89317937.23245  21812333.008                    21812340.363
 119700981.239 7  93273568.69645  22778308.016                    22778316.898
 130282354.016 6 101518722.73143  24791898.313                    24791909.227
 110840043.772 8  86369037.27746  21092140.859                    21092148.969
 123628620.098 7  96333854.62044  23525700.813                    23525710.184
 121961156.920 6  95034820.55644  23208461.836                    23208470.391
 130352928.86515 101573739.98052  24805335.297                    24805346.488
 119958650.000 7  93474272.76345  22827334.906                    22827343.746
 108336285.373 8  84417957.22046  20615674.688                    20615680.184
 110368191.921 8  86001220.36446  21002333.250                    21002340.848
 11  7 28  1 36 30.0000000  0  9G12G05G25G04G27G09G17G02G10
 114553185.660 7  89262277.01146  21798740.398                    21798747.594
 119600268.605 7  93195091.41145  22759142.969                    22759151.234
 130178357.404 6 101437686.39843  24772108.625                    24772119.219
 110908694.200 8  86422531.11546  21105205.000                    21105212.809
 123689556.641 6  96381337.61944  23537296.141                    23537306.453
 122034209.383 7  95091744.55944  23222362.813                    23222371.328
 120009246.439 7  93513698.54845  22836963.422                    22836971.367
 108322962.455 8  84407575.74746  20613139.258                    20613144.688
 110339779.992 8  85979081.23346  20996926.719                    20996933.656
 11  7 28  1 37  0.0000000  0 10G12G05G25G04G27G09G28G17G02G10
 114482111.209 7  89206894.37045  21785215.398                    21785222.676
 119499738.883 7  93116756.66845  22740012.336                    22740020.668
 130074452.010 6 101356721.11443  24752335.891                    24752347.020
 110977580.185 8  86476208.50145  21118313.867                    21118321.324
 123750655.791 6  96428947.31544  23548922.930                    23548933.793
 122107542.706 7  95148887.39444  23236317.227                    23236326.254
 130565560.54815 101739432.54152  24845797.992                    24845809.301
 120059981.505 7  93553232.36145  22846618.305                    22846625.391
 108309974.157 8  84397455.00546  20610667.617                    20610673.145
 110311963.102 8  85957405.76446  20991632.781                    20991640.484
 11  7 28  1 37 30.0000000  0 10G12G05G25G04G27G09G28G17G02G10
 114411395.454 7  89151791.23246  21771758.305                    21771765.910
 119399395.175 7  93038566.86445  22720917.758                    22720926.422
 129970640.278 6 101275828.77143  24732581.547                    24732592.313
 111046699.046 7  86530067.35646  21131466.359                    21131474.219
 123811914.740 6  96476681.52043  23560580.711                    23560591.184
 122181153.446 6  95206246.39444  23250325.188                    23250334.352
 130672078.40515 101822433.36952  24866067.063                    24866078.805
 120110855.811 7  93592874.70745  22856299.734                    22856306.441
 108297319.580 8  84387594.30546  20608259.453                    20608264.504
 110284742.798 8  85936195.17046  20986453.023                    20986461.008
 11  7 28  1 38  0.0000000  0 10G12G05G25G04G27G09G28G17G02G10
 114341041.290 7  89096969.82945  21758370.648                    21758377.934
 119299240.583 7  92960524.43045  22701858.359                    22701866.844
 129866924.765 6 101195011.43043  24712845.055                    24712855.988
 111116048.962 8  86584106.24145  21144663.289                    21144671.359
 123873331.251 6  96524538.51944  23572267.383                    23572278.004
 122255038.348 7  95263819.03544  23264385.664                    23264394.188
 130778728.10315 101905536.96452  24886363.703                    24886373.750
 120161870.051 7  93632626.08945  22866006.953                    22866014.961
 108284998.440 8  84377993.46146  20605915.070                    20605920.273
 110258120.754 8  85915450.75046  20981387.070                    20981394.813
 11  7 28  1 38 30.0000000  0 10G12G05G25G04G27G09G28G17G02G10
 114271051.076 7  89042432.01546  21745051.570                    21745059.121
 119199278.278 7  92882631.82945  22682836.500                    22682845.656
 129763308.029 6 101114271.06243  24693126.703                    24693138.383
 111185627.593 8  86638323.34346  21157903.727                    21157911.422
 123934902.299 6  96572515.94543  23583984.273                    23583994.578
 122329194.244 7  95321602.82244  23278496.688                    23278505.523
 130885507.42915 101988741.56652  24906683.211                    24906693.199
 120213024.879 7  93672486.99944  22875740.969                    22875749.281
 108273009.590 8  84368651.53946  20603633.578                    20603639.043
 110232098.351 8  85895173.58946  20976434.680                    20976442.750
 11  7 28  1 39  0.0000000  0 10G12G05G25G04G27G09G28G17G02G10
 114201427.448 7  88988179.85846  21731803.086                    21731810.613
 119099511.081 7  92804891.26045  22663851.820                    22663860.199
 129659792.413 6 101033609.47843  24673429.125                    24673439.680
 111255432.798 8  86692717.00446  21171187.188                    21171195.199
 123996625.216 6  96620611.69343  23595729.617                    23595739.727
 122403617.857 6  95379595.21844  23292658.750                    23292667.953
 130992414.372 6 102072045.56242  24927026.664                    24927037.121
 120264320.812 7  93712457.86444  22885502.008                    22885510.313
 108261352.432 8  84359568.10346  20601415.453                    20601420.742
 110206676.926 8  85875364.72146  20971597.320                    20971605.133
 11  7 28  1 39 30.0000000  0 10G12G05G25G04G27G09G28G17G02G10
 114132173.071 8  88934215.45046  21718623.922                    21718631.711
 118999942.044 7  92727305.10845  22644903.906                    22644912.430
 129556380.471 6 100953028.71043  24653750.031                    24653761.047
 111325462.416 8  86747285.52245  21184513.125                    21184521.383
 124058497.172 6  96668823.59444  23607503.164                    23607513.484
 122478305.688 6  95437793.50544  23306871.438                    23306880.762
 131099446.833 6 102155447.49142  24947394.031                    24947404.523
 120315758.143 7  93752538.88644  22895291.250                    22895298.770
 108250025.859 8  84350742.23346  20599259.914                    20599265.301
 110181858.009 8  85856025.34246  20966874.867                    20966881.969
 11  7 28  1 40  0.0000000  0 10G12G05G25G04G27G09G28G17G02G10
 114063290.378 7  88880540.65946  21705516.305                    21705523.539
 118900574.250 7  92649875.75745  22625994.836                    22626003.387
 129453074.900 6 100872530.87843  24634091.563                    24634102.820
 111395714.145 7  86802027.11546  21197882.031                    21197889.445
 124120515.614 6  96717149.60143  23619305.672                    23619315.496
 122553254.233 6  95496194.93444  23321133.711                    23321142.559
 131206602.743 5                  24967784.953
 120367337.582 7  93792730.67544  22905105.609                    22905113.227
 108239029.209 8  84342173.44246  20597167.266                    20597172.438
 110157642.929 8  85837156.47446  20962266.352                    20962273.793
 11  7 28  1 40 30.0000000  0 10G12G05G25G04G27G09G28G17G02G10
 113994781.454 7  88827157.10546  21692479.609                    21692486.699
 118801410.530 7  92572605.40945  22607125.008                    22607132.609
 129349877.798 6 100792117.62343  24614454.430                    24614465.012
 111466185.723 8  86856940.02645  21211292.047                    21211300.313
 124182677.609 6  96765587.52144  23631134.805                    23631144.559
 122628459.828 6  95554796.67144  23335444.992                    23335454.156
 131313880.274 6                  24988200.000
 120419059.725 6  93833033.65844  22914948.156                    22914955.969
 108228361.489 8  84333860.96046  20595137.523                    20595142.516
 110134033.069 8  85818759.21446  20957773.656                    20957781.457
 11  7 28  1 41  0.0000000  0 10G12G05G25G04G27G09G28G17G02G10
 113926648.950 7  88774066.87445  21679514.000                    21679521.547
 118702453.758 7  92495496.32145  22588293.961                    22588302.094
 129246791.348 6 100711790.58643  24594836.938                    24594848.578
 111536874.635 7  86912022.29146  21224743.500                    21224751.641
 124244980.158 7  96814134.94144  23642990.617                    23643000.242
 122703919.070 7  95613596.04744  23349804.906                    23349812.973
 131421276.595 5 102406222.63152  25008636.898                    25008645.773
 120470924.762 6  93873447.97644  22924817.109                    22924826.328
 108218021.277 8  84325803.67746  20593169.453                    20593174.426
 110111029.726 8  85800834.56046  20953395.758                    20953404.070
 11  7 28  1 41 30.0000000  0 10G12G05G25G04G27G09G28G17G02G10
 113858895.631 7  88721272.12046  21666621.141                    21666628.285
 118603706.800 7  92418550.72545  22569502.430                    22569510.617
 129143818.516 6 100631552.07943  24575242.219                    24575253.473
 111607779.266 7  86967272.64345  21238236.281                    21238243.992
 124307420.881 7  96862790.04844  23654872.695                    23654881.770
 122779629.009 6  95672590.79144  23364212.305                    23364221.105
 131528789.895 5 102489999.12142  25029095.719                    25029105.574
 120522933.532 7  93913974.29244  22934714.672                    22934722.910
 108208008.631 8  84318001.64646  20591264.117                    20591269.406
 110088634.062 8  85783383.43046  20949134.523                    20949142.012
 11  7 28  1 42  0.0000000  0 10G12G05G25G04G27G09G28G17G02G10
 113791523.739 7  88668774.59546  21653800.586                    21653808.047
 118505172.803 7  92341771.08145  22550752.180                    22550760.496
 129040961.675 6 100551404.01143  24555668.820                    24555680.543
 111678897.112 7  87022689.13645  21251769.406                    21251777.445
 124369997.093 7  96911550.72243  23666780.086                    23666790.039
 122855586.022 7  95731778.04344  23378666.000                    23378674.668
 131636417.815 5 102573864.85942  25049576.250                    25049586.578
 120575086.450 7  93954612.89444  22944638.969                    22944647.305
 108198322.315 8  84310453.90346  20589420.664                    20589426.262
 110066847.441 8  85766406.87546  20944988.414                    20944996.000
 11  7 28  1 42 30.0000000  0 10G12G05G25G04G27G09G28G17G02G10
 113724535.732 7  88616576.20445  21641053.281                    21641060.164
 118406854.999 7  92265159.89645  22532043.000                    22532051.016
 128938223.169 6 100471348.14143  24536118.195                    24536130.250
 111750226.000 8  87078270.08645  21265343.203                    21265351.059
 124432705.703 6  96960414.50343  23678713.555                    23678723.094
 122931786.481 7  95791154.97944  23393166.320                    23393175.367
 131744158.483 5 102657818.58942  25070079.023                    25070090.070
 120627384.183 7  93995364.37744  22954591.672                    22954598.797
 108188961.299 8  84303159.63246  20587639.266                    20587644.258
 110045670.871 8  85749905.68946  20940958.609                    20940966.238
 11  7 28  1 43  0.0000000  0 10G12G05G25G04G27G09G28G17G02G10
 113657934.125 7  88564678.90546  21628379.219                    21628386.570
 118308756.218 7  92188719.36645  22513374.922                    22513383.609
 128835605.490 6 100391386.39344  24516590.617                    24516602.758
 111821763.659 7  87134013.69245  21278956.258                    21278964.453
 124495543.971 6  97009379.36544  23690670.531                    23690681.332
 123008227.187 7  95850719.15644  23407712.508                    23407721.586
 131852009.889 5 102741858.56442  25090602.852                    25090613.273
 120679826.916 7  94036228.87844  22964570.352                    22964578.914
 108179924.727 8  84296118.18146  20585919.852                    20585924.688
 110025105.602 8  85733880.83446  20937045.414                    20937053.258
 11  7 28  1 43 30.0000000  0 10G12G05G25G04G27G09G28G17G02G10
 113591721.318 7  88513084.57245  21615779.289                    21615786.445
 118210879.550 7  92112451.92545  22494749.797                    22494758.488
 128733111.390 6 100311520.96144  24497087.039                    24497098.617
 111893508.189 7  87189918.53445  21292608.875                    21292616.719
 124558509.354 6  97058443.25144  23702653.109                    23702663.398
 123084905.037 7  95910468.09444  23422304.055                    23422312.207
 131959969.814 5                  25111147.875
 120732415.562 7  94077207.03444  22974578.172                    22974585.875
 108171212.049 8  84289329.11146  20584262.016                    20584267.191
 110005153.079 8  85718333.45146  20933248.469                    20933256.184
 11  7 28  1 44  0.0000000  0 10G12G05G25G04G27G09G28G17G02G10
 113525900.064 7  88461795.33646  21603254.125                    21603260.938
 118113227.842 7  92036359.76745  22476167.281                    22476175.750
 128630743.006 6 100231753.46744  24477607.242                    24477618.773
 111965457.197 8  87245982.68345  21306299.945                    21306308.188
 124621598.839 6  97107603.84344  23714658.891                    23714668.699
 123161816.077 6  95970398.73544  23436938.719                    23436948.805
 132068036.226 5                  25131711.625
 120785150.311 7  94118299.07044  22984613.078                    22984620.508
 108162821.851 8  84282791.31646  20582665.023                    20582670.293
 109985814.249 8  85703264.26546  20929568.164                    20929575.898
 11  7 28  1 44 30.0000000  0 10G12G05G25G04G27G09G28G17G02G10
 113460472.699 8  88410813.03846  21590803.563                    21590810.508
 118015804.227 7  91960445.36545  22457628.063                    22457636.984
 128528503.166 6 100152086.14244  24458151.555                    24458162.578
 112037608.608 7  87302204.54845  21320030.195                    21320038.418
 124684809.808 6  97156859.08344  23726687.672                    23726697.422
 123238957.262 7  96030508.70844  23451619.484                    23451627.816
 132176206.90715                  25152295.797
 120838031.934 7  94159505.53244  22994676.070                    22994683.746
 108154753.517 8  84276504.32646  20581129.719                    20581134.676
 109967090.530 8  85688674.37946  20926005.094                    20926013.117
 11  7 28  1 45  0.0000000  0 10G12G05G25G04G27G09G28G17G02G10
 113395441.823 7  88360139.69346  21578428.719                    21578435.352
 117918611.461 7  91884710.82645  22439132.914                    22439141.770
 128426394.153 6 100072520.78843  24438720.727                    24438732.168
 112109960.087 7  87358582.30945  21333797.859                    21333806.066
 124748139.326 6  97206206.69943  23738737.930                    23738748.285
 123316324.870 7  96090795.11744  23466342.258                    23466351.102
 132284479.982 5                  25172899.219
 120891060.839 7  94200826.77444  23004766.719                    23004774.414
 108147005.870 8  84270467.22946  20579655.297                    20579660.727
 109948982.729 8  85674564.42246  20922559.578                    20922567.285
 11  7 28  1 45 30.0000000  0  9G12G05G25G04G27G09G17G02G10
 113330809.435 7  88309776.85746  21566129.141                    21566136.059
 117821652.539 7  91809158.49945  22420682.188                    22420690.570
 128324418.425 6  99993059.23843  24419315.063                    24419326.316
 112182509.486 7  87415114.29045  21347604.266                    21347612.500
 124811584.730 6  97255644.63343  23750811.766                    23750821.961
 123393915.460 7  96151255.30144  23481106.875                    23481116.098
 120944237.628 7  94242263.24144  23014886.195                    23014894.094
 108139578.003 8  84264679.30046  20578241.891                    20578247.121
 109931491.903 8  85660935.23446  20919231.219                    20919238.555
 11  7 28  1 46  0.0000000  0  9G12G05G25G04G27G09G17G02G10
 113266578.710 7  88259726.99046  21553906.516                    21553913.141
 117724931.123 7  91733791.24445  22402277.125                    22402285.277
 128222579.267 6  99913704.14443  24399935.438                    24399947.008
 112255255.413 8  87471799.42245  21361447.094                    21361455.301
 124875144.018 6  97305171.27644  23762906.477                    23762917.145
 123471726.219 7  96211887.04144  23495914.188                    23495923.098
 120997563.339 7  94283815.71244  23025034.055                    23025041.355
 108132469.765 8  84259140.43546  20576889.313                    20576894.566
 109914619.444 8  85647787.90546  20916020.273                    20916028.133
 11  7 28  1 46 30.0000000  0  9G12G05G25G04G27G09G17G02G10
 113202751.624 7  88209991.64046  21541760.656                    21541767.324
 117628449.586 7  91658610.90945  22383916.727                    22383925.172
 128120878.752 6  99834457.00243  24380583.242                    24380593.781
 112328195.391 8  87528635.75445  21375327.336                    21375335.168
 124938813.881 6  97354784.08744  23775022.898                    23775033.688
 123549753.483 7  96272687.46044  23510761.172                    23510770.637
 121051038.072 7  94325484.36144  23035209.820                    23035216.914
 108125679.770 8  84253849.55546  20575597.047                    20575602.301
 109898366.107 7  85635123.00046  20912927.367                    20912934.992
 11  7 28  1 47  0.0000000  0  9G12G05G25G04G27G09G17G02G10
 113139330.193 7  88160572.39246  21529691.813                    21529698.930
 117532210.599 7  91583619.57745  22365602.906                    22365611.133
 128019319.049 6  99755319.60343  24361256.617                    24361267.309
 112401326.728 8  87585621.20445  21389243.672                    21389251.430
 125002591.170 6  97404480.61643  23787159.031                    23787170.078
 123627993.303 6  96333653.52044  23525650.742                    23525659.672
 121104661.975 7  94367269.22044  23045413.906                    23045421.363
 108119206.566 8  84248805.52346  20574365.445                    20574370.688
 109882732.613 7  85622941.08146  20909952.398                    20909960.156
 11  7 28  1 47 30.0000000  0  9G12G05G25G04G27G09G17G02G10
 113076316.804 7  88111471.08046  21517700.945                    21517707.805
 117436217.242 7  91508819.63745  22347336.164                    22347344.309
 127917902.690 6  99676293.87343  24341957.852                    24341968.164
 112474647.291 7  87642754.10845  21403196.102                    21403203.965
 125066473.186 6  97454258.74744  23799315.492                    23799326.012
 123706442.373 6  96394782.66244  23540578.797                    23540588.035
 121158435.313 7  94409170.56044  23055647.094                    23055654.109
 108113049.061 8  84244007.49846  20573193.672                    20573198.520
 109867719.740 7  85611242.77646  20907095.531                    20907103.707
 11  7 28  1 48  0.0000000  0  9G12G05G25G04G27G09G17G02G10
 113013714.177 7  88062689.85646  21505788.086                    21505795.285
 117340472.165 7  91434213.15845  22329116.617                    22329124.816
 127816632.469 6  99597382.15543  24322687.102                    24322697.145
 112548155.163 8  87700032.97645  21417183.859                    21417192.070
 125130457.021 6  97504116.20243  23811491.172                    23811501.887
 123785096.988 6  96456071.96544  23555545.609                    23555555.770
 121212358.803 7  94451188.88545  23065908.031                    23065916.340
 108107206.428 8  84239454.83046  20572081.859                    20572086.691
 109853328.480 8  85600028.83746  20904357.055                    20904364.695
 11  7 28  1 48 30.0000000  0  9G12G05G25G04G27G09G17G02G10
 112951524.561 8  88014230.43346  21493953.672                    21493960.859
 117244979.068 7  91359803.03945  22310944.781                    22310952.633
 127715510.960 7  99518586.25543  24303444.164                    24303454.125
 112621848.204 7  87757456.12545  21431207.438                    21431215.520
 125194540.427 6  97554051.25043  23823686.047                    23823695.922
 123863954.056 6  96517519.02243  23570551.711                    23570561.098
 121266433.185 7  94493324.73845  23076197.383                    23076206.250
 108101678.304 8  84235147.22546  20571029.617                    20571035.094
 109839560.152 8  85589300.30846  20901737.023                    20901744.934
 11  7 28  1 49  0.0000000  0  9G12G05G25G04G27G09G17G02G10
 112889750.211 7  87966094.58746  21482197.961                    21482205.840
 117149740.222 7  91285591.02845  22292821.281                    22292829.512
 127614540.254 7  99439907.77543  24284229.531                    24284239.852
 112695724.264 7  87815021.90045  21445265.336                    21445273.430
 125258720.126 6  97604061.36743  23835899.492                    23835909.488
 123943010.033 6  96579121.04843  23585595.281                    23585605.195
 121320658.931 7  94535578.57845  23086516.656                    23086524.762
 108096463.088 8  84231083.45146  20570037.445                    20570042.270
 109826415.057 8  85579057.40346  20899235.313                    20899242.813
 11  7 28  1 49 30.0000000  0  9G12G05G25G04G27G09G17G02G10
 112828393.296 8  87918284.01546  21470522.477                    21470529.766
 117054758.797 7  91211579.61145  22274746.867                    22274755.094
 127513723.286 6  99361349.09043  24265045.328                    24265055.152
 112769781.024 8  87872728.46345  21459357.891                    21459365.820
 125322993.445 6  97654144.40743  23848129.938                    23848140.609
 124022261.557 6  96640875.43443  23600677.383                    23600685.934
 121375036.426 7  94577950.65345  23096864.805                    23096872.230
 108091559.805 8  84227262.72846  20569103.961                    20569109.273
 109813894.276 8  85569300.97546  20896853.031                    20896860.652
 11  7 28  1 50  0.0000000  0  9G12G05G25G04G27G09G17G02G10
 112767456.702 8  87870800.97846  21458926.648                    21458933.555
 116960037.964 7  91137771.25345  22256721.945                    22256730.367
 127413062.744 6  99282912.34443  24245889.664                    24245900.008
 112844016.888 8  87930574.60245  21473484.891                    21473492.426
 125387357.947 6  97704298.54043  23860378.133                    23860388.461
 124101705.443 6  96702779.75743  23615794.539                    23615804.156
 121429566.082 7  94620441.30944  23107240.914                    23107248.828
 108086967.798 8  84223684.55746  20568230.516                    20568235.680
 109801998.879 8  85560031.86646  20894589.344                    20894597.020
 11  7 28  1 50 30.0000000  0  9G12G05G25G04G27G09G17G02G10
 112706942.382 8  87823646.97446  21447411.141                    21447418.105
 116865580.327 7  91064167.98745  22238746.813                    22238754.988
 127312560.710 6  99204599.09143  24226764.594                    24226775.348
 112918429.274 8  87988558.29445  21487644.453                    21487652.602
 125451810.340 6  97754521.13243  23872643.531                    23872653.332
 124181337.880 6  96764831.00043  23630948.430                    23630957.609
 121484248.124 7  94663050.72244  23117646.313                    23117653.738
 108082685.241 8  84220347.52446  20567415.523                    20567420.359
 109790728.867 8  85551250.07746  20892444.641                    20892452.309
 11  7 28  1 51  0.0000000  0  9G12G05G25G04G27G09G17G02G10
 112646853.342 8  87776824.35946  21435976.648                    21435983.805
 116771389.082 7  90990772.29345  22220822.930                    22220831.230
 127212220.211 6  99126411.71343  24207670.289                    24207681.523
 112993016.325 8  88046678.08145  21501837.992                    21501846.125
 125516348.247 6  97804810.35243  23884924.328                    23884935.090
 124261155.794 6  96827026.77943  23646135.969                    23646145.637
 121539083.676 7  94705779.72144  23128081.570                    23128088.922
 108078712.203 8  84217251.66346  20566659.258                    20566664.543
 109780085.562 8  85542956.62546  20890419.180                    20890426.621
 11  7 28  1 51 30.0000000  0  9G12G05G25G04G27G09G17G02G10
 112587191.434 8  87730334.57446  21424623.016                    21424630.266
 116677467.031 7  90917586.35945  22202949.883                    22202957.883
 127112043.613 6  99048352.06843  24188606.930                    24188618.609
 113067775.935 8  88104932.32645  21516064.617                    21516072.375
 125580968.861 6  97855164.04543  23897220.922                    23897231.672
 124341155.687 7  96889364.36343  23661360.680                    23661369.297
 121594073.051 7  94748628.55844  23138545.609                    23138553.996
 108075047.417 8  84214396.01246  20565962.078                    20565967.035
 109770069.480 8  85535151.91346  20888513.539                    20888520.797
 11  7 28  1 52  0.0000000  0  9G12G05G25G04G27G09G17G02G10
 112527959.079 8  87684179.51746  21413351.648                    21413358.727
 116583817.174 7  90844612.52845  22185129.188                    22185137.105
 127012033.679 6  98970422.24143  24169576.641                    24169587.223
 113142706.185 8  88163319.54445  21530323.609                    21530331.453
 125645669.294 6  97905579.93543  23909533.305                    23909543.609
 124421333.852 7  96951840.84043  23676618.898                    23676626.262
 121649216.820 7  94791597.74045  23149039.672                    23149046.652
 108071689.851 8  84211779.74546  20565323.031                    20565328.324
 109760681.533 8  85527836.66446  20886726.680                    20886734.113
 11  7 28  1 52 30.0000000  0  9G12G05G25G04G27G09G17G02G10
 112469158.347 8  87638360.78946  21402162.680                    21402168.914
 116490441.953 7  90771852.68545  22167360.734                    22167368.289
 126912192.789 6  98892624.18943  24150577.336                    24150588.305
 113217804.566 8  88221837.77645  21544613.867                    21544621.785
 125710446.797 6  97956055.89243  23921860.273                    23921870.242
 124501686.909 6  97014453.60343  23691908.875                    23691917.875
 121704514.833 7  94834687.11044  23159562.508                    23159570.211
 108068637.814 8  84209401.56146  20564742.141                    20564747.063
 109751921.597 8  85521010.76246  20885059.617                    20885067.340
 11  7 28  1 53  0.0000000  0  9G12G05G25G04G27G09G17G02G10
 112410791.586 8  87592880.21846  21391055.500                    21391061.906
 116397344.781 7  90699309.51545  22149644.570                    22149652.246
 126812523.677 6  98814959.95943  24131610.945                    24131622.285
 113293069.515 8  88280485.78545  21558936.258                    21558943.961
 125775298.647 6  98006589.77343  23934200.250                    23934210.547
 124582211.611 7  97077200.09544  23707232.586                    23707241.035
 121759967.898 6  94877897.31244  23170114.594                    23170121.520
 108065890.868 8  84207261.09546  20564219.648                    20564224.477
 109743790.762 7  85514675.09046  20883512.445                    20883520.156
 11  7 28  1 53 30.0000000  0  9G12G05G25G04G27G09G17G02G10
 112352860.986 8  87547739.52046  21380031.844                    21380038.504
 116304528.512 7  90626985.23345  22131982.289                    22131990.090
 126713028.925 6  98737431.67043  24112676.867                    24112688.586
 113368498.737 8  88339261.81645  21573290.336                    21573297.742
 125840222.006 6  98057179.35943  23946555.133                    23946565.980
 124662904.390 6  97140077.59643  23722587.063                    23722596.766
 121815576.622 6  94921228.80344  23180696.328                    23180703.055
 108063447.974 8  84205357.56146  20563754.484                    20563759.816
 109736289.838 7  85508830.24646  20882085.125                    20882092.793
 11  7 28  1 54  0.0000000  0  9G12G05G25G04G27G09G17G02G10
 112295369.035 8  87502940.62146  21369091.273                    21369098.043
 116211995.751 7  90554881.85945  22114373.344                    22114381.984
 126613711.114 6  98660041.25443  24093778.180                    24093788.746
 113444090.188 8  88398164.25245  21587674.906                    21587682.410
 125905213.995 6  98107822.39343  23958923.078                    23958933.484
 124743761.980 6  97203083.47743  23737974.352                    23737983.633
 121871341.430 6  94964681.90444  23191308.102                    23191315.730
 108061307.744 8  84203689.85946  20563347.469                    20563352.207
 109729419.337 7  85503476.63146  20880777.445                    20880784.945
 11  7 28  1 54 30.0000000  0  9G12G05G25G04G27G09G17G02G10
 112238318.035 8  87458485.33046  21358234.656                    21358241.781
 116119749.932 7  90483002.08845  22096819.820                    22096827.590
 126514572.928 6  98582790.81243  24074912.375                    24074923.438
 113519841.886 8  88457191.56045  21602089.781                    21602097.828
 125970271.919 6  98158516.84743  23971303.016                    23971313.641
 124824780.950 6  97266215.12143  23753391.945                    23753400.969
 121927262.669 6  95008256.88244  23201949.273                    23201957.785
 108059469.488 8  84202257.47846  20562997.367                    20563002.609
 109723179.597 7  85498614.52746  20879590.164                    20879597.277
 11  7 28  1 55  0.0000000  0  9G12G05G25G04G27G09G17G02G10
 112181710.035 8  87414375.23246  21347462.563                    21347469.672
 116027793.717 7  90411347.97645  22079320.906                    22079328.750
 126415616.877 6  98505682.33043  24056081.383                    24056092.582
 113595751.995 8  88516342.29445  21616535.055                    21616543.121
 126035393.283 6  98209260.70643  23983696.031                    23983706.602
 124905957.737 6  97329469.71444  23768838.992                    23768848.590
 121983340.902 6  95051954.20644  23212619.875                    23212629.598
 108057932.163 8  84201059.58146  20562705.055                    20562710.484
 109717571.057 7  85494244.27146  20878523.008                    20878530.594
 11  7 28  1 55 30.0000000  0  9G12G05G25G04G27G09G17G02G10
 112125547.420 8  87370612.18546  21336775.500                    21336782.492
 115936129.929 7  90339921.71545  22061877.836                    22061885.754
 126316845.675 6  98428717.90544  24037285.680                    24037296.844
 113671818.303 8  88575614.74745  21631010.156                    21631018.301
 126100575.256 6  98260051.78543  23996098.953                    23996110.164
 124987289.177 6  97392844.82343  23784315.430                    23784325.176
 122039576.661 6  95095774.26644  23223320.602                    23223330.238
 108056694.774 8  84200095.39646  20562469.461                    20562474.867
 109712594.413 7  85490366.39046  20877575.977                    20877583.590
 11  7 28  1 56  0.0000000  0  9G12G05G25G04G27G09G17G02G10
 112069832.836 8  87327198.25846  21326173.094                    21326179.805
 115844761.795 7  90268725.84645  22044491.500                    22044498.746
 126218262.018 6  98351899.62744  24018526.008                    24018536.637
 113748038.979 8  88635007.49045  21645514.203                    21645522.035
 126165815.185 6  98310887.99543  24008514.359                    24008524.664
 125068771.702 6  97456337.66543  23799821.852                    23799830.520
 122095970.449 6  95139717.45144  23234053.156                    23234061.695
 108055756.320 8  84199364.13846  20562291.211                    20562295.789
 109708250.439 7  85486981.50546  20876749.094                    20876757.086
 11  7 28  1 56 30.0000000  0  9G12G05G25G04G27G09G17G02G10
 112014567.847 8  87284134.67546  21315656.266                    21315663.172
 115753691.819 7  90197762.30645  22027160.859                    22027168.637
 126119868.299 6  98275229.33944  23999802.102                    23999813.133
 113824411.745 8  88694518.74845  21660047.953                    21660055.773
 126231109.946 6  98361766.96343  24020939.305                    24020950.398
 125150401.755 6  97519945.44943  23815355.828                    23815364.152
 122152522.581 6  95183784.07344  23244814.789                    23244822.262
 108055115.276 7  84198864.64946  20562168.969                    20562174.254
 109704538.719 7  85484089.28646  20876042.852                    20876049.961
 11  7 28  1 57  0.0000000  0  9G12G05G25G04G27G09G17G02G10
 111959755.155 8  87241423.51046  21305225.828                    21305232.766
 115662922.723 7  90127033.20645  22009888.172                    22009895.824
 126021667.147 6  98198709.11043  23981115.047                    23981125.883
 113900934.753 8  88754147.07145  21674609.242                    21674617.520
 126296456.900 6  98412686.56243  24033374.805                    24033384.789
 125232176.359 6  97583665.86643  23830916.430                    23830925.340
 122209233.396 6  95227974.35144  23255607.328                    23255614.695
 108054770.782 8  84198596.22346  20562103.695                    20562108.621
 109701459.815 7  85481690.16146  20875456.938                    20875464.520
 11  7 28  1 57 30.0000000  0  9G12G05G25G04G27G09G17G02G10
 111905396.755 8  87199066.34646  21294881.773                    21294888.613
 115572457.765 7  90056541.08645  21992673.242                    21992681.230
 125923661.331 7  98122341.08943  23962465.156                    23962475.609
 113977605.975 7  88813890.88345  21689199.133                    21689207.078
 126361853.326 6  98463644.71043  24045818.336                    24045830.008
 125314091.976 6  97647496.20043  23846504.234                    23846513.840
 122266103.442 6  95272288.67844  23266429.078                    23266437.469
 108054721.898 8  84198558.15546  20562093.719                    20562099.133
 109699014.115 7  85479784.45046  20874991.602                    20874998.781
 11  7 28  1 58  0.0000000  0  9G12G05G25G04G27G09G17G02G10
 111851494.494 8  87157064.62046  21284624.477                    21284631.422
 115482299.867 7  89986288.24945  21975516.594                    21975524.387
 125825853.377 7  98046127.23844  23943852.539                    23943863.152
 114054423.438 8  88873748.66745  21703817.023                    21703824.762
 126427296.545 6  98514639.34243  24058272.477                    24058283.844
 125396144.948 6  97711433.52443  23862118.344                    23862128.770
 122323133.342 6  95316727.54444  23277281.133                    23277290.016
 108054967.697 8  84198749.70646  20562140.891                    20562145.852
 109697202.233 7  85478372.62346  20874647.125                    20874654.242
 11  7 28  1 58 30.0000000  0  9G12G05G25G04G27G09G17G02G10
 111798050.963 8  87115420.33146  21274454.367                    21274461.023
 115392451.629 7  89916276.71046  21958419.109                    21958427.184
 125728245.881 7  97970069.54544  23925278.141                    23925289.043
 114131385.222 8  88933718.89345  21718462.367                    21718470.113
 126492783.757 6  98565668.21543  24070735.289                    24070745.219
 125478332.264 6  97775475.48143  23877757.813                    23877767.992
 122380323.492 6  95361291.25944  23288163.688                    23288172.090
 108055506.965 8  84199169.92546  20562243.539                    20562248.375
 109696024.565 7  85477455.00446  20874422.484                    20874430.211
 11  7 28  1 59  0.0000000  0  9G12G05G25G04G27G09G17G02G10
 111745068.463 8  87074135.28446  21264372.234                    21264378.813
 115302916.074 7  89846508.81045  21941381.359                    21941389.293
 125630841.685 7  97894170.24843  23906743.172                    23906753.617
 114208489.464 7  88993800.11845  21733134.969                    21733142.531
 126558312.400 6  98616729.43043  24083204.773                    24083214.941
 125560650.719 6  97839619.64343  23893423.063                    23893432.945
 122437674.160 6  95405980.06744  23299078.242                    23299085.078
 108056338.777 8  84199818.10846  20562401.602                    20562406.301
 109695481.215 7  85477031.63246  20874319.117                    20874326.355
 11  7 28  1 59 30.0000000  0  9G12G05G25G04G27G09G17G02G10
 111692548.880 8  87033210.95846  21254378.188                    21254384.992
 115213695.784 7  89776986.58545  21924402.859                    21924411.188
 125533643.158 6  97818431.18544  23888246.773                    23888256.543
 114285734.094 8  89053990.74545  21747834.516                    21747842.004
 126623879.689 6  98667820.73543  24095682.031                    24095691.770
 125643096.328 6  97903862.92743  23909113.156                    23909121.617
 122495185.760 7  95450794.32944  23310022.117                    23310028.926
 108057461.619 8  84200693.08146  20562615.555                    20562620.242
 109695572.217 7  85477102.56946  20874336.453                    20874343.859
 11  7 28  2  0  0.0000000  0  9G12G05G25G04G27G09G17G02G10
 111640494.755 8  86992649.31746  21244472.875                    21244479.281
 115124793.710 7  89707712.31445  21907484.914                    21907493.555
 125436653.062 7  97742854.53843  23869790.094                    23869800.160
 114363117.088 7  89114289.19245  21762559.602                    21762567.203
 126689482.952 6  98718940.08343  24108165.930                    24108176.188
 125725665.910 6  97968202.78343  23924824.469                    23924834.117
 122552858.918 7  95495734.46544  23320996.797                    23321004.328
 108058874.757 8  84201794.26446  20562884.430                    20562889.316
 109696297.776 7  85477667.96846  20874474.602                    20874481.789
 11  7 28  2  0 30.0000000  0  9G12G05G25G04G27G09G17G02G10
 111588907.757 8  86952451.67046  21234655.906                    21234662.137
 115036212.910 7  89638688.37945  21890628.352                    21890636.953
 125339874.087 6  97667442.34643  23851372.992                    23851384.031
 114440636.737 7  89174694.11845  21777310.539                    21777318.867
 126755119.295 6  98770085.22943  24120655.516                    24120666.258
 125808356.243 6  98032636.74843  23940559.922                    23940569.773
 122610693.821 6  95540800.61344  23332001.547                    23332010.168
 108060577.192 8  84203120.86246  20563208.289                    20563213.078
 109697657.974 8  85478727.88246  20874733.078                    20874740.547
 11  7 28  2  1  0.0000000  0  9G12G05G25G04G27G09G17G02G10
 111537789.540 8  86912619.29746  21224928.242                    21224935.164
 114947955.786 7  89569916.66245  21873834.289                    21873842.133
 125243308.572 6  97592196.52843  23832997.578                    23833008.680
 114518290.794 8  89235203.77445  21792087.961                    21792096.066
 126820785.649 6  98821253.76043  24133150.977                    24133162.469
 125891163.543 6  98097161.92244  23956317.805                    23956327.438
 122668691.099 6  95585993.24244  23343038.094                    23343046.969
 108062567.133 8  84204671.48546  20563586.977                    20563591.941
 109699652.898 7  85480282.41046  20875113.008                    20875120.258
 11  7 28  2  1 30.0000000  0  9G12G05G25G04G27G09G17G02G10
 111487143.151 8  86873154.59446  21215290.594                    21215297.328
 114860025.230 7  89501399.40845  21857101.125                    21857109.219
 125146959.552 6  97517119.37544  23814663.461                    23814673.449
 114596077.690 7  89295816.91945  21806891.031                    21806898.680
 126886479.784 6  98872443.91843  24145652.766                    24145662.797
 125974085.072 6  98161776.02143  23972097.414                    23972106.645
 122726850.897 7  95631312.53244  23354106.430                    23354114.430
 108064844.284 8  84206445.91246  20564020.281                    20564025.195
 109702283.018 8  85482331.87145  20875613.383                    20875620.941
 11  7 28  2  2  0.0000000  0  9G12G05G25G04G27G09G17G02G10
 111436970.062 8  86834058.70046  21205743.000                    21205749.875
 114772424.371 7  89433139.06145  21840431.570                    21840438.938
 125050829.512 6  97442212.84144  23796370.094                    23796380.555
 114673995.138 7  89356531.81445  21821718.094                    21821726.051
 126952198.781 6  98923653.47942  24158158.172                    24158168.508
 126057117.044 6  98226476.20843  23987897.813                    23987907.344
 122785173.763 7  95676758.92644  23365205.305                    23365212.395
 108067406.995 8  84208442.86646  20564507.422                    20564512.711
 109705548.175 7  85484876.18346  20876234.383                    20876241.527
 11  7 28  2  2 30.0000000  0  9G12G05G25G04G27G09G17G02G10
 111387272.548 8  86795333.37246  21196285.914                    21196292.828
 114685156.020 7  89365137.81445  21823825.016                    21823832.367
 124954921.070 6  97367479.00644  23778120.016                    23778130.297
 114752041.508 7  89417347.15745  21836569.555                    21836577.453
 127017939.965 5  98974880.40142  24170668.695                    24170678.980
 126140256.144 6  98291259.87243  24003718.984                    24003728.168
 122843660.110 7  95722332.72244  23376334.313                    23376341.883
 108070254.470 8  84210661.70846  20565049.445                    20565054.711
 109709448.544 8  85487915.44046  20876977.000                    20876984.512
 11  7 28  2  3  0.0000000  0 10G12G05G25G29G04G27G09G17G02G10
 111338052.924 8  86756980.44246  21186919.781                    21186926.664
 114598222.979 7  89297397.85245  21807282.195                    21807289.313
 124859237.260 6  97292920.20043  23759911.039                    23759921.707
 135018184.35915 105208888.33252  25693078.234                    25693085.039
 114830215.013 7  89478261.58245  21851445.664                    21851453.582
 127083700.819 5  99026122.52342  24183183.078                    24183193.973
 126223499.081 7  98356124.47643  24019559.344                    24019568.645
 122902310.647 6  95768034.47144  23387494.781                    23387502.953
 108073385.621 8  84213101.59846  20565645.719                    20565650.332
 109713984.127 8  85491449.70346  20877839.734                    20877847.266
 11  7 28  2  3 30.0000000  0 10G12G05G25G29G04G27G09G17G02G10
 111289313.119 8  86719001.38446  21177645.031                    21177651.727
 114511628.054 7  89229921.34246  21790803.492                    21790810.727
 124763780.746 6  97218538.52644  23741746.648                    23741757.547
 134943583.140 6 105150757.66042  25678881.414                    25678890.852
 114908513.849 7  89539273.65445  21866345.688                    21866353.012
 127149478.674 5  99077377.92252  24195699.586                    24195711.758
 126306842.663 7  98421067.52543  24035419.773                    24035428.117
 122961126.079 6  95813864.65844  23398686.797                    23398695.910
 108076799.584 8  84215761.85446  20566294.742                    20566300.012
 109719155.241 7  85495479.16146  20878823.797                    20878831.402
 11  7 28  2  4  0.0000000  0 10G12G05G25G29G04G27G09G17G02G10
 111241055.495 8  86681398.05346  21168461.477                    21168468.441
 114425373.941 7  89162710.41446  21774390.234                    21774397.340
 124668553.962 7  97144335.87544  23723625.242                    23723636.480
 134868899.536 5 105092562.69342  25664669.219                    25664679.141
 114986935.858 8  89600381.69945  21881268.984                    21881276.371
 127215270.58515                  24208219.453
 126390283.536 7  98486086.35444  24051298.070                    24051306.355
 123020105.886 7  95859822.93944  23409910.711                    23409919.457
 108080494.934 8  84218641.36646  20566998.133                    20567003.176
 109724961.344 7  85500003.42146  20879928.508                    20879936.180
 11  7 28  2  4 30.0000000  0 10G12G05G25G29G04G27G09G17G02G10
 111193281.238 8  86644171.37446  21159370.227                    21159377.602
 114339463.310 7  89095767.11646  21758041.695                    21758049.344
 124573559.557 7  97070314.32244  23705548.344                    23705559.586
 134794132.537 6 105034307.83152  25650440.961                    25650451.289
 115065479.280 7  89661584.35745  21896214.648                    21896222.727
 127281073.849 5                  24220741.930
 126473817.946 7  98551178.10943  24067193.922                    24067202.996
 123079250.697 7  95905909.79444  23421165.852                    23421174.230
 108084470.659 8  84221739.35546  20567754.766                    20567759.961
 109731402.532 7  85505022.54446  20881154.445                    20881161.918
 11  7 28  2  5  0.0000000  0 10G12G05G25G29G04G27G09G17G02G10
 111145992.581 8  86607323.09946  21150371.891                    21150378.504
 114253898.522 7  89029093.31945  21741759.039                    21741766.750
 124478799.952 7  96996475.72544  23687516.508                    23687527.512
 134719282.205 5                  25636198.625
 115144142.050 7  89722880.02045  21911183.945                    21911191.863
 127346885.65215  99231205.31952  24233265.133                    24233274.449
 126557442.641 7  98616340.20043  24083106.477                    24083116.551
 123138560.899 7  95952125.53744  23432452.867                    23432460.512
 108088725.446 8  84225054.80046  20568564.688                    20568569.273
 109738478.277 7  85510536.14346  20882500.852                    20882508.375
 11  7 28  2  5 30.0000000  0 10G12G05G25G29G04G27G09G17G02G10
 111099191.511 8  86570854.75546  21141465.750                    21141472.258
 114168682.769 7  88962691.49846  21725542.352                    21725550.195
 124384277.921 7  96922822.24844  23669529.789                    23669539.969
 134644349.065 5                  25621937.992
 115222922.307 8  89784267.21045  21926175.664                    21926183.773
 127412703.30616  99282491.79052  24245790.469                    24245800.367
 126641154.389 7  98681570.11344  24099037.188                    24099046.023
 123198036.688 7  95998470.30344  23443769.906                    23443777.965
 108093258.086 8  84228586.74846  20569426.648                    20569431.879
 109746188.602 8  85516544.24046  20883968.305                    20883975.617
 11  7 28  2  6  0.0000000  0 10G12G05G25G29G04G27G09G17G02G10
 111052880.158 8  86534768.01346  21132653.023                    21132659.754
 114083818.585 7  88896563.62046  21709393.664                    21709401.688
 124289996.138 7  96849356.01344  23651588.500                    23651599.145
 134569332.750 6                  25607662.625
 115301818.344 8  89845744.62845  21941188.844                    21941196.480
 127478524.002 6  99333780.52743  24258315.641                    24258326.203
 126724949.762 6  98746865.17843  24114982.266                    24114991.457
 123257678.678 6  96044944.59844  23455118.570                    23455127.094
 108098067.422 8  84232334.30746  20570342.172                    20570347.406
 109754533.773 7  85523046.97346  20885555.813                    20885563.266
 11  7 28  2  6 30.0000000  0  9G12G05G25G04G27G09G17G02G10
 111007060.508 8  86499064.41546  21123933.961                    21123940.754
 113999308.941 7  88830711.99446  21693312.234                    21693319.520
 124195957.359 7  96776079.13544  23633692.844                    23633703.977
 115380828.260 8  89907310.79445  21956224.047                    21956231.813
 127544345.206 6  99385069.72443  24270841.703                    24270851.762
 126808825.504 6  98812222.85443  24130943.023                    24130953.070
 123317487.419 6  96091548.80544  23466500.570                    23466508.406
 108103152.544 8  84236296.76746  20571309.664                    20571314.738
 109763513.311 8  85530044.06245  20887264.711                    20887272.070
 11  7 28  2  7  0.0000000  0 10G12G05G25G29G04G27G09G17G02G10
 110961734.238 8  86463745.26946  21115308.555                    21115315.449
 113915156.403 8  88765138.63946  21677298.313                    21677305.770
 124102164.172 7  96702993.66344  23615844.727                    23615855.625
 134419047.17316 104742030.30152  25579065.148                    25579074.363
 115459950.322 7  89968964.33945  21971280.164                    21971288.262
 127610164.230 6  99436357.21243  24283366.789                    24283376.770
 126892778.275 6  98877640.55443  24146918.930                    24146928.949
 123377463.046 7  96138283.05644  23477914.188                    23477921.574
 108108512.191 8  84240473.13446  20572329.789                    20572334.484
 109773126.761 8  85537535.08346  20889094.711                    20889101.605
 11  7 28  2  7 30.0000000  0 10G12G05G25G29G04G27G09G17G02G10
 110916903.579 8  86428812.33046  21106777.516                    21106784.387
 113831363.734 8  88699845.71446  21661352.961                    21661360.426
 124008619.357 7  96630101.68944  23598043.094                    23598054.215
 134343780.823 5 104683381.34642  25564741.438                    25564751.555
 115539182.911 7  90030704.03445  21986357.672                    21986365.820
 127675978.356 6  99487640.86143  24295890.453                    24295900.648
 126976804.721 6  98943115.65143  24162908.656                    24162918.852
 123437606.150 7  96185147.82744  23489358.313                    23489366.840
 108114145.341 8  84244862.62346  20573401.609                    20573406.324
 109783374.149 8  85545520.08245  20891044.383                    20891051.551
 11  7 28  2  8  0.0000000  0 10G12G05G25G29G04G27G09G17G02G10
 110872570.487 8  86394267.09346  21098341.547                    21098347.934
 113747933.753 8  88634835.39446  21645477.070                    21645484.613
 123915325.603 7  96557405.35744  23580290.836                    23580300.730
 134268431.405 5 104624667.39242  25550403.234                    25550413.902
 115618523.931 7  90092528.22545  22001455.164                    22001463.953
 127741784.848 6  99538918.56243  24308412.445                    24308423.035
 127060901.917 6  99008645.82643  24178911.914                    24178922.188
 123497916.864 7  96232143.16344  23500835.078                    23500843.551
 108120050.908 8  84249464.37746  20574525.289                    20574529.809
 109794255.234 8  85553998.88746  20893115.078                    20893122.066
 11  7 28  2  8 30.0000000  0 10G12G05G25G29G04G27G09G17G02G10
 110828736.796 8  86360110.99246  21089999.867                    21090006.809
 113664869.221 8  88570109.84446  21629670.141                    21629677.949
 123822285.626 7  96484906.75644  23562585.734                    23562596.238
 134192998.585 6 104565888.68943  25536049.633                    25536059.438
 115697971.674 7  90154435.56145  22016574.477                    22016582.039
 127807581.296 6  99590188.42143  24320933.180                    24320943.910
 127145066.569 6  99074228.64843  24194928.063                    24194937.852
 123558395.934 6  96279269.70744  23512343.797                    23512352.074
 108126228.022 8  84254277.73446  20575700.719                    20575705.613
 109805769.887 8  85562971.36846  20895306.164                    20895313.703
 11  7 28  2  9  0.0000000  0  9G12G05G25G04G27G09G17G02G10
 110785404.026 8  86326345.24546  21081753.617                    21081760.492
 113582172.504 7  88505670.89146  21613933.367                    21613940.965
 123729501.703 7  96412607.68144  23544928.109                    23544939.301
 115777524.328 7  90216424.62145  22031712.656                    22031720.621
 127873364.498 6  99641447.95342  24333451.477                    24333462.664
 127229294.974 6  99139861.06943  24210956.414                    24210965.926
 123619043.504 7  96326527.50344  23523885.219                    23523892.625
 108132675.036 8  84259301.40146  20576928.031                    20576932.770
 109817917.173 8  85572436.83346  20897617.344                    20897624.543
 11  7 28  2  9 30.0000000  0 10G12G05G25G29G04G27G09G17G02G10
 110742574.687 8  86292971.75646  21073603.734                    21073610.063
 113499846.950 7  88441521.16946  21598267.273                    21598274.848
 123636976.970 6  96340510.55744  23527322.133                    23527332.895
 134041886.20215 104448132.67452  25507293.195                    25507301.996
 115857180.262 7  90278494.19045  22046870.531                    22046878.895
 127939132.436 5  99692695.61442  24345967.391                    24345978.266
 127313584.169 6  99205540.91443  24226996.305                    24227005.719
 123679859.818 7  96373916.88244  23535458.063                    23535464.957
 108139390.794 8  84264534.48746  20578205.734                    20578210.746
 109830697.277 8  85582395.37646  20900049.578                    20900056.609
 11  7 28  2 10  0.0000000  0 10G12G05G25G29G04G27G09G17G02G10
 110700250.398 8  86259991.82546  21065549.367                    21065555.941
 113417894.569 7  88377662.22446  21582672.203                    21582680.043
 123544714.142 7  96268617.52444  23509765.055                    23509775.422
 133966203.05215 104389159.04152  25492890.664                    25492900.297
 115936937.932 7  90340643.01345  22062048.078                    22062056.160
 128004882.548 5  99743929.35642  24358478.227                    24358489.875
 127397930.904 6  99271265.60043  24243046.969                    24243056.508
 123740845.168 6  96421438.03343  23547063.023                    23547069.426
 108146374.712 8  84269976.52246  20579534.367                    20579539.273
 109844109.872 8  85592846.78046  20902602.070                    20902609.156
 11  7 28  2 10 30.0000000  0 10G12G05G25G29G04G27G09G17G02G10
 110658433.012 8  86227406.88646  21057592.023                    21057598.941
 113336318.746 7  88314096.71346  21567148.867                    21567156.523
 123452715.918 6  96196930.64844  23492258.375                    23492268.813
 133890437.222 5 104330120.72142  25478473.195                    25478482.031
 116016795.488 7  90402869.69445  22077243.961                    22077252.301
 128070611.91915  99795146.91052  24370986.227                    24370998.859
 127482332.116 6  99337032.69043  24259108.047                    24259117.531
 123802000.130 6  96469091.21743  23558700.945                    23558707.613
 108153625.655 8  84275626.62946  20580914.258                    20580918.875
 109858154.436 7  85603790.62946  20905274.703                    20905281.969
 11  7 28  2 11  0.0000000  0 10G12G05G25G29G04G27G09G17G02G10
 110617124.243 8  86195218.27246  21049731.313                    21049737.680
 113255121.717 8  88250826.35546  21551697.258                    21551705.277
 123360984.809 6  96125451.92544  23474802.602                    23474812.664
 133814587.762 6 104271017.41242  25464039.773                    25464048.191
 116096751.119 7  90465172.75245  22092459.164                    22092467.156
 128136317.80015  99846346.15052  24383490.430                    24383502.305
 127566784.237 6  99402839.49043  24275177.961                    24275187.785
 123863324.847 6  96516876.67843  23570368.828                    23570377.738
 108161142.368 8  84281483.83046  20582344.492                    20582349.504
 109872830.377 8  85615226.46046  20908067.219                    20908074.574
 11  7 28  2 11 30.0000000  0 10G12G05G25G29G04G27G09G17G02G10
 110576325.630 8  86163427.16546  21041967.617                    21041974.113
 113174305.891 7  88187853.03946  21536318.867                    21536326.340
 123269523.278 7  96054183.22744  23457397.891                    23457407.953
 133738655.325 5 104211849.35242  25449589.875                    25449598.402
 116176802.799 7  90527550.69645  22107692.883                    22107700.539
 128201997.171 4  99897524.83352  24395987.484                    24396000.586
 127651283.794 6  99468683.24443  24291258.242                    24291268.098
 123924819.742 6  96564794.71643  23582071.891                    23582080.094
 108168923.143 8  84287546.79646  20583825.188                    20583829.754
 109888137.227 8  85627153.90446  20910979.680                    20910987.012
 11  7 28  2 12  0.0000000  0 10G12G05G25G29G04G27G09G17G02G10
 110536039.088 8  86132035.07646  21034301.336                    21034308.055
 113093873.948 8  88125178.85346  21521012.859                    21521020.426
 123178334.097 7  95983126.74244  23440045.547                    23440056.086
 133662639.618 6 104152616.39053  25435124.109                    25435133.199
 116256949.081 7  90590002.35145  22122943.852                    22122952.094
 128267647.749 5  99948680.98452  24408481.195                    24408494.063
 127735827.616 6  99534561.47443  24307346.703                    24307355.918
 123986484.871 6  96612845.46444  23593806.906                    23593814.555
 108176967.118 8  84293814.85646  20585355.906                    20585361.133
 109904074.350 8  85639572.46446  20914012.523                    20914019.598
 11  7 28  2 12 30.0000000  0 10G12G05G25G29G04G27G09G17G02G10
 110496266.691 8  86101043.62546  21026732.758                    21026739.609
 113013828.835 8  88062806.08446  21505780.930                    21505788.492
 123087420.102 7  95912284.69444  23422745.047                    23422755.746
 133586540.788 5 104093318.76942  25420642.539                    25420652.094
 116337188.083 7  90652526.26145  22138213.188                    22138221.039
 128333266.832 5  99999812.64942  24420968.297                    24420980.980
 127820412.514 6  99600471.72743  24323442.289                    24323451.855
 124048320.875 7  96661029.36244  23605574.453                    23605581.605
 108185273.409 8  84300287.31446  20586936.734                    20586941.500
 109920641.483 8  85652481.94846  20917165.258                    20917172.641
 11  7 28  2 13  0.0000000  0 10G12G05G25G29G04G27G09G17G02G10
 110457009.921 8  86070453.96646  21019262.438                    21019268.965
 112934172.809 8  88000736.50746  21490622.539                    21490630.145
 122996783.713 7  95841658.99644  23405497.695                    23405508.039
 133510358.723 6 104033956.20342  25406147.469                    25406155.258
 116417518.002 7  90715121.00845  22153498.875                    22153507.336
 128398851.860 5 100050917.81842  24433448.773                    24433460.488
 127905035.364 6  99666411.56443  24339545.539                    24339556.008
 124110327.957 6  96709346.60244  23617373.398                    23617380.449
 108193840.494 8  84306962.97646  20588566.844                    20588571.656
 109937837.758 8  85665881.65346  20920437.703                    20920444.410
 11  7 28  2 13 30.0000000  0 10G12G05G25G29G04G27G09G17G02G10
 110418270.276 8  86040267.25146  21011890.469                    21011897.164
 112854908.499 8  87938972.15946  21475539.383                    21475546.910
 122906427.649 7  95771251.69144  23388303.570                    23388313.918
 133434093.613 6 103974528.98443  25391633.375                    25391642.781
 116497937.310 7  90777785.41044  22168802.703                    22168810.805
 128464399.931 5 100101994.20842  24445921.789                    24445933.738
 127989692.720 6  99732378.29643  24355655.984                    24355665.652
 124172506.258 6  96757797.22044  23629205.344                    23629212.797
 108202667.449 8  84313841.13746  20590246.398                    20590251.633
 109955662.395 8  85679771.00546  20923829.500                    20923836.613
 11  7 28  2 14  0.0000000  0 10G12G05G25G29G04G27G09G17G02G10
 110380049.982 8  86010485.22346  21004617.680                    21004624.359
 112776038.707 7  87877515.22446  21460530.578                    21460538.277
 122816354.819 7  95701065.10944  23371162.844                    23371173.016
 133357745.452 5 103915036.93342  25377104.648                    25377113.625
 116578444.408 7  90840518.21844  22184122.523                    22184130.594
 128529908.933 5 100153040.08042  24458388.859                    24458400.266
 128074381.376 6  99798369.42543  24371771.688                    24371781.074
 124234856.195 6  96806381.60844  23641070.625                    23641077.563
 108211753.224 8  84320920.98046  20591975.070                    20591979.949
 109974115.258 7  85694149.87546  20927340.883                    20927348.152
 11  7 28  2 14 30.0000000  0 10G12G05G25G29G04G27G09G17G02G10
 110342350.289 8  85981108.85946  20997443.383                    20997450.129
 112697565.902 7  87816367.63946  21445598.102                    21445605.141
 122726567.786 7  95631101.25344  23354077.320                    23354087.055
 133281314.379 6 103855480.46443  25362559.664                    25362569.520
 116659037.596 7  90903318.09945  22199458.953                    22199467.086
 128595375.987 5 100204053.34542  24470846.930                    24470857.883
 128159098.122 6  99864382.41343  24387892.734                    24387902.152
 124297378.179 6  96855100.02944  23652967.258                    23652975.887
 108221096.667 8  84328201.61146  20593753.586                    20593758.313
 109993195.285 7  85709017.45346  20930971.586                    20930979.316
 11  7 28  2 15  0.0000000  0 10G12G05G25G29G04G27G09G17G02G10
 110305173.131 8  85952139.66946  20990368.602                    20990375.547
 112619492.701 8  87755531.41646  21430741.227                    21430748.535
 122637069.188 7  95561362.13444  23337045.883                    23337056.266
 133204800.827 6 103795859.59542  25348000.305                    25348009.344
 116739714.871 7  90966183.51045  22214810.844                    22214819.227
 128660798.39716 100255031.72552  24483295.820                    24483307.570
 128243839.858 6  99930414.92143  24404018.141                    24404027.809
 124360072.333 7  96903952.59544  23664898.688                    23664906.250
 108230696.498 8  84335682.01446  20595580.422                    20595584.848
 110012901.830 8  85724373.22446  20934721.813                    20934729.109
 11  7 28  2 15 30.0000000  0 10G12G05G25G29G04G27G09G17G02G10
 110268519.899 8  85923578.72946  20983394.023                    20983400.852
 112541821.633 8  87695008.55546  21415960.609                    21415968.285
 122547861.777 7  95491849.93144  23320070.234                    23320080.625
 133128204.465 6 103736174.21043  25333423.898                    25333432.898
 116820475.020 7  91029113.50544  22230179.547                    22230186.797
 128726173.606 6 100305973.42742  24495735.328                    24495747.617
 128328603.348 6  99996464.36843  24420148.648                    24420157.941
 124422938.949 6  96952939.56644  23676861.977                    23676868.609
 108240551.330 8  84343361.13446  20597455.484                    20597460.262
 110033234.416 8  85740216.81446  20938590.703                    20938598.066
 11  7 28  2 16  0.0000000  0 10G12G05G25G29G04G27G09G17G02G10
 110232392.636 8  85895427.63546  20976519.000                    20976525.727
 112464554.706 8  87634800.59446  21401257.039                    21401264.574
 122458948.091 7  95422566.60344  23303150.852                    23303160.301
 133051525.297 6 103676424.27342  25318831.680                    25318841.816
 116901316.004 7  91092106.47044  22245562.297                    22245571.129
 128791498.936 6 100356876.13542  24508167.523                    24508179.023
 128413385.281 6 100062528.17143  24436282.086                    24436291.727
 124485978.733 6  97002061.46743  23688857.078                    23688864.930
 108250660.230 8  84351238.21846  20599379.172                    20599383.895
 110054192.287 7  85756547.64746  20942579.133                    20942586.488
 11  7 28  2 16 30.0000000  0 10G12G05G25G29G04G27G09G17G02G10
 110196792.692 8  85867687.44446  20969744.555                    20969751.387
 112387695.755 8  87574910.55246  21386631.305                    21386638.523
 122370330.988 7  95353514.37944  23286286.852                    23286296.879
 132974763.651 5 103616610.12043  25304224.484                    25304234.539
 116982236.811 7  91155161.65344  22260961.328                    22260969.148
 128856772.017 6 100407738.25642  24520588.242                    24520600.066
 128498182.680 6 100128604.02043  24452418.781                    24452427.348
 124549191.382 6  97051318.11843  23700885.563                    23700893.680
 108261021.896 8  84359312.27146  20601351.281                    20601355.398
 110075774.580 7  85773365.03745  20946685.891                    20946693.145
 11  7 28  2 17  0.0000000  0 10G12G05G25G29G04G27G09G17G02G10
 110161721.661 8  85840359.39646  20963071.289                    20963077.629
 112311246.321 8  87515339.60346  21372083.922                    21372090.992
 122282013.001 7  95284695.23444  23269480.625                    23269490.266
 132897919.703 6 103556731.66842  25289602.711                    25289611.754
 117063235.397 7  91218277.45044  22276375.102                    22276383.063
 128921990.146 5 100458557.48142  24533000.016                    24533011.383
 128582992.120 6 100194689.29343  24468557.508                    24468566.238
 124612577.486 6  97100709.87044  23712948.383                    23712955.918
 108271635.581 8  84367582.69046  20603370.625                    20603375.504
 110097980.385 7  85790668.27646  20950911.563                    20950918.781
 11  7 28  2 17 30.0000000  0 10G12G05G25G29G04G27G09G17G02G10
 110127181.485 8  85813444.99446  20956498.109                    20956504.508
 112235209.173 8  87456089.91946  21357614.117                    21357621.781
 122193996.970 7  95216111.38344  23252731.992                    23252741.566
 132820993.882 5 103496789.60942  25274963.188                    25274972.727
 117144310.146 7  91281452.57744  22291802.969                    22291810.598
 128987150.845 6 100509332.02142  24545399.008                    24545410.734
 128667810.797 6 100260781.66543  24484697.352                    24484707.297
 124676137.334 6  97150236.98644  23725043.859                    23725051.520
 108282500.134 8  84376048.60246  20605438.094                    20605442.723
 110120809.141 7  85808456.93446  20955255.273                    20955262.746
 11  7 28  2 18  0.0000000  0 10G12G05G25G29G04G27G09G17G02G10
 110093173.513 8  85786945.30446  20950026.703                    20950032.883
 112159586.801 8  87397163.43946  21343223.773                    21343230.797
 122106285.419 7  95147764.79444  23236040.922                    23236050.512
 132743986.112 6 103436783.54443  25260308.836                    25260319.176
 117225459.582 7  91344685.91544  22307245.555                    22307252.781
 129052251.384 5 100560059.70642  24557787.398                    24557799.453
 128752635.291 6 100326878.58443  24500839.164                    24500849.148
 124739870.954 6  97199899.51844  23737171.219                    23737179.344
 108293614.143 8  84384708.88946  20607552.961                    20607557.922
 110144259.993 7  85826730.35346  20959718.375                    20959725.133
 11  7 28  2 18 30.0000000  0 10G12G05G25G29G04G27G09G17G02G10
 110059698.891 8  85760861.20846  20943656.570                    20943662.895
 112084381.699 7  87338562.10546  21328912.258                    21328919.324
 122018880.966 7  95079657.50644  23219408.242                    23219417.527
 132666896.259 5 103376713.48242  25245639.172                    25245649.664
 117306682.058 7  91407976.13744  22322701.789                    22322709.293
 129117289.154 5 100610738.36542  24570162.406                    24570175.480
 128837462.556 5 100392977.68143  24516980.750                    24516991.395
 124803778.818 6  97249697.80944  23749332.633                    23749340.801
 108304976.484 8  84393562.68246  20609715.219                    20609720.078
 110168331.714 7  85845487.56046  20964298.789                    20964306.086
 11  7 28  2 19  0.0000000  0 10G12G05G25G29G04G27G09G17G02G10
 110026759.581 8  85735194.24846  20937388.516                    20937395.078
 112009596.208 7  87280287.73846  21314681.328                    21314688.531
 121931786.385 7  95011791.66844  23202834.711                    23202844.336
 132589725.159 6 103316580.13242  25230952.930                    25230965.063
 117387975.963 7  91471322.05244  22338171.070                    22338178.715
 129182261.810 6 100661366.37342  24582527.852                    24582538.461
 128922289.544 6 100459076.53843  24533123.648                    24533133.473
 124867861.016 6  97299632.00743  23761526.445                    23761534.691
 108316586.145 8  84402609.18546  20611924.367                    20611929.102
 110193023.879 7  85864728.22745  20968997.727                    20969004.859
 11  7 28  2 19 30.0000000  0 10G12G05G25G29G04G27G09G17G02G10
 109994356.744 7  85709945.31146  20931222.133                    20931229.359
 111935232.587 8  87222342.11046  21300530.242                    21300537.965
 121845004.074 7  94944169.17444  23186320.234                    23186329.906
 132512472.025 6 103256382.84642  25216253.852                    25216263.828
 117469339.572 7  91534722.30144  22353654.258                    22353661.684
 129247166.641 5 100711941.46542  24594878.914                    24594890.137
 129007112.881 5 100525172.60943  24549264.750                    24549274.535
 124932117.915 6  97349702.29144  23773754.289                    23773762.344
 108328441.734 8  84411847.32646  20614180.461                    20614185.379
 110218334.903 7  85884451.12946  20973814.188                    20973821.070
 11  7 28  2 20  0.0000000  0 10G12G05G25G29G04G27G09G17G02G10
 109962492.478 8  85685116.02746  20925158.664                    20925164.828
 111861293.931 8  87164727.62046  21286460.164                    21286467.469
 121758536.947 7  94876792.24844  23169866.203                    23169875.863
 132435137.407 5 103196122.04842  25201537.531                    25201547.078
 117550771.625 7  91598175.86344  22369150.078                    22369157.750
 129312001.171 5 100762461.86142  24607216.047                    24607227.355
 129091929.671 6 100591263.49444  24565405.789                    24565414.719
 124996549.711 6  97399908.85643  23786015.078                    23786023.375
 108340542.118 8  84421276.21646  20616482.617                    20616488.035
 110244264.235 7  85904655.81246  20978748.430                    20978755.508
 11  7 28  2 20 30.0000000  0 10G12G05G25G29G04G27G09G17G02G10
 109931167.929 7  85660707.32946  20919198.078                    20919204.145
 111787782.562 8  87107446.08146  21272471.344                    21272478.348
 121672387.792 7  94809663.11744  23153472.375                    23153482.008
 132357721.883 6 103135798.32343  25186806.211                    25186815.332
 117632270.406 7  91661681.41045  22384659.070                    22384667.402
 129376763.061 5 100812925.54142  24619540.320                    24619551.441
 129176736.562 6 100657346.70443  24581543.227                    24581553.266
 125061156.875 7  97450252.16144  23798310.078                    23798317.738
 108352886.663 8  84430895.35546  20618832.469                    20618837.160
 110270811.038 7  85925341.66046  20983800.219                    20983807.441
 11  7 28  2 21  0.0000000  0 10G12G05G25G29G04G27G09G17G02G10
 109900384.220 8  85636720.04946  20913339.594                    20913346.215
 111714700.706 8  87050499.23046  21258564.617                    21258571.480
 121586558.951 7  94742783.56444  23137139.422                    23137149.617
 132280225.336 6 103075411.30642  25172058.859                    25172068.223
 117713834.436 7  91725237.78145  22400179.969                    22400188.148
 129441449.40314                  24631848.883
 129261530.211 6 100723419.63343  24597679.656                    24597689.004
 125125939.426 6  97500732.05244  23810637.945                    23810646.035
 108365473.783 8  84440703.52246  20621226.898                    20621232.094
 110297974.100 7  85946507.69746  20988968.648                    20988976.094
 11  7 28  2 21 30.0000000  0 10G12G05G25G29G04G27G09G17G02G10
 109870143.182 8  85613155.62146  20907585.102                    20907591.969
 111642050.591 8  86993888.80346  21244739.719                    21244746.785
 121501053.260 7  94676155.81244  23120868.625                    23120878.738
 132202647.996 6 103014961.49842  25157296.727                    25157304.867
 117795462.200 7  91788843.82245  22415712.922                    22415721.133
 129506057.94415                  24644144.133
 129346307.729 6 100789479.97143  24613811.563                    24613821.605
 125190897.508 6  97551348.74744  23822998.844                    23823007.430
 108378302.304 8  84450699.79446  20623668.523                    20623673.551
 110325752.567 7  85968153.27646  20994254.938                    20994262.223
 11  7 28  2 22  0.0000000  0 10G12G05G25G29G04G27G09G17G02G10
 109840445.981 8  85590014.96746  20901934.328                    20901940.328
 111569834.796 8  86937616.79746  21230997.438                    21231004.656
 121415873.179 7  94609781.79944  23104658.953                    23104669.172
 132124990.166 5 102954448.97342  25142518.422                    25142527.605
 117877152.016 7  91852498.22044  22431258.750                    22431266.746
 129570586.47614                  24656424.516
 129431066.045 6 100855525.33443  24629940.977                    24629950.703
 125256031.108 6  97602102.18744  23835393.688                    23835402.141
 108391370.953 8  84460883.17346  20626155.227                    20626160.617
 110354145.002 8  85990277.27246  20999657.766                    20999665.059
 11  7 28  2 22 30.0000000  0  9G12G05G25G29G04G09G17G02G10
 109811294.483 8  85567299.53946  20896386.508                    20896393.012
 111498055.732 8  86881685.11046  21217338.375                    21217345.445
 121331021.699 7  94543663.82444  23088512.492                    23088522.910
 132047252.120 6 102893873.93043  25127725.125                    25127734.754
 117958902.694 7  91916200.06044  22446814.844                    22446822.613
 129515802.412 6 100921553.58843  24646065.531                    24646075.629
 125321341.027 6  97652993.03544  23847821.703                    23847829.551
 108404679.198 8  84471253.25446  20628687.625                    20628692.863
 110383150.738 7  86012879.17745  21005177.383                    21005184.453
 11  7 28  2 23  0.0000000  0  9G12G05G25G29G04G09G17G02G10
 109782689.381 7  85545009.86646  20890943.023                    20890949.570
 111426715.366 8  86826095.26246  21203762.375                    21203769.797
 121246501.002 7  94477803.58944  23072429.070                    23072438.801
 131969433.893 6 102833236.40243  25112917.445                    25112926.621
 118040712.292 7  91979947.78944  22462382.414                    22462390.871
 129600513.453 6 100987562.10843  24662186.203                    24662196.480
 125386827.132 6  97704021.12443  23860283.016                    23860291.246
 108418225.338 8  84481808.69746  20631265.531                    20631270.520
 110412768.413 7  86035957.89446  21010813.383                    21010821.090
 11  7 28  2 23 30.0000000  0 10G12G05G25G29G04G27G09G17G02G10
 109754632.994 8  85523147.76846  20885603.992                    20885610.906
 111355817.204 8  86770849.98346  21190271.141                    21190278.145
 121162314.601 7  94412203.86144  23056408.430                    23056418.527
 131891536.454 5 102772537.18742  25098092.336                    25098102.746
 118122580.192 7  92043740.94044  22477961.813                    22477969.668
 129763645.95115                  24693166.125
 129685196.700 6 101053549.00743  24678299.852                    24678310.750
 125452490.296 7  97755187.24444  23872778.805                    23872786.391
 108432008.865 8  84492549.13246  20633888.203                    20633893.152
 110442997.358 7  86059512.94245  21016565.844                    21016572.977
 11  7 28  2 24  0.0000000  0 10G12G05G25G29G04G27G09G17G02G10
 109727124.680 8  85501712.73546  20880369.391                    20880376.266
 111285361.516 8  86715949.48546  21176863.773                    21176871.109
 121078463.231 7  94346865.20444  23040452.094                    23040462.172
 131813558.276 5 102711775.09342  25083252.664                    25083263.926
 118204502.938 7  92107576.84144  22493551.055                    22493559.941
 129827826.453 5                  24705379.477
 129769847.229 5 101119510.41942  24694408.164                    24694419.383
 125518328.708 6  97806489.92144  23885307.641                    23885315.090
 108446026.936 8  84503472.31946  20636556.109                    20636560.953
 110473834.812 7  86083542.16446  21022434.063                    21022441.078
 11  7 28  2 24 30.0000000  0 10G12G05G25G29G04G27G09G17G02G10
 109700166.904 8  85480706.68946  20875239.617                    20875246.215
 111215351.447 8  86661396.22646  21163540.961                    21163548.586
 120994950.669 7  94281790.52344  23024560.086                    23024569.871
 131735500.717 6 102650951.08343  25068400.383                    25068409.867
 118286480.347 7  92171455.35044  22509150.641                    22509158.895
 129891914.265 5                  24717575.547
 129854463.215 6 101185444.88242  24710511.688                    24710521.223
 125584343.661 6  97857930.14444  23897869.273                    23897877.398
 108460279.461 8  84514578.19246  20639268.055                    20639272.922
 110505280.749 7  86108045.51046  21028418.000                    21028425.391
 11  7 28  2 25  0.0000000  0 10G12G05G25G29G04G27G09G17G02G10
 109673761.182 8  85460130.81546  20870214.875                    20870221.582
 111145789.900 8  86607192.46546  21150304.125                    21150311.715
 120911779.617 7  94216981.97944  23008733.461                    23008743.238
 131657364.006 6 102590065.39243  25053532.227                    25053540.285
 118368511.079 7  92235375.39244  22524760.836                    22524768.953
 129955906.64115                  24729751.688
 129939041.754 5 101251350.12542  24726604.375                    24726616.082
 125650535.501 6  97909508.23343  23910465.125                    23910472.391
 108474765.550 8  84525866.05846  20642025.055                    20642029.531
 110537333.977 7  86133022.06245  21034517.492                    21034524.598
 11  7 28  2 25 30.0000000  0 10G12G05G25G29G04G27G09G17G02G10
 109647908.603 8  85439985.96746  20865295.063                    20865301.789
 111076678.781 8  86553339.68846  21137152.742                    21137160.027
 120828952.539 7  94152441.44944  22992971.313                    22992981.422
 131579148.109 6 102529118.05543  25038647.727                    25038656.523
 118450593.491 7  92299335.68644  22540380.508                    22540388.871
 130019801.27915                  24741910.945
 130023579.475 5 101317223.61942  24742691.664                    24742702.902
 125716904.616 6  97961224.41444  23923094.680                    23923101.352
 108489483.661 8  84537334.72946  20644825.461                    20644830.566
 110569993.029 7  86158470.71346  21040732.445                    21040739.832
 11  7 28  2 26  0.0000000  0  9G12G05G25G29G04G09G17G02G10
 109622610.393 8  85420273.08546  20860481.094                    20860487.969
 111008020.734 8  86499839.95246  21124087.383                    21124094.879
 120746472.334 7  94088171.21844  22977276.234                    22977285.828
 131500853.746 6 102468109.54343  25023749.289                    25023757.961
 118532726.274 7  92363335.28344  22556009.797                    22556017.246
 130108073.766 5 101383063.28342  24758770.352                    24758781.746
 125783451.240 6  98013078.89944  23935757.727                    23935765.566
 108504433.190 8  84548983.73046  20647670.305                    20647674.957
 110603256.662 7  86184390.45445  21047062.180                    21047069.328
 11  7 28  2 26 30.0000000  0 10G12G05G25G29G04G27G09G17G02G10
 109597867.771 8  85400993.13046  20855772.289                    20855779.141
 110939817.746 8  86446694.80246  21111109.195                    21111115.875
 120664341.414 7  94024173.14044  22961646.906                    22961657.055
 131422480.997 6 102407039.89043  25008835.141                    25008843.840
 118614908.076 7  92427373.01644  22571648.484                    22571655.605
 130147281.67615                  24766169.383
 130192521.088 5 101448866.29842  24774840.930                    24774851.785
 125850175.239 6  98065071.58443  23948455.742                    23948462.430
 108519612.691 8  84560811.92946  20650558.992                    20650563.781
 110637123.579 8  86210780.28445  21053506.781                    21053514.105
 11  7 28  2 27  0.0000000  0 10G12G05G25G29G04G27G09G17G02G10
 109573681.644 8  85382146.82346  20851170.219                    20851176.609
 110872071.772 8  86393905.76946  21098217.266                    21098224.371
 120582562.286 7  93960449.20344  22946084.875                    22946095.129
 131344030.005 6 102345909.35443  24993904.336                    24993914.809
 118697136.967 7  92491447.50544  22587296.570                    22587304.359
 130210867.36015                  24778270.320
 130276918.496 6 101514630.47642  24790900.453                    24790911.992
 125917076.362 6  98117202.38344  23961186.422                    23961193.305
 108535020.893 8  84572818.33146  20653491.047                    20653495.500
 110671592.491 8  86237639.20345  21060065.945                    21060072.953
 11  7 28  2 27 30.0000000  0 10G12G05G25G29G04G27G09G17G02G10
 109550053.886 8  85363735.59346  20846673.664                    20846680.719
 110804785.506 8  86341474.94646  21085412.836                    21085420.285
 120501137.710 7  93897001.53445  22930590.180                    22930600.012
 131265501.440 6 102284718.28843  24978962.414                    24978971.406
 118779412.017 7  92555557.93544  22602952.695                    22602961.633
 130274345.207 5                  24790349.383
 130361263.225 6 101580353.56442  24806952.664                    24806962.004
 125984155.162 7  98169471.57544  23973950.563                    23973959.297
 108550656.807 8  84585002.17746  20656466.461                    20656471.309
 110706661.963 8  86264966.08645  21066739.469                    21066746.555
 11  7 28  2 28  0.0000000  0 10G12G05G25G29G04G27G09G17G02G10
 109526984.708 8  85345759.62246  20842284.008                    20842290.738
 110737960.823 8  86289403.80546  21072696.508                    21072703.730
 120420070.011 7  93833831.94744  22915162.891                    22915173.516
 131186895.234 6 102223466.70743  24964004.195                    24964014.289
 118861731.551 7  92619703.02244  22618617.547                    22618625.602
 130337712.479 4                  24802406.258
 130445552.048 6 101646033.07543  24822992.133                    24823001.961
 126051411.701 7  98221879.27544  23986749.570                    23986757.121
 108566519.220 8  84597362.50846  20659484.914                    20659489.711
 110742330.457 7  86292759.73745  21073527.016                    21073534.277
 11  7 28  2 28 30.0000000  0 10G12G05G25G29G04G27G09G17G02G10
 109504476.072 8  85328220.44346  20838000.930                    20838007.367
 110671600.151 8  86237694.22446  21060068.469                    21060075.813
 120339362.052 7  93770942.69144  22899805.352                    22899815.078
 131108211.828 6 102162155.03243  24949031.352                    24949041.398
 118944094.318 7  92683881.78944  22634290.734                    22634298.352
 130400967.13115                  24814442.992
 130529782.127 6 101711666.86543  24839019.688                    24839030.184
 126118846.309 6  98274425.72644  23999582.297                    23999590.570
 108582607.158 8  84609898.57846  20662546.148                    20662550.922
 110778596.821 8  86321019.25845  21080428.078                    21080435.473
 11  7 28  2 29  0.0000000  0 10G12G05G25G29G04G27G09G17G02G10
 109482528.881 8  85311118.75546  20833824.406                    20833830.961
 110605705.492 8  86186347.77446  21047528.852                    21047536.488
 120259016.321 7  93708335.68145  22884516.086                    22884525.699
 131029451.721 6 102100783.43343  24934043.898                    24934052.828
 119026499.064 7  92748093.27044  22649972.000                    22649979.648
 130464106.36714                  24826458.961
 130613950.360 6 101777252.46542  24855036.633                    24855046.586
 126186459.046 6  98327110.93643  24012447.461                    24012456.270
 108598919.412 8  84622609.43946  20665650.523                    20665655.672
 110815459.632 7  86349743.54946  21087442.852                    21087450.066
 11  7 28  2 29 30.0000000  0 10G12G05G25G29G04G27G09G17G02G10
 109461143.956 8  85294455.19946  20829754.844                    20829761.047
 110540279.085 8  86135366.19246  21035078.992                    21035086.227
 120179035.196 7  93646012.77645  22869296.078                    22869306.039
 130950614.845 6 102039352.16342  24919041.969                    24919050.203
 119108944.093 7  92812336.15544  22665660.766                    22665667.734
 130527128.06614                  24838451.828
 130698053.772 6 101842787.58542  24871041.203                    24871051.238
 126254250.097 6  98379935.07444  24025348.250                    24025356.785
 108615454.572 8  84635493.99446  20668797.313                    20668801.762
 110852917.103 7  86378931.21045  21094571.164                    21094578.320
 11  7 28  2 30  0.0000000  0 10G12G05G25G29G04G27G09G17G02G10
 109440322.202 8  85278230.47346  20825792.633                    20825799.113
 110475323.166 8  86084751.23746  21022718.148                    21022725.266
 120099421.471 7  93583976.16244  22854146.219                    22854155.484
 130871701.679 5 101977861.43442  24904024.656                    24904033.383
 119191428.215 7  92876609.51744  22681357.016                    22681364.699
 130590029.87914                  24850421.516
 130782089.420 6 101908269.90142  24887032.891                    24887042.570
 126322219.264 6  98432898.03044  24038282.695                    24038290.820
 108632211.532 8  84648551.37946  20671985.602                    20671990.305
 110890968.165 8  86408581.40945  21101811.570                    21101818.883
 11  7 28  2 30 30.0000000  0 10G12G05G25G29G04G27G09G17G02G10
 109420064.944 8  85262445.60646  20821937.664                    20821944.836
 110410839.646 8  86034504.37146  21010447.188                    21010454.555
 120020177.798 7  93522227.91345  22839066.500                    22839076.203
 130792712.895 5 101916311.65742  24888993.664                    24889002.102
 119273950.094 7  92940912.25744  22697059.742                    22697068.301
 130652809.43215                  24862369.469
 130866054.52916 101973697.23052  24903009.797                    24903020.539
 126390366.818 6  98485999.99144  24051251.125                    24051259.266
 108649189.634 8  84661781.09546  20675216.148                    20675221.207
 110929611.296 7  86438692.96345  21109165.078                    21109172.574
 11  7 28  2 31  0.0000000  0 10G12G05G25G29G04G27G09G17G02G10
 109400372.915 8  85247101.19646  20818190.672                    20818197.172
 110346830.332 8  85984627.03246  20998266.555                    20998273.938
 119941306.307 7  93460769.69044  22824058.023                    22824067.508
 130713648.24015                  24873946.367
 119356508.247 7  93005243.27944  22712769.992                    22712778.070
 130715464.116 5                  24874292.367
 130949945.859 6 102039067.05743  24918974.609                    24918985.105
 126458692.496 6  98539240.80144  24064252.367                    24064260.188
 108666387.236 8  84675181.84046  20678488.883                    20678494.090
 110968844.623 7  86469264.40445  21116630.820                    21116638.176
 11  7 28  2 31 30.0000000  0 10G12G05G25G29G04G27G09G17G02G10
 109381247.537 7  85232198.32446  20814550.867                    20814557.809
 110283297.919 8  85935121.29346  20986176.578                    20986183.656
 119862809.956 7  93399603.76145  22809120.539                    22809130.016
 130634508.50415                  24858885.031
 119439101.431 7  93069601.59044  22728487.305                    22728494.926
 130777991.663 5                  24886191.008
 131033760.651 6 102104377.27543  24934924.305                    24934934.387
 126527196.867 6  98592620.77743  24077288.484                    24077296.031
 108683803.622 8  84688753.05746  20681803.352                    20681808.422
 111008666.804 7  86500294.69945  21124208.680                    21124215.969
 11  7 28  2 32  0.0000000  0 10G12G05G25G29G04G27G09G17G02G10
 109362689.468 8  85217737.51046  20811019.383                    20811026.211
 110220244.303 8  85885988.64246  20974178.008                    20974185.074
 119784691.125 7  93338732.01145  22794254.992                    22794264.824
 130555294.18315                  24843813.922
 119521728.453 7  93133986.24544  22744210.977                    22744218.449
 130840389.491 5                  24898065.641
 131117496.041 6 102169625.59143  24950858.578                    24950868.395
 126595879.725 6  98646139.94143  24090358.656                    24090365.707
 108701437.430 7  84702493.70646  20685158.844                    20685163.879
 111049076.119 7  86531782.47245  21131898.734                    21131905.199
 11  7 28  2 32 30.0000000  0 10G12G05G25G29G04G27G09G17G02G10
 109344699.904 8  85203719.69046  20807596.047                    20807602.836
 110157671.581 8  85837230.70846  20962270.789                    20962278.008
 119706952.428 7  93278156.45445  22779461.359                    22779471.039
 130476005.68415                  24828725.547
 119604387.823 7  93198396.18944  22759940.500                    22759946.695
 130902655.614 5                  24909913.016
 131201149.262 6 102234809.90543  24966777.336                    24966786.867
 126664741.147 6  98699798.18843  24103462.555                    24103469.320
 108719287.710 7  84716403.04146  20688555.672                    20688560.629
 111090071.119 7  86563726.65945  21139699.633                    21139706.293
 11  7 28  2 33  0.0000000  0 10G12G05G25G29G04G27G09G17G02G10
 109327279.564 7  85190145.42846  20804280.969                    20804287.773
 110095581.553 8  85788848.90546  20950455.320                    20950462.266
 119629596.247 7  93217878.96145  22764741.477                    22764750.480
 130396643.55315 101607673.13552  24813622.445                    24813632.422
 119687078.386 7  93262830.40444  22775675.688                    22775683.648
 130964787.308 5                  24921737.406
 131284716.982 6 102299927.56243  24982679.641                    24982689.578
 126733781.521 6  98753595.94043  24116600.422                    24116607.273
 108737353.169 8  84730480.05346  20691993.406                    20691998.273
 111131650.087 7  86596125.86245  21147611.500                    21147618.715
 11  7 28  2 33 30.0000000  0 10G12G05G25G29G04G27G09G17G02G10
 109310429.285 7  85177015.36746  20801074.578                    20801081.520
 110033976.507 8  85740845.00746  20938732.484                    20938739.660
 119552625.324 7  93157901.66244  22750093.992                    22750103.402
 130317206.991 6 101545774.97443  24798507.727                    24798516.758
 119769798.880 7  93327287.94944  22791417.016                    22791424.891
 131026782.365 5                  24933534.906
 131368196.640 6 102364976.57143  24998565.758                    24998575.469
 126803000.898 7  98807533.13444  24129772.383                    24129779.328
 108755632.774 8  84744723.91846  20695471.758                    20695477.012
 111173811.781 7  86628979.14345  21155635.070                    21155642.031
 11  7 28  2 34  0.0000000  0 10G12G05G25G29G04G27G09G17G02G10
 109294150.082 7  85164330.29746  20797976.883                    20797983.520
 109972858.325 8  85693220.47746  20927101.844                    20927109.016
 119476041.993 7  93098226.39945  22735520.406                    22735530.043
 130237697.587 6 101483819.66343  24783378.070                    24783386.750
 119852547.853 6  93391767.66444  22807162.938                    22807171.480
 131088638.96114                  24945304.367
 131451585.485 6 102429954.82242  25014433.352                    25014443.934
 126872399.315 7  98861609.79544  24142978.133                    24142986.797
 108774125.360 8  84759133.75246  20698990.906                    20698995.906
 111216554.304 7  86662285.02445  21163768.430                    21163775.813
 11  7 28  2 34 30.0000000  0 10G12G05G25G29G04G27G09G17G02G10
 109278442.831 8  85152090.89646  20794987.828                    20794994.527
 109912229.139 8  85645976.99046  20915564.805                    20915571.934
 119399848.879 7  93038855.19545  22721021.148                    22721031.281
 130158115.551 6 101421807.75043  24768233.086                    24768243.016
 119935324.128 7  93456268.64244  22822915.766                    22822923.801
 131150353.12614                  24957048.711
 131534880.413 6 102494859.94843  25030284.320                    25030294.281
 126941976.533 7  98915825.80544  24156218.500                    24156226.449
 108792830.010 8  84773708.82846  20702549.977                    20702554.805
 111259876.116 7  86696042.27946  21172012.117                    21172019.496
 11  7 28  2 35  0.0000000  0 10G12G05G25G29G04G27G09G17G02G10
 109263308.451 7  85140297.89046  20792107.617                    20792114.523
 109852090.900 8  85599116.05546  20904120.523                    20904127.930
 119324048.496 7  92979790.00945  22706597.297                    22706606.910
 130078460.969 6 101359739.32243  24753076.242                    24753084.785
 120018126.643 7  93520790.07644  22838672.430                    22838680.586
 131211924.35414                  24968764.344
 131618078.619 6 102559689.66243  25046116.367                    25046126.535
 127011732.588 6  98970181.17043  24169492.344                    24169500.961
 108811745.523 8  84788448.21346  20706149.680                    20706154.266
 111303775.135 7  86730249.31946  21180365.891                    21180373.262
 11  7 28  2 35 30.0000000  0  9G12G05G25G29G04G09G17G02G10
 109248747.639 8  85128951.81946  20789336.594                    20789342.813
 109792445.507 8  85552639.15646  20892770.227                    20892777.480
 119248643.364 7  92921032.78845  22692247.484                    22692257.938
 129998734.754 6 101297615.09844  24737904.398                    24737913.543
 120100953.946 7  93585330.80844  22854434.023                    22854442.074
 131701177.192 6 102624441.72443  25061928.914                    25061939.922
 127081668.076 6  99024676.33143  24182800.313                    24182809.027
 108830870.768 7  84803351.02346  20709788.961                    20709793.477
 111348249.740 7  86764904.86546  21188829.688                    21188836.750
 11  7 28  2 36  0.0000000  0  9G12G05G25G29G04G09G17G02G10
 109234761.061 8  85118053.20246  20786675.242                    20786682.059
 109733294.658 8  85506547.62646  20881514.617                    20881521.984
 119173635.767 7  92862585.33745  22677974.281                    22677984.070
 129918937.146 6 101235435.24044  24722718.906                    24722728.664
 120183804.751 7  93649889.89644  22870199.945                    22870207.715
 131784173.327 6 102689113.96143  25077723.391                    25077733.828
 127151782.257 6  99079310.72243  24196142.617                    24196151.133
 108850204.559 8  84818416.34746  20713468.156                    20713473.031
 111393298.013 7  86800007.41845  21197402.188                    21197409.316
 11  7 28  2 36 30.0000000  0  9G12G05G25G29G04G09G17G02G10
 109221349.399 8  85107602.56946  20784123.172                    20784129.875
 109674640.316 8  85460842.97746  20870352.766                    20870360.105
 119099028.177 7  92804449.57045  22663776.828                    22663787.043
 129839068.436 7 101173199.94144  24707521.367                    24707529.680
 120266677.794 7  93714466.27044  22885969.695                    22885977.773
 131867063.877 5 102753703.89542  25093497.008                    25093507.488
 127222075.409 6  99134084.58343  24209518.578                    24209526.559
 108869745.707 7  84833643.23146  20717186.797                    20717191.430
 111438918.117 7  86835555.54845  21206082.734                    21206090.199
 11  7 28  2 37  0.0000000  0  9G12G05G25G29G04G09G17G02G10
 109208513.468 8  85097600.56046  20781680.688                    20781687.133
 109616484.883 8  85415527.09646  20859286.219                    20859293.145
 119024823.234 7  92746627.54745  22649656.398                    22649665.750
 129759129.453 6 101110909.89544  24692309.219                    24692318.195
 120349572.120 7  93779059.26444  22901744.773                    22901751.984
 131949846.50015 102818209.71852  25109249.273                    25109260.145
 127292547.601 6  99188997.99743  24222930.219                    24222936.895
 108889493.394 7  84849031.06646  20720944.758                    20720948.801
 111485108.499 7  86871548.06445  21214872.359                    21214879.191
 11  7 28  2 37 30.0000000  0  9G12G05G25G29G04G09G17G02G10
 109196253.988 7  85088047.73146  20779347.813                    20779354.195
 109558829.643 8  85370600.98246  20848314.859                    20848321.684
 118951023.060 7  92689120.95045  22635612.320                    22635622.270
 129679119.956 6 101048564.88643  24677082.984                    24677092.051
 120432486.121 7  93843667.58844  22917522.234                    22917529.688
 132032517.721 5 102882628.74042  25124981.250                    25124992.375
 127363198.732 6  99244050.82643  24236374.242                    24236381.625
 108909446.291 7  84864578.78946  20724741.711                    20724746.148
 111531867.364 7  86907983.55845  21223770.594                    21223777.762
 11  7 28  2 38  0.0000000  0 10G12G05G25G29G13G04G09G17G02G10
 109184571.599 7  85078944.57246  20777124.742                    20777131.418
 109501676.446 8  85326066.04846  20837438.672                    20837445.563
 118877630.497 7  92631931.96045  22621646.617                    22621656.160
 129599041.086 6 100986165.80043  24661844.430                    24661853.781
 134672286.51715                  25627284.594
 120515419.013 7  93908290.61644  22933304.570                    22933311.637
 132115075.326 5 102946959.24742  25140691.570                    25140702.742
 127434029.175 6  99299243.39943  24249851.992                    24249859.621
 108929603.504 7  84880285.73746  20728576.898                    20728582.176
 111579192.912 7  86944860.61045  21232776.281                    21232783.395
 11  7 28  2 38 30.0000000  0  9G12G05G25G29G04G09G17G02G10
 109173466.602 7  85070291.34246  20775011.508                    20775017.887
 109445027.223 8  85281923.84146  20826658.914                    20826665.836
 118804647.688 7  92575062.27245  22607758.398                    22607768.410
 129518892.842 6 100923712.70343  24646592.719                    24646601.645
 120598369.210 7  93972927.12044  22949089.055                    22949097.535
 132197516.311 6 103011198.93042  25156380.898                    25156390.809
 127505038.440 6  99354575.28943  24263365.750                    24263372.531
 108949963.524 7  84896150.71446  20732451.922                    20732456.629
 111627082.902 7  86982177.49945  21241889.422                    21241896.535
 11  7 28  2 39  0.0000000  0 10G12G05G25G29G13G04G09G17G02G10
 109162940.008 8  85062088.80946  20773008.453                    20773014.727
 109388883.873 8  85238175.82846  20815974.867                    20815982.285
 118732077.149 7  92518513.83645  22593948.727                    22593958.617
 129438675.747 6 100861205.90943  24631327.727                    24631336.965
 134651813.34915                  25623386.406
 120681335.736 7  94037576.36144  22964876.984                    22964884.914
 132279837.623 6 103075345.30542  25172045.813                    25172056.063
 127576226.716 6  99410046.67443  24276911.344                    24276919.379
 108970525.260 7  84912172.87146  20736364.266                    20736369.188
 111675535.903 7  87019933.09945  21251109.648                    21251116.941
 11  7 28  2 39 30.0000000  0 10G12G05G25G29G13G04G09G17G02G10
 109152992.613 7  85054337.60046  20771115.234                    20771121.625
 109333248.032 8  85194823.26046  20805388.188                    20805394.656
 118659921.371 7  92462288.60145  22580217.570                    22580227.438
 129358390.633 5 100798646.12442  24616049.484                    24616059.453
 134642250.67715                  25621566.844
 120764317.291 7  94102237.30044  22980668.055                    22980675.805
 132362036.536 5 103139396.38542  25187687.367                    25187697.961
 127647594.088 6  99465657.58943  24290492.875                    24290500.613
 108991288.072 8  84928351.70746  20740315.461                    20740320.398
 111724549.832 7  87058125.77845  21260436.445                    21260444.020
 11  7 28  2 40  0.0000000  0 10G12G05G25G29G13G04G09G17G02G10
 109143625.180 7  85047038.30946  20769333.047                    20769339.633
 109278122.297 8  85151868.17846  20794897.484                    20794905.051
 118588183.002 7  92406388.62245  22566566.875                    22566576.262
 129278038.002 6 100736033.72342  24600759.180                    24600769.059
 134633141.50615                  25619831.656
 120847313.033 6  94166909.30444  22996461.117                    22996469.145
 132444110.755 5 103203350.23242  25203306.203                    25203316.332
 127719140.371 6  99521407.93043  24304107.875                    24304115.805
 109012251.028 8  84944686.49246  20744304.539                    20744308.887
 111774123.077 7  87096754.28845  21269870.281                    21269877.758
 11  7 28  2 40 30.0000000  0 10G12G05G25G29G13G04G09G17G02G10
 109134837.651 7  85040190.89546  20767660.672                    20767666.906
 109223507.468 8  85109311.20846  20784505.125                    20784512.117
 118516864.060 7  92350815.46745  22552995.008                    22553004.418
 129197618.090 6 100673368.78142  24585456.344                    24585466.016
 134624487.03715                  25618185.414
 120930321.603 6  94231591.31344  23012257.086                    23012264.871
 132526057.391 5 103267204.70342  25218899.664                    25218910.297
 127790865.526 6  99577297.66343  24317755.813                    24317764.574
 109033412.673 7  84961176.10046  20748331.656                    20748335.176
 111824253.166 7  87135816.68945  21279409.773                    21279417.293
 11  7 28  2 41  0.0000000  0 10G12G05G25G29G04G27G09G17G02G10
 109126630.094 8  85033795.41146  20766098.781                    20766104.781
 109169404.891 8  85067153.39646  20774209.609                    20774216.867
 118445966.440 7  92295570.63445  22539503.781                    22539513.691
 129117130.913 5 100610651.51442  24570140.602                    24570149.633
 121013341.301 6  94296282.00944  23028055.445                    23028062.977
 131938752.18114                  25107075.531
 132607873.276 6 103330957.33542  25234468.742                    25234478.926
 127862768.958 6  99633326.33442  24331438.703                    24331446.590
 109054771.456 7  84977819.32346  20752395.758                    20752400.090
 111874937.805 7  87175311.21445  21289055.164                    21289061.797
 11  7 28  2 41 30.0000000  0 11G12G05G25G29G13G04G27G09G17G02G10
 109119003.647 8  85027852.74146  20764647.344                    20764653.746
 109115817.204 8  85025396.79646  20764011.813                    20764019.320
 118375493.336 7  92240656.58945  22526092.906                    22526102.563
 129036577.842 6 100547882.85742  24554810.438                    24554820.035
 134608542.02315                  25615152.813
 121096371.703 6  94360981.02144  23043855.664                    23043863.063
 131998247.21015                  25118395.297
 132689556.130 5 103394606.28142  25250010.914                    25250023.746
 127934851.258 6  99689494.46242  24345155.125                    24345162.793
 109076327.114 7  84994615.94346  20756497.813                    20756502.289
 111926175.614 7  87215236.79145  21298804.531                    21298811.906
 11  7 28  2 42  0.0000000  0 11G12G05G25G29G13G04G27G09G17G02G10
 109111958.924 8  85022363.35346  20763306.594                    20763313.422
 109062745.804 8  84984042.49346  20753913.148                    20753919.750
 118305447.040 7  92186075.12945  22512763.000                    22512772.945
 128955959.107 6 100485063.04042  24539470.563                    24539478.352
 134601259.94314                  25613766.977
 121179411.703 6  94425687.50544  23059657.492                    23059665.602
 132057567.414 5                  25129684.898
 132771103.12315 103458149.35152  25265530.367                    25265541.383
 128007112.525 6  99745801.89842  24358906.289                    24358914.168
 109098078.296 8  85011564.93246  20760636.844                    20760641.438
 111977964.717 7  87255591.94845  21308659.648                    21308667.172
 11  7 28  2 42 30.0000000  0 11G12G05G25G29G13G04G27G09G17G02G10
 109105495.975 8  85017327.30746  20762077.102                    20762083.363
 109010192.267 8  84943091.73446  20743912.500                    20743919.125
 118235829.553 7  92131827.80745  22499515.266                    22499525.133
 128875275.321 6 100422192.48743  24524117.219                    24524125.215
 134594436.67015                  25612467.602
 121262459.822 6  94490400.31844  23075461.836                    23075468.730
 132116709.68615                  25140938.523
 132852511.04215 103521584.02352  25281020.727                    25281033.379
 128079552.345 6  99802248.52243  24372690.891                    24372699.305
 109120023.613 7  85028665.18646  20764813.000                    20764817.215
 112030302.649 7  87296374.75045  21318619.414                    21318626.707
 11  7 28  2 43  0.0000000  0 11G12G05G25G29G13G04G27G09G17G02G10
 109099616.072 7  85012745.57346  20760958.484                    20760964.473
 108958158.508 8  84902545.98746  20734010.664                    20734017.500
 118166643.552 7  92077916.71345  22486349.750                    22486359.070
 128794527.267 6 100359271.87343  24508751.063                    24508759.113
 134588073.72215                  25611257.219
 121345515.311 6  94555118.88744  23091265.484                    23091273.551
 132175672.12815                  25152159.789
 132933777.78015 103584908.70552  25296486.586                    25296497.316
 128152170.764 6  99858834.28342  24386509.547                    24386518.750
 109142162.572 7  85045916.33646  20769025.875                    20769030.555
 112083187.537 7  87337583.75545  21328682.906                    21328689.707
 11  7 28  2 43 30.0000000  0 11G12G05G25G29G13G04G27G09G17G02G10
 109094318.667 7  85008617.73846  20759949.727                    20759956.223
 108906645.957 8  84862406.38146  20724208.375                    20724214.980
 118097891.167 7  92024343.49445  22473266.352                    22473276.230
 128713715.492 6 100296301.60243  24493372.922                    24493381.359
 134582172.36615                  25610135.891
 121428576.959 6  94619842.21344  23107072.258                    23107080.383
 132234452.60315                  25163346.305
 133014900.48715 103648121.17752  25311923.523                    25311934.320
 128224967.549 6  99915559.02943  24400363.031                    24400370.902
 109164493.879 7  85063317.36246  20773274.891                    20773279.867
 112136617.250 7  87379217.30045  21338850.109                    21338857.391
 11  7 28  2 44  0.0000000  0 11G12G05G25G29G13G04G27G09G17G02G10
 109089604.614 7  85004944.46746  20759053.102                    20759059.406
 108855656.186 8  84822674.11846  20714504.648                    20714511.832
 118029574.812 7  91971110.04045  22460266.273                    22460275.883
 128632840.361 6 100233281.99243  24477982.617                    24477992.082
 134576734.202 5 104865010.58452  25609099.695                    25609107.813
 121511643.582 6  94684569.43344  23122879.469                    23122887.305
 132293049.119 5                  25174497.680
 133095876.89515 103711219.56952  25327332.164                    25327343.363
 128297942.648 6  99972422.73143  24414249.805                    24414257.820
 109187016.429 7  85080867.40546  20777561.234                    20777565.336
 112190589.806 7  87421273.84345  21349121.102                    21349128.598
 11  7 28  2 44 30.0000000  0 10G12G05G25G29G13G04G09G17G02G10
 109085474.151 8  85001725.94346  20758266.945                    20758273.320
 108805190.921 8  84783350.56446  20704901.719                    20704908.371
 117961696.839 7  91918218.17445  22447349.383                    22447358.746
 128551902.700 6 100170213.68043  24462581.250                    24462590.113
 134571760.184 5 104861134.70642  25608153.859                    25608161.512
 121594714.436 6  94749299.99444  23138686.391                    23138694.172
 133176703.86115 103774201.45852  25342713.766                    25342724.934
 128371096.176 6 100029425.48343  24428170.766                    24428179.203
 109209729.206 7  85098565.67046  20781883.117                    20781887.484
 112245102.955 7  87463751.60545  21359495.023                    21359502.141
 11  7 28  2 45  0.0000000  0 10G12G05G25G29G13G04G09G17G02G10
 109081928.102 7  84998962.79846  20757592.422                    20757598.371
 108755251.874 8  84744437.05446  20695398.641                    20695405.441
 117894259.804 7  91865669.88045  22434516.656                    22434526.473
 128470903.409 6 100107097.34843  24447168.188                    24447176.719
 134567251.573 5 104857621.53842  25607294.625                    25607303.480
 121677788.368 7  94814032.92543  23154495.578                    23154502.762
 133257379.04215                  25358066.336
 128444428.332 7 100086567.42044  24442125.758                    24442133.148
 109232631.524 7  85116411.63546  20786241.617                    20786246.207
 112300155.022 7  87506649.31745  21369971.078                    21369977.996
 11  7 28  2 45 30.0000000  0 10G12G05G25G29G13G04G09G17G02G10
 109078966.056 7  84996654.72146  20757028.234                    20757034.926
 108705840.535 8  84705934.74346  20685996.242                    20686002.711
 117827265.661 7  91813466.69945  22421768.188                    22421777.496
 128389842.634 6 100043933.16943  24431741.633                    24431751.160
 134563208.873 5                  25606526.172
 121760864.301 7  94878767.43244  23170304.852                    23170312.121
 133337899.57415                  25373388.727
 128517938.580 7 100143848.15344  24456113.633                    24456121.797
 109255722.072 8  85134404.28146  20790635.344                    20790639.918
 112355743.715 7  87549965.19345  21380549.039                    21380556.258
 11  7 28  2 46  0.0000000  0 10G12G05G25G29G13G04G09G17G02G10
 109076588.628 8  84994802.18046  20756576.172                    20756582.516
 108656958.354 8  84667844.75446  20676694.055                    20676701.000
 117760716.700 7  91761610.41745  22409103.820                    22409114.000
 128308720.987 6  99980721.59143  24416305.102                    24416313.828
 134559633.37114                  25605846.406
 121843941.255 6  94943502.69444  23186113.391                    23186121.352
 133418262.599 5                  25388681.414
 128591626.743 6 100201267.56343  24470135.914                    24470144.008
 109278999.847 7  85152542.80946  20795065.070                    20795069.496
 112411866.853 7  87593697.51245  21391229.594                    21391235.969
 11  7 28  2 46 30.0000000  0 10G12G05G25G29G13G04G09G17G02G10
 109074795.837 8  84993405.20446  20756235.078                    20756241.508
 108608606.612 8  84630168.09346  20667492.773                    20667499.820
 117694615.188 7  91710102.79445  22396525.203                    22396535.547
 128227539.192 6  99917463.15443  24400856.828                    24400865.832
 134556525.85214                  25605255.570
 121927017.919 6  95008237.72943  23201922.352                    23201930.133
 133498465.779 4                  25403942.422
 128665492.693 6 100258825.43243  24484192.945                    24484199.602
 109302463.620 8  85170826.28046  20799529.945                    20799534.570
 112468522.049 7  87637844.44045  21402009.750                    21402017.070
 11  7 28  2 47  0.0000000  0 10G12G05G25G29G13G04G09G17G02G10
 109073587.995 8  84992464.04346  20756005.289                    20756011.129
 108560786.863 8  84592905.96546  20658393.320                    20658399.895
 117628963.297 7  91658945.49545  22384032.289                    22384041.820
 128146297.805 6  99854158.23843  24385397.078                    24385405.758
 134553886.91315                  25604752.328
 122010093.435 7  95072971.90944  23217731.484                    23217739.555
 133578506.42914                  25419174.039
 128739536.141 6 100316521.68043  24498282.695                    24498289.957
 109326112.427 8  85189253.92446  20804030.297                    20804034.656
 112525706.994 7  87682404.12845  21412891.734                    21412898.910
 11  7 28  2 47 30.0000000  0 10G12G05G25G29G13G04G09G17G02G10
 109072965.224 8  84991978.76946  20755886.422                    20755892.977
 108513500.626 8  84556059.56746  20649394.820                    20649401.844
 117563763.365 7  91608140.37445  22371625.188                    22371634.520
 128064997.418 6  99790807.38743  24369925.703                    24369934.582
 134551718.545 6                  25604340.219
 122093166.826 7  95137704.41644  23233539.078                    23233547.688
 133658381.819 4                  25434374.914
 128813757.095 6 100374356.20143  24512405.359                    24512414.492
 109349945.276 8  85207824.98446  20808565.672                    20808570.195
 112583419.675 7  87727375.06445  21423873.984                    21423881.035
 11  7 28  2 48  0.0000000  0 11G12G05G25G29G13G26G04G09G17G02G10
 109072927.718 8  84991949.54346  20755879.352                    20755885.965
 108466749.559 8  84519630.18246  20640498.320                    20640505.191
 117499017.694 7  91557689.20345  22359304.008                    22359313.980
 127983638.889 6  99727411.22743  24354443.313                    24354452.414
 134550021.99715                  25604016.977
 136542882.99416                  25983248.156
 122176237.097 6  95202434.44643  23249347.586                    23249354.961
 133738089.40114                  25449540.852
 128888155.379 6 100432328.87543  24526564.070                    24526571.977
 109373961.120 8  85226538.65446  20813135.508                    20813140.168
 112641657.882 7  87772755.48945  21434956.750                    21434963.234
 11  7 28  2 48 30.0000000  0 11G12G05G25G29G13G26G04G09G17G02G10
 109073476.298 8  84992377.01346  20755983.906                    20755990.508
 108420535.231 8  84483619.04046  20631703.836                    20631710.961
 117434728.836 7  91507593.99045  22347070.891                    22347079.895
 127902223.161 6  99663970.53943  24338950.531                    24338959.305
 134548797.00515                  25603784.039
 136462593.09214 106334526.59452  25967968.852                    25967980.566
 122259303.605 6  95267161.62344  23265153.820                    23265161.242
 133817628.00915                  25464677.844
 128962731.116 6 100490439.87144  24540755.555                    24540763.352
 109398159.375 7  85245394.44746  20817740.477                    20817744.934
 112700419.828 7  87818544.03145  21446138.719                    21446145.777
 11  7 28  2 49  0.0000000  0 10G12G05G25G29G26G04G09G17G02G10
 109074609.918 8  84993260.34746  20756199.391                    20756205.723
 108374858.484 8  84448026.79446  20623012.063                    20623019.430
 117370898.185 7  91457855.82445  22334924.250                    22334933.188
 127820750.057 6  99600485.13343  24323446.234                    24323455.141
 136382009.384 5                  25952633.539
 122342364.535 6  95331884.45843  23280959.250                    23280966.715
 133896992.340 5                  25479781.633
 129037483.561 6 100548688.56044  24554980.344                    24554988.195
 109422538.232 7  85264390.98446  20822379.523                    20822383.996
 112759702.314 7  87864738.19045  21457419.242                    21457426.695
 11  7 28  2 49 30.0000000  0 10G12G05G25G29G26G04G09G17G02G10
 109076329.009 8  84994599.89946  20756526.703                    20756533.051
 108329720.464 8  84412854.34046  20614422.727                    20614429.551
 117307528.044 7  91408476.51245  22322865.477                    22322874.922
 127739220.679 6  99536955.87343  24307931.898                    24307940.359
 136301135.607 5                  25937243.180
 122425419.150 6  95396602.29243  23296764.727                    23296772.375
 133976181.072 5                  25494848.602
 129112412.318 6 100607074.57844  24569238.336                    24569246.660
 109447096.704 7  85283527.45346  20827052.719                    20827056.930
 112819503.067 7  87911336.17645  21468799.508                    21468806.793
 11  7 28  2 50  0.0000000  0 10G12G05G25G29G26G04G09G17G02G10
 109078633.867 8  84996395.89546  20756965.305                    20756971.824
 108285123.098 8  84378103.17246  20605936.148                    20605942.914
 117244620.970 7  91359458.01145  22310894.352                    22310903.977
 127657635.634 6  99473383.24843  24292406.313                    24292415.223
 136219974.643 6                  25921800.203
 122508466.746 6  95461314.67444  23312568.609                    23312575.594
 134055191.674 5                  25509884.633
 129187518.201 6 100665598.63843  24583530.375                    24583539.309
 109471834.350 8  85302803.56146  20831760.031                    20831764.516
 112879820.586 7  87958336.84845  21480277.719                    21480284.258
 11  7 28  2 50 30.0000000  0 10G12G05G25G29G26G04G09G17G02G10
 109081525.176 8  84998648.86746  20757515.672                    20757521.809
 108241067.563 8  84343774.20146  20597552.648                    20597559.504
 117182179.156 7  91310802.05845  22299012.203                    22299022.094
 127575995.866 6  99409767.93843  24276872.695                    24276880.016
 136138527.978 5 106082007.61252  25906299.023                    25906310.871
 122591506.317 6  95526020.85544  23328370.219                    23328378.406
 134134021.751 5                  25524884.789
 129262800.664 6 100724260.32943  24597855.313                    24597863.930
 109496750.290 8  85322218.59546  20836501.266                    20836505.785
 112940652.353 7  88005738.23045  21491853.305                    21491860.398
 11  7 28  2 51  0.0000000  0 10G12G05G25G29G13G26G04G17G02G10
 109085001.404 8  85001357.62546  20758176.906                    20758183.250
 108197554.880 8  84309868.23346  20589272.172                    20589279.082
 117120204.424 7  91262510.05645  22287218.523                    22287228.512
 127494301.724 6  99346110.27343  24261325.102                    24261333.957
 134549749.88315                  25603970.547
 136056797.813 5 106018322.04042  25890747.172                    25890757.848
 122674536.890 6  95590719.96444  23344170.430                    23344178.141
 129338258.976 5 100783059.02142  24612214.203                    24612223.801
 109521842.736 7  85341771.16146  20841276.273                    20841281.102
 113001995.462 7  88053538.07245  21503526.570                    21503533.680
 11  7 28  2 51 30.0000000  0 10G12G05G25G29G13G26G04G17G02G10
 109089063.967 8  85004523.25846  20758949.828                    20758955.875
 108154587.063 8  84276386.84346  20581095.570                    20581102.430
 117058699.532 7  91214584.16745  22275514.633                    22275524.543
 127412554.552 6  99282411.25243  24245769.367                    24245778.281
 134551373.477 5                  25604279.453
 135974786.473 5 105954417.34143  25875140.477                    25875151.707
 122757558.111 7  95655411.83544  23359968.766                    23359976.891
 129413893.845 6 100841995.27443  24626608.609                    24626616.609
 109547111.550 8  85361461.16946  20846084.727                    20846089.465
 113063848.330 7  88101735.13945  21515296.914                    21515303.875
 11  7 28  2 52  0.0000000  0  9G12G05G25G29G26G04G17G02G10
 109093712.250 8  85008145.30546  20759834.719                    20759841.375
 108112165.092 8  84243330.79846  20573022.922                    20573029.965
 116997666.198 7  91167025.75945  22263900.250                    22263909.738
 127330754.690 6  99218671.12043  24230203.711                    24230211.629
 135892495.993 5 105890295.15842  25859481.578                    25859492.574
 122840568.506 6  95720095.24444  23375765.266                    23375773.691
 129489704.226 6 100901068.31943  24641035.148                    24641043.203
 109572555.431 8  85381287.57246  20850926.563                    20850931.086
 113126208.075 7  88150327.16245  21527163.797                    21527170.105
 11  7 28  2 52 30.0000000  0 10G12G05G25G29G13G26G04G17G02G10
 109098946.409 8  85012223.87346  20760830.563                    20760837.176
 108070289.972 8  84210700.86346  20565054.352                    20565061.629
 116937106.681 7  91119836.55645  22252376.109                    22252385.785
 127248902.989 6  99154890.60643  24214627.813                    24214635.500
 134556049.75015                  25605169.609
 135809928.609 5 105825957.18742  25843769.109                    25843780.043
 122923567.364 6  95784769.63444  23391558.977                    23391567.848
 129565690.278 6 100960278.33942  24655495.344                    24655501.121
 109598173.537 8  85401249.75046  20855801.328                    20855806.371
 113189072.807 7  88199312.68745  21539126.398                    21539133.457
 11  7 28  2 53  0.0000000  0 10G12G05G25G29G13G26G04G17G02G10
 109104766.001 8  85016758.63046  20761937.789                    20761944.609
 108028962.754 8  84178497.86446  20557190.297                    20557196.961
 116877022.689 7  91073017.90445  22240942.641                    22240952.004
 127166999.789 6  99091069.94643  24199041.844                    24199049.375
 134559108.090 5 104851296.64652  25605752.727                    25605758.902
 135727085.964 5 105761404.74642  25828004.313                    25828015.527
 123006553.281 6  95849433.97144  23407351.250                    23407358.859
 129641851.506 6 101019624.82843  24669987.234                    24669993.520
 109623964.437 8  85421346.57146  20860709.273                    20860713.887
 113252439.864 7  88248689.63445  21551184.594                    21551191.254
 11  7 28  2 53 30.0000000  0 10G12G05G25G29G13G26G04G17G02G10
 109111171.180 8  85021749.68946  20763156.820                    20763163.402
 107988184.924 8  84146722.96846  20549430.547                    20549437.352
 116817416.560 8  91026571.60545  22229600.281                    22229609.023
 127085046.140 6  99027209.96943  24183446.844                    24183454.535
 134562646.605 5 104854054.14642  25606425.578                    25606433.371
 135643970.509 6 105696639.57252  25812187.289                    25812198.219
 123089525.833 6  95914087.91144  23423140.430                    23423148.211
 129718187.795 6 101079107.67143  24684512.883                    24684521.117
 109649927.479 8  85441577.52346  20865650.164                    20865654.832
 113316306.641 7  88298455.95945  21563337.750                    21563344.781
 11  7 28  2 54  0.0000000  0 10G12G05G25G29G13G26G04G17G02G10
 109118161.376 8  85027196.60246  20764487.109                    20764493.449
 107947957.279 8  84115376.77546  20541775.492                    20541782.016
 116758290.103 8  90980499.08745  22218348.602                    22218357.473
 127003042.662 6  98963311.23843  24167840.859                    24167850.309
 134566664.708 5 104857184.93142  25607191.016                    25607198.391
 135560584.115 5 105631663.43242  25796321.414                    25796330.625
 123172483.912 6  95978730.54244  23438927.180                    23438934.883
 129794698.884 6 101138726.71343  24699072.805                    24699080.859
 109676061.442 8  85461941.65846  20870623.398                    20870627.863
 113380670.498 7  88348609.64045  21575585.797                    21575592.637
 11  7 28  2 54 30.0000000  0 10G12G05G25G29G13G26G04G17G02G10
 109125736.809 8  85033099.54246  20765929.016                    20765935.160
 107908281.487 8  84084460.60246  20534225.047                    20534232.012
 116699645.752 8  90934802.22945  22207188.875                    22207198.211
 126920990.471 6  98899374.50043  24152227.344                    24152236.387
 134571164.478 6 104860691.35942  25608046.383                    25608054.512
 135476929.80314                  25780398.969
 123255426.931 6  96043361.46144  23454710.227                    23454718.875
 129871384.577 6 101198481.81943  24713665.703                    24713673.461
 109702365.720 8  85482438.51346  20875628.523                    20875633.289
 113445529.833 7  88399149.38545  21587928.164                    21587935.156
 11  7 28  2 55  0.0000000  0 10G12G05G25G29G13G26G04G17G02G10
 109133897.125 8  85039458.23146  20767481.609                    20767487.754
 107869158.092 8  84053974.87546  20526780.039                    20526786.715
 116641485.210 8  90889482.37745  22196121.328                    22196130.980
 126838889.872 6  98835400.07843  24136603.555                    24136612.840
 134576145.676 4 104864572.86442  25608993.641                    25609002.766
 135393007.838 5                  25764430.516
 123338353.742 6  96107979.73644  23470490.656                    23470498.777
 129948244.561 6 101258372.75343  24728291.023                    24728299.586
 109728838.958 8  85503067.02246  20880666.359                    20880670.988
 113510881.454 7  88450072.74345  21600363.945                    21600371.219
 11  7 28  2 55 30.0000000  0  9G12G05G25G29G26G04G17G02G10
 109142641.934 8  85046272.38146  20769145.625                    20769152.016
 107830588.399 8  84023920.59646  20519440.375                    20519447.277
 116583810.353 8  90844540.97045  22185146.188                    22185155.402
 126756741.948 6  98771388.76843  24120972.109                    24120980.590
 135308822.30914                  25748410.266
 123421263.381 6  96172584.65343  23486267.461                    23486276.051
 130025278.357 6 101318399.09743  24742950.859                    24742959.074
 109755479.965 8  85523826.26046  20885735.984                    20885740.648
 113576722.833 7  88501377.74945  21612893.531                    21612900.258
 11  7 28  2 56  0.0000000  0 10G12G05G25G29G13G26G04G17G02G10
 109151971.088 8  85053541.84746  20770920.594                    20770926.977
 107792573.605 8  83994298.71546  20512206.438                    20512213.320
 116526623.474 8  90799979.81645  22174263.703                    22174272.984
 126674547.709 6  98707341.36743  24105330.977                    24105339.945
 134587555.29715                  25611165.133
 135224373.96015                  25732340.961
 123504155.157 6  96237175.56643  23502041.086                    23502049.910
 130102485.956 5 101378560.78743  24757642.531                    24757651.035
 109782288.447 8  85544715.98946  20890837.914                    20890842.070
 113643051.805 7  88553062.69345  21625514.984                    21625522.379
 11  7 28  2 56 30.0000000  0 10G12G05G25G29G13G26G04G17G02G10
 109161884.871 8  85061266.87646  20772807.359                    20772813.773
 107755115.405 8  83965110.53346  20505078.508                    20505085.086
 116469927.167 7  90755800.90645  22163474.844                    22163484.063
 126592308.289 6  98643258.82143  24089681.469                    24089689.668
 134593985.343 6                  25612388.836
 135139666.901 5                  25716220.516
 123587028.999 6  96301752.60543  23517812.656                    23517820.902
 130179867.307 5 101438857.96142  24772368.328                    24772376.316
 109809264.216 8  85565736.08946  20895970.727                    20895975.516
 113709866.833 7  88605126.35545  21638229.844                    21638236.566
 11  7 28  2 57  0.0000000  0 10G12G05G25G29G13G26G04G17G02G10
 109172382.497 8  85069446.84946  20774805.063                    20774811.141
 107718213.705 7  83936355.99146  20498056.258                    20498062.988
 116413722.575 8  90712005.16245  22152779.438                    22152788.801
 126510023.737 6  98579141.04943  24074022.531                    24074031.727
 134600899.123 5                  25613704.609
 135054702.030 5                  25700052.555
 123669883.105 6  96366314.22743  23533578.352                    23533587.465
 130257421.852 5 101499290.05243  24787125.945                    24787134.266
 109836405.217 8  85586884.92946  20901135.711                    20901140.195
 113777164.557 7  88657566.16145  21651036.195                    21651043.430
 11  7 28  2 57 30.0000000  0  9G12G05G25G29G26G04G17G02G10
 109183463.522 8  85078081.41546  20776913.703                    20776920.242
 107681870.051 7  83908036.28546  20491140.422                    20491146.914
 116358011.651 8  90668594.08845  22142178.227                    22142187.488
 126427694.999 6  98514988.87043  24058356.313                    24058365.109
 134969481.606 5                  25683835.219
 123752716.893 6  96430859.98843  23549341.453                    23549349.785
 130335148.978 6 101559856.61443  24801916.969                    24801925.102
 109863710.291 8  85608161.61746  20906331.523                    20906336.168
 113844941.997 7  88710379.76245  21663934.094                    21663940.805
 11  7 28  2 58  0.0000000  0 10G12G05G25G29G13G26G04G17G02G10
 109195127.739 8  85087170.42046  20779133.211                    20779139.957
 107646085.262 7  83880152.07146  20484330.516                    20484337.586
 116302796.488 8  90625569.32446  22131670.781                    22131680.156
 126345323.068 6  98450803.07943  24042681.578                    24042690.055
 134616181.72815                  25616612.680
 134884007.961 6                  25667569.859
 123835529.590 6  96495389.41143  23565100.289                    23565107.707
 130413048.704 6 101620557.71943  24816739.586                    24816748.996
 109891178.873 8  85629565.70946  20911558.656                    20911563.379
 113913196.917 7  88763565.41845  21676922.570                    21676929.699
 11  7 28  2 58 30.0000000  0 10G12G05G25G29G13G26G04G17G02G10
 109207374.861 8  85096713.63446  20781463.844                    20781470.234
 107610859.932 7  83852703.79046  20477627.516                    20477634.328
 116248078.833 8  90582932.22245  22121258.438                    22121267.289
 126262908.684 6  98386584.16343  24026997.969                    24027006.953
 134624549.698 5                  25618205.273
 134798283.354 6                  25651257.586
 123918320.246 6  96559901.56843  23580854.313                    23580862.836
 130491120.451 6 101681392.85443  24831598.484                    24831605.473
 109918809.797 8  85651096.31246  20916816.359                    20916821.105
 113981926.785 7  88817121.18945  21690000.883                    21690008.297
 11  7 28  2 59  0.0000000  0  9G12G05G25G29G26G04G17G02G10
 109220204.532 8  85106710.78346  20783905.359                    20783911.684
 107576195.896 7  83825692.87546  20471030.781                    20471037.613
 116193861.082 8  90540684.65845  22110940.820                    22110949.828
 126180453.051 6  98322333.12043  24011307.289                    24011315.930
 134712310.566 6                  25634897.672
 124001088.540 6  96624396.30343  23596604.305                    23596612.852
 130569364.197 6 101742362.07242  24846486.484                    24846494.328
 109946602.835 8  85672753.21746  20922105.539                    20922109.879
 114051129.591 7  88871045.45445  21703169.648                    21703176.926
 11  7 28  2 59 30.0000000  0  9G12G05G25G29G26G04G17G02G10
 109233616.495 8  85117161.66746  20786457.445                    20786464.027
 107542093.485 7  83799119.60246  20464541.742                    20464548.273
 116140144.787 8  90498827.82045  22100718.984                    22100728.684
 126097956.767 6  98258050.43543  23995608.891                    23995617.316
 134626091.377 6                  25618489.563
 124083833.423 6  96688872.85143  23612351.164                    23612358.180
 130647779.375 6 101803464.87143  24861409.273                    24861415.977
 109974556.721 8  85694535.48046  20927425.172                    20927429.785
 114120802.377 7  88925335.94345  21716428.031                    21716435.563
 11  7 28  3  0  0.0000000  0  9G12G05G25G29G26G04G17G02G10
 109247609.909 8  85128065.62446  20789120.141                    20789126.969
 107508553.792 8  83772984.80746  20458159.172                    20458165.855
 116086931.958 8  90457363.31245  22090592.688                    22090602.699
 126015420.849 6  98193736.83543  23979902.492                    23979911.293
 134539628.469 6                  25602036.586
 124166554.341 6  96753330.75243  23628092.016                    23628099.453
 130726365.759 6 101864701.06843  24876362.914                    24876370.074
 110002670.670 8  85716442.45546  20932774.773                    20932779.391
 114190942.551 7  88979990.62045  21729775.359                    21729782.766
 11  7 28  3  0 30.0000000  0  9G12G05G25G29G26G04G17G02G10
 109262184.034 8  85139422.09046  20791893.445                    20791899.816
 107475577.431 7  83747288.97646  20451883.906                    20451890.602
 116034224.388 8  90416292.49946  22080563.133                    22080572.406
 125932846.198 6  98129393.03843  23964188.898                    23964197.441
 134452924.115 6 104768535.77453  25585538.391                    25585546.859
 124249250.407 7  96817769.20143  23643829.758                    23643836.539
 130805122.906 6 101926070.25042  24891350.250                    24891358.320
 110030943.567 8  85738473.30046  20938154.852                    20938159.668
 114261547.684 7  89035007.62445  21743210.609                    21743218.047
 11  7 28  3  1  0.0000000  0 10G12G05G25G29G13G26G04G17G02G10
 109277339.406 8  85151231.47646  20794777.578                    20794783.973
 107443165.628 8  83722033.06446  20445716.297                    20445723.418
 115982023.983 8  90375616.88346  22070629.508                    22070638.996
 125850233.620 6  98065019.68943  23948468.398                    23948476.281
 134673684.33814                  25627556.844
 134365980.402 6 104700787.59143  25568992.141                    25569001.969
 124331920.791 7  96882187.67444  23659560.945                    23659568.664
 130884050.716 6 101987572.50842  24906369.273                    24906377.457
 110059374.749 8  85760627.46946  20943564.773                    20943569.258
 114332615.264 7  89090384.98245  21756734.953                    21756741.520
 11  7 28  3  1 30.0000000  0 10G12G05G25G29G13G26G04G17G02G10
 109293074.570 8  85163492.65446  20797771.891                    20797778.348
 107411318.516 8  83697217.15946  20439655.906                    20439662.773
 115930332.339 8  90335337.69246  22060793.547                    22060802.395
 125767584.021 6  98000617.51743  23932740.719                    23932748.879
 134684971.81714                  25629703.445
 134278799.681 6 104632854.67742  25552402.711                    25552412.574
 124414564.746 7  96946585.52943  23675286.750                    23675294.875
 130963148.560 6 102049207.22943  24921422.391                    24921429.074
 110087962.964 8  85782904.00146  20949005.508                    20949010.230
 114404142.602 7  89146120.58345  21770345.875                    21770352.484
 11  7 28  3  2  0.0000000  0  9G12G05G25G29G26G04G17G02G10
 109309389.135 8  85176205.30946  20800876.547                    20800883.434
 107380037.236 8  83672842.17246  20433702.953                    20433709.371
 115879151.314 8  90295456.39946  22051053.625                    22051063.004
 125684898.281 6  97936187.13943  23917006.047                    23917013.703
 134191384.444 6 104564739.14943  25535768.070                    25535777.090
 124497181.597 7  97010962.25643  23691008.805                    23691016.141
 131042416.087 6 102110974.06542  24936505.531                    24936512.980
 110116707.550 8  85805302.39046  20954475.391                    20954479.707
 114476126.933 7  89202212.28045  21784044.508                    21784051.051
 11  7 28  3  2 30.0000000  0 10G12G05G25G29G13G26G04G17G02G10
 109326282.599 8  85189369.04346  20804091.320                    20804097.648
 107349322.854 8  83648908.92346  20427858.563                    20427865.426
 115828482.801 8  90255974.46346  22041411.719                    22041421.168
 125602177.337 7  97871729.33443  23901264.844                    23901272.711
 134709014.77415                  25634279.289
 134103736.989 5 104496442.60442  25519088.945                    25519097.973
 124579770.612 7  97075317.34043  23706724.906                    23706732.617
 131121852.941 5 102172872.94843  24951621.641                    24951629.422
 110145607.610 8  85827821.92346  20959974.922                    20959979.703
 114548565.641 7  89258658.03345  21797828.945                    21797835.949
 11  7 28  3  3  0.0000000  0  9G12G05G25G29G26G04G17G02G10
 109343754.393 8  85202983.43146  20807415.906                    20807422.254
 107319176.021 8  83625417.92346  20422121.469                    20422128.625
 115778328.849 8  90216893.48446  22031867.711                    22031877.141
 125519422.405 6  97807245.02943  23885517.102                    23885524.699
 134015860.075 5 104427967.35242  25502365.930                    25502375.602
 124662331.316 7  97139650.38043  23722435.391                    23722443.480
 131201458.794 5 102234903.42943  24966771.078                    24966777.410
 110174662.614 8  85850462.19846  20965503.828                    20965508.008
 114621456.409 7  89315456.03845  21811699.289                    21811706.879
 11  7 28  3  3 30.0000000  0  9G12G05G25G29G26G04G17G02G10
 109361804.160 8  85217048.19446  20810850.734                    20810857.035
 107289597.491 7  83602369.75346  20416493.117                    20416499.871
 115728691.046 8  90178214.68546  22022422.008                    22022431.914
 125436634.608 7  97742735.12444  23869763.289                    23869770.770
 133927755.939 5 104359314.94143  25485601.125                    25485610.230
 124744863.150 6  97203960.86843  23738139.766                    23738148.691
 131281233.37215 102297065.44152  24981949.883                    24981958.590
 110203871.968 7  85873222.73746  20971062.133                    20971066.340
 114694796.435 7  89372604.10945  21825655.445                    21825662.934
 11  7 28  3  4  0.0000000  0  9G12G05G25G29G26G04G17G02G10
 109380431.058 8  85231562.67546  20814395.063                    20814401.438
 107260587.599 7  83579764.66946  20410972.570                    20410979.707
 115679570.741 8  90139939.13646  22013074.594                    22013084.094
 125353814.513 7  97678200.05044  23854002.953                    23854010.770
 133839426.539 5 104290487.12142  25468790.109                    25468801.363
 124827364.895 6  97268247.87243  23753840.344                    23753848.020
 131361176.20515 102359358.45052  24997163.336                    24997171.797
 110233233.790 8  85896102.09146  20976649.336                    20976653.859
 114768582.710 7  89430099.90245  21839696.844                    21839703.648
